[[[{"header":{"parameterUnit":"kt","parameterCategory":2,"dx":1,"dy":1,"la1":29.285339999999998,"la2":30.599998999999997,"lo1":-89.70041500000002,"lo2":-87.6738589999976,"nx":112,"ny":82,"refTime":"2022-09-25T12:00:00:Z","depth":0,"parameterNumber":1,"parameterNumberName":"U-component_of_WINDS"},"data":[14.4428,14.5744,14.5786,14.0153,14.0153,13.9868,13.3621,13.3271,13.395,0.0,0.0,0.0,0.0,0.0,0.0,0.0,0.0,0.0,0.0,13.0641,13.0904,12.9984,13.4126,13.7808,13.9802,14.2959,14.7891,15.5321,15.5806,15.828,16.4147,16.4476,16.4476,16.4476,16.4476,16.4476,16.4476,16.4476,16.4476,16.4476,16.4476,16.4476,16.4476,16.4476,16.4476,16.4476,16.4476,16.4476,16.4476,16.4476,16.4476,16.4476,16.4476,16.4476,16.4476,16.4476,16.4476,16.4476,16.4476,16.4476,16.4476,16.4476,16.4476,16.4476,16.4476,16.4476,16.4541,16.5093,16.4896,16.4567,16.5159,16.4896,16.4476,16.4476,16.4476,16.4476,16.4476,16.4476,16.4476,16.4476,16.4476,16.4476,16.4476,16.4476,16.4476,16.4476,16.4476,16.4476,16.4476,16.4476,16.4476,16.4476,16.4476,16.4476,16.4476,16.4476,16.4476,16.4476,16.4476,16.4476,16.4476,16.4476,16.4476,16.4476,16.4476,16.4476,16.4476,16.4476,16.4476,16.4476,16.4476,16.4476,14.0153,14.1381,14.1315,13.5089,13.4892,13.5068,13.0181,0.0,0.0,0.0,0.0,0.0,0.0,0.0,0.0,0.0,0.0,0.0,0.0,13.0465,13.2174,13.2745,13.7545,14.1358,14.2761,14.5984,15.0389,15.6201,15.6571,15.8872,16.4147,16.4476,16.4476,16.4476,16.4476,16.4476,16.4476,16.4476,16.4476,16.4476,16.4476,16.4476,16.4476,16.4476,16.4476,16.4476,16.4476,16.4476,16.4476,16.4476,16.4476,16.4476,16.4476,16.4476,16.4476,16.4476,16.4476,16.4476,16.4476,16.4476,16.4476,16.4476,16.4476,16.4476,16.4476,16.4476,16.4476,16.4476,16.4476,16.4476,16.4476,16.4476,16.4476,16.4476,16.4476,16.4476,16.4476,16.4476,16.4476,16.4476,16.4476,16.4476,16.4476,16.4476,16.4476,16.4476,16.4476,16.4476,16.4476,16.4476,16.4476,16.4476,16.4476,16.4476,16.4476,16.4476,16.4476,16.4476,16.4476,16.4476,16.4476,16.4476,16.4476,16.4476,16.4476,16.4476,16.4476,16.4476,16.4476,16.4476,16.4476,16.4476,13.5265,13.4213,13.3226,12.8841,12.7789,12.7854,0.0,0.0,12.9787,0.0,0.0,0.0,0.0,0.0,0.0,0.0,0.0,0.0,0.0,12.961,13.395,13.8202,14.2476,14.5632,14.7233,14.6092,14.8877,15.7516,15.5453,15.6875,16.4081,16.441,16.441,16.4476,16.4476,16.4476,16.4476,16.4476,16.4476,16.4476,16.4476,16.4476,16.4476,16.4476,16.4476,16.4476,16.4476,16.4476,16.4476,16.4476,16.4476,16.4476,16.4476,16.4476,16.4476,16.4476,16.4476,16.4476,16.4476,16.4476,16.4476,16.4476,16.4476,16.4476,16.4476,16.4476,16.4476,16.4476,16.4476,16.4476,16.4476,16.4476,16.4476,16.4476,16.4476,16.4476,16.4476,16.4476,16.4476,16.4476,16.4476,16.4476,16.4476,16.4476,16.4476,16.4476,16.4476,16.4476,16.4476,16.4476,16.4476,16.4476,16.4476,16.4476,16.4476,16.4476,16.4476,16.4476,16.4476,16.4476,16.4476,16.4476,16.4476,16.4476,16.4476,16.4476,16.4476,16.4476,16.4476,16.4476,16.4476,16.4476,13.0136,13.1056,13.2109,0.0,0.0,0.0,0.0,0.0,0.0,0.0,0.0,0.0,0.0,0.0,12.9458,0.0,0.0,13.4016,13.2174,13.6514,14.0351,14.1512,14.3659,14.6815,15.1483,15.1615,15.4072,16.0648,15.6571,15.6875,16.4081,16.345,16.3384,16.441,16.4476,16.4476,16.4476,16.4476,16.4476,16.4476,16.4476,16.4476,16.4476,16.4476,16.4476,16.4476,16.4476,16.4476,16.4476,16.4476,16.4476,16.4476,16.4476,16.4476,16.4476,16.4476,16.4476,16.4476,16.4476,16.4476,16.4476,16.4476,16.4476,16.4476,16.4476,16.4476,16.4476,16.4476,16.4476,16.4476,16.4476,16.4476,16.4476,16.4476,16.4476,16.4476,16.4476,16.4476,16.4476,16.4476,16.4476,16.4476,16.4476,16.4476,16.4476,16.4476,16.4476,16.4476,16.4476,16.4476,16.4476,16.4476,16.4476,16.4476,16.4476,16.4476,16.4476,16.4476,16.4476,16.4476,16.4476,16.4476,16.4476,16.4476,16.4476,16.4476,16.4476,16.4476,16.4476,16.4476,16.4476,16.4476,0.0,0.0,0.0,0.0,0.0,0.0,12.7617,0.0,12.7197,0.0,0.0,0.0,0.0,0.0,0.0,0.0,13.4213,13.6646,13.4607,13.9802,14.4208,14.548,14.7956,15.0718,15.3456,15.3785,15.5889,16.1042,15.7228,15.7006,16.2398,16.2398,16.2686,16.3515,16.4147,16.4476,16.4476,16.4476,16.4476,16.4476,16.4476,16.4476,16.4476,16.4476,16.4476,16.4476,16.4476,16.4476,16.4476,16.4476,16.4476,16.4476,16.4476,16.4476,16.4476,16.4476,16.4476,16.4476,16.4476,16.4476,16.4476,16.4476,16.4476,16.4476,16.4476,16.4476,16.4476,16.4476,16.4476,16.4476,16.4476,16.4476,16.4476,16.4476,16.4476,16.4476,16.4476,16.4476,16.4476,16.4476,16.4476,16.4476,16.4476,16.4476,16.4476,16.4476,16.4476,16.4476,16.4476,16.4476,16.4476,16.4476,16.4476,16.4476,16.4476,16.4476,16.4476,16.4476,16.4476,16.4476,16.4476,16.4476,16.4476,16.4476,16.4476,16.4476,16.4476,16.4476,16.4476,16.4476,16.4476,16.4476,0.0,0.0,0.0,0.0,12.6671,0.0,0.0,0.0,12.8052,12.917,0.0,13.097,13.1496,0.0,0.0,12.9827,13.5397,13.886,13.6186,14.1819,14.721,14.9863,15.3546,15.5387,15.4113,15.3982,15.5626,15.9636,15.7426,15.7163,16.0031,16.124,16.1963,16.2292,16.3515,16.4278,16.4476,16.4476,16.4476,16.4476,16.4476,16.4476,16.4476,16.4476,16.4476,16.4476,16.4476,16.4476,16.4476,16.4476,16.4476,16.4476,16.4476,16.4476,16.4476,16.4476,16.4476,16.4476,16.4476,16.4476,16.4476,16.4476,16.4476,16.4476,16.4476,16.4476,16.4476,16.4476,16.4476,16.4476,16.4476,16.4476,16.4476,16.4476,16.4476,16.4476,16.4476,16.4476,16.4476,16.4476,16.4476,16.4476,16.4476,16.4476,16.4476,16.4476,16.4476,16.4476,16.4476,16.4476,16.4476,16.4476,16.4476,16.4476,16.4476,16.4476,16.4476,16.4476,16.4476,16.4476,16.4476,16.4476,16.4476,16.4476,16.4476,16.4476,16.4476,16.4476,16.4476,16.4476,16.4476,16.4476,0.0,0.0,0.0,0.0,0.0,12.6782,0.0,0.0,0.0,13.8246,13.8356,13.8005,14.1424,14.1117,14.0679,14.1512,14.4909,14.6773,14.4931,14.9929,15.4006,15.4598,15.5387,15.5782,15.5519,15.5519,15.6308,15.8305,15.6834,15.7163,16.0031,15.9358,15.995,16.2226,16.2555,16.3252,16.441,16.4476,16.4476,16.4476,16.4476,16.4476,16.4476,16.4476,16.4476,16.4476,16.4476,16.4476,16.4476,16.4476,16.4476,16.4476,16.4476,16.4476,16.4476,16.4476,16.4476,16.4476,16.4476,16.4476,16.4476,16.4476,16.4476,16.4476,16.4476,16.4476,16.4476,16.4476,16.4476,16.4476,16.4476,16.4476,16.4476,16.4476,16.4476,16.4476,16.4476,16.4476,16.4476,16.4476,16.4476,16.4476,16.4476,16.4476,16.4476,16.4476,16.4476,16.4476,16.4476,16.4476,16.4476,16.4476,16.4476,16.4476,16.4476,16.4476,16.4476,16.4476,16.4476,16.4476,16.4476,16.4476,16.4476,16.4476,16.4476,16.4476,16.4476,16.4476,16.4476,16.4476,16.4476,16.4476,0.0,0.0,0.0,12.5599,0.0,0.0,0.0,12.7703,12.9564,13.6076,13.7435,13.8619,14.2235,14.3485,14.4208,14.4909,14.8154,15.0808,15.1442,15.4072,15.5913,15.5913,15.5913,15.5913,15.5913,15.5913,15.6176,15.6924,15.6332,15.6505,15.7952,15.8042,15.9029,16.1174,16.1963,16.2989,16.441,16.4476,16.4476,16.4476,16.4476,16.4476,16.4476,16.4476,16.4476,16.4476,16.4476,16.4476,16.4476,16.4476,16.4476,16.4476,16.4476,16.4476,16.4476,16.4476,16.4476,16.4476,16.4476,16.4476,16.4476,16.4476,16.4476,16.4476,16.4476,16.4476,16.4476,16.4476,16.4476,16.4476,16.4476,16.4476,16.4476,16.4476,16.4476,16.4476,16.4476,16.4476,16.4476,16.4476,16.4476,16.4476,16.4476,16.4476,16.4476,16.4476,16.4476,16.4476,16.4476,16.3844,16.3384,16.3384,16.2726,16.2595,16.3318,16.3384,16.3713,16.441,16.4476,16.4476,16.4476,16.4476,16.4476,16.4476,16.4476,16.4476,16.4476,16.4476,16.4476,16.4476,16.4476,16.4476,12.3278,12.4067,0.0,0.0,0.0,0.0,12.6302,12.7966,13.0617,13.4936,13.772,14.0285,14.3156,14.5589,14.7144,14.7144,15.0126,15.3241,15.5584,15.5913,15.5913,15.5913,15.5913,15.5913,15.5913,15.5913,15.5913,15.5913,15.5913,15.5913,15.5913,15.699,15.8305,15.9727,16.0845,16.2292,16.4041,16.4041,16.4147,16.4476,16.4476,16.4476,16.4476,16.4476,16.4476,16.4476,16.4476,16.4476,16.4476,16.4476,16.4476,16.4476,16.4476,16.4476,16.4476,16.4476,16.4476,16.4476,16.4476,16.4476,16.4476,16.4476,16.4476,16.4476,16.4476,16.4476,16.4476,16.4476,16.4476,16.4476,16.4476,16.4476,16.4476,16.4476,16.4476,16.4476,16.4476,16.4476,16.4476,16.4476,16.4476,16.4476,16.4476,16.4476,16.4476,16.4476,16.4476,16.4476,16.4476,16.345,16.262,16.2357,16.1305,16.0951,16.1831,16.1897,16.2489,16.3976,16.4041,16.4173,16.441,16.4476,16.4476,16.4476,16.4476,16.4476,16.4476,16.4476,16.4476,16.4476,16.4476,16.4476,12.1212,12.2574,12.4264,12.6671,12.6388,0.0,13.5178,13.6186,13.8114,14.7519,14.969,15.0808,15.3677,15.4466,15.4664,15.4664,15.5124,15.5519,15.5847,15.5913,15.5913,15.5913,15.5913,15.5913,15.5913,15.5913,15.5913,15.5913,15.5913,15.5913,15.5913,15.6045,15.6793,15.824,15.8437,15.9818,16.2555,16.2555,16.3187,16.4476,16.4476,16.4476,16.4476,16.4476,16.4476,16.4476,16.4476,16.4476,16.4476,16.4476,16.4476,16.4476,16.4476,16.4476,16.4476,16.4476,16.4476,16.4476,16.4476,16.4476,16.4476,16.4476,16.4476,16.4476,16.4476,16.4476,16.4476,16.4476,16.4476,16.4476,16.4476,16.4476,16.4476,16.4476,16.4476,16.4476,16.4476,16.4476,16.4476,16.4476,16.4476,16.4476,16.4476,16.4476,16.4476,16.4476,16.4476,16.4476,16.4476,16.4278,16.3713,16.2423,16.216,16.1634,16.0491,16.0425,16.1042,16.2489,16.2555,16.3147,16.441,16.4476,16.4476,16.4476,16.4476,16.4476,16.4476,16.4476,16.4476,16.4476,16.4476,16.4476,11.9615,12.1061,12.2705,12.4744,0.0,0.0,13.3555,13.566,13.8377,14.5152,14.7848,14.9887,15.2847,15.4729,15.5913,15.5913,15.5913,15.5913,15.5913,15.5913,15.5913,15.5913,15.5913,15.5913,15.5913,15.5913,15.5913,15.5913,15.5913,15.5913,15.5913,15.5913,15.6595,15.7977,15.8042,15.9029,16.1042,16.1108,16.1806,16.3187,16.3187,16.3647,16.4476,16.4476,16.4476,16.4476,16.4476,16.4476,16.4476,16.4476,16.4476,16.4476,16.4476,16.4476,16.4476,16.4476,16.4476,16.4476,16.4476,16.4476,16.4476,16.4476,16.4476,16.4476,16.4476,16.4476,16.4476,16.4476,16.4476,16.4476,16.4476,16.4476,16.4476,16.4476,16.4476,16.4476,16.4476,16.4476,16.4476,16.4476,16.4476,16.4476,16.4476,16.4476,16.4476,16.4476,16.4476,16.4476,16.4476,16.3713,16.2661,16.124,16.1108,16.0516,15.907,15.9727,16.0425,16.1042,16.1108,16.17,16.3147,16.3187,16.3581,16.441,16.4476,16.4476,16.4476,16.4476,16.4476,16.4476,16.4476,16.4476,11.8234,0.0,0.0,0.0,0.0,0.0,13.4542,13.6975,13.9496,14.3836,14.6664,14.9163,15.1728,15.4203,15.5913,15.5913,15.5913,15.5913,15.5913,15.5913,15.5913,15.5913,15.5913,15.5913,15.5913,15.5913,15.5913,15.5913,15.5913,15.5913,15.5913,15.5913,15.6373,15.7385,15.745,15.8174,15.9596,15.9596,16.0319,16.17,16.17,16.2489,16.3844,16.3844,16.4107,16.4476,16.4476,16.4213,16.391,16.4278,16.4476,16.4476,16.4476,16.4476,16.4476,16.4476,16.4476,16.4476,16.4476,16.4476,16.4476,16.4476,16.4476,16.4476,16.4476,16.4476,16.4476,16.4476,16.4476,16.4476,16.4476,16.4476,16.4476,16.4476,16.4476,16.4476,16.4476,16.4476,16.4476,16.4476,16.4476,16.4344,16.391,16.4147,16.4278,16.391,16.3844,16.3844,16.3844,16.262,16.1305,16.0294,16.0162,15.9727,15.87,15.9596,16.0162,16.0162,16.0162,16.0622,16.17,16.17,16.2398,16.3844,16.3844,16.4041,16.4476,16.4041,16.4041,16.4476,16.4476,16.4476,0.0,0.0,0.0,13.0333,13.178,13.4081,14.2673,14.3616,14.3968,14.8351,15.0479,15.1926,15.339,15.4927,15.5913,15.5913,15.5913,15.5913,15.5913,15.5913,15.5913,15.5913,15.5913,15.5913,15.5913,15.5913,15.5913,15.5913,15.5913,15.5913,15.5913,15.5913,15.5913,15.5979,15.5979,15.6661,15.8108,15.8108,15.8807,16.0228,16.0228,16.0977,16.2357,16.2357,16.3121,16.4476,16.4476,16.3647,16.2489,16.3844,16.4476,16.4476,16.4476,16.4476,16.4476,16.4476,16.4476,16.4476,16.4476,16.4476,16.4476,16.4476,16.4476,16.4476,16.4476,16.4476,16.4476,16.4476,16.4476,16.4476,16.4476,16.4476,16.4476,16.4476,16.4476,16.4476,16.4476,16.4476,16.4476,16.4476,16.4476,16.4016,16.262,16.3515,16.3976,16.2555,16.2357,16.2357,16.2357,16.1108,16.0228,16.0162,16.0162,16.0162,16.0096,16.0162,16.0162,16.0162,16.0162,16.0162,16.0228,16.0228,16.0885,16.2357,16.2357,16.3081,16.4476,16.3081,16.3081,16.4476,16.4476,16.4476,11.922,12.2245,12.6256,13.2109,13.4981,13.7611,14.2498,14.4691,14.6138,14.7628,14.914,15.0652,15.2033,15.348,15.4771,15.5716,15.5913,15.5913,15.5913,15.5913,15.5913,15.5913,15.5913,15.5913,15.5913,15.5913,15.5913,15.5913,15.5913,15.5913,15.5913,15.5913,15.5913,15.5913,15.5913,15.611,15.6595,15.6595,15.7319,15.8766,15.8766,15.953,16.0911,16.0911,16.1148,16.1674,16.2595,16.2752,16.2357,16.2818,16.3581,16.4476,16.4476,16.4476,16.4476,16.4476,16.4476,16.4476,16.4476,16.4476,16.4476,16.4476,16.4476,16.4476,16.4476,16.4476,16.4476,16.4476,16.4476,16.4476,16.4476,16.4476,16.4476,16.4476,16.4476,16.4476,16.4476,16.4476,16.4476,16.4476,16.3647,16.2884,16.2357,16.1937,16.174,16.2226,16.2292,16.2292,16.2292,16.2726,16.2266,16.0359,16.1872,16.2266,16.0359,16.1042,16.1174,16.0228,15.9267,15.9201,16.0162,16.0162,16.0425,16.0885,16.1831,16.2094,16.1609,16.1148,16.1148,16.1609,16.1609,16.1609,12.1127,12.4152,12.7834,13.4279,13.7611,14.0241,14.3639,14.5786,14.7167,14.7167,14.8417,14.9929,15.1334,15.2362,15.3612,15.5584,15.5913,15.5913,15.5913,15.5913,15.5913,15.5913,15.5913,15.5913,15.5913,15.5913,15.5913,15.5913,15.5913,15.5913,15.5913,15.5913,15.5913,15.5913,15.5913,15.5913,15.5913,15.5913,15.6373,15.7253,15.7253,15.8017,15.9398,15.9398,15.9727,16.0162,16.0582,16.0805,16.0779,16.1371,16.2398,16.3713,16.3713,16.4041,16.4476,16.4476,16.4476,16.4476,16.4476,16.4476,16.4476,16.4476,16.4476,16.4476,16.4476,16.4476,16.4476,16.4476,16.4476,16.4476,16.4476,16.4476,16.4476,16.4476,16.4476,16.4476,16.4476,16.4476,16.4278,16.3778,16.2924,16.1963,16.0911,16.045,16.0294,16.0739,16.0805,16.0977,16.1503,16.1477,16.1083,16.0228,16.1346,16.1609,16.0294,16.1017,16.0911,15.953,15.9004,15.9004,15.9398,15.9398,15.9661,16.0162,16.0582,16.0582,16.0162,15.9661,15.9636,16.0162,16.0162,16.0162,12.2423,12.5796,12.9762,13.6953,13.9802,14.1907,14.6115,14.7102,14.7167,14.7167,14.8351,14.9798,15.1268,15.1531,15.2518,15.5321,15.5847,15.5913,15.5913,15.5913,15.5913,15.5913,15.5913,15.5913,15.5913,15.5913,15.5913,15.5913,15.5913,15.5913,15.5913,15.5913,15.5913,15.5913,15.5913,15.5913,15.5913,15.5913,15.5913,15.5913,15.5913,15.6595,15.7911,15.7911,15.8675,15.9899,15.8503,15.7977,15.8108,15.953,16.0911,16.216,16.216,16.3055,16.4344,16.4344,16.441,16.4476,16.4476,16.4476,16.4476,16.4476,16.4476,16.4476,16.4476,16.4476,16.4476,16.4476,16.4476,16.4476,16.4476,16.4476,16.4476,16.4476,16.4476,16.4476,16.4476,16.4476,16.4041,16.2555,16.216,16.1265,15.8503,15.907,15.953,15.824,15.8042,15.8568,15.9965,15.782,15.7163,15.9899,15.8938,15.87,16.0031,16.0162,15.9596,15.824,15.9333,15.9464,15.8108,15.8108,15.8766,16.0031,15.8766,15.87,16.0031,15.87,15.8766,16.0031,15.9965,15.9965,12.4546,12.9564,13.3818,13.8947,14.1249,14.2915,14.5063,14.6378,14.7167,14.7167,14.743,14.8219,14.9732,15.0939,15.2189,15.3982,15.519,15.5913,15.5913,15.5913,15.5913,15.5913,15.5913,15.5913,15.5913,15.5913,15.5913,15.5913,15.5913,15.5913,15.5913,15.5913,15.5913,15.5913,15.5913,15.5913,15.5913,15.5913,15.5913,15.5913,15.5913,15.611,15.6464,15.6464,15.6636,15.6965,15.6571,15.7056,15.8042,15.8437,15.9398,16.0714,16.0714,16.1634,16.2884,16.2884,16.3515,16.4476,16.4476,16.4476,16.4476,16.4476,16.4476,16.4476,16.4476,16.4476,16.4476,16.4476,16.4476,16.4476,16.4476,16.4476,16.4476,16.4476,16.4476,16.4476,16.4476,16.4476,16.4041,16.2555,16.0582,15.8897,15.8174,15.745,15.7228,15.7911,15.8042,15.8568,15.9965,15.9505,15.9373,16.0096,15.9859,15.9793,16.0162,16.0162,16.0031,15.9661,15.8938,15.8437,15.8067,15.907,15.9267,15.8568,15.824,15.824,15.8568,15.824,15.824,15.8568,15.7491,15.6965,12.4349,13.0004,13.5331,13.9671,14.1797,14.3244,14.4646,14.6115,14.7167,14.7167,14.7167,14.7628,14.9206,15.015,15.1376,15.339,15.4442,15.519,15.5782,15.5913,15.5913,15.5913,15.5913,15.5913,15.5913,15.5913,15.5913,15.5913,15.5913,15.5913,15.5913,15.5913,15.5913,15.5913,15.5913,15.5913,15.5913,15.5913,15.5913,15.5913,15.5913,15.5913,15.5913,15.5913,15.5913,15.5913,15.5913,15.6308,15.7122,15.7122,15.7952,15.9201,15.9201,16.0122,16.1371,16.1371,16.2292,16.3515,16.3515,16.391,16.4476,16.4476,16.4476,16.4476,16.4476,16.4476,16.4476,16.4476,16.4476,16.4476,16.4476,16.4476,16.4476,16.4476,16.4476,16.4476,16.4476,16.4476,16.4041,16.2555,16.0015,15.7845,15.7187,15.6439,15.6176,15.699,15.7122,15.7623,15.907,15.8675,15.8543,15.9135,15.8675,15.8256,15.8256,15.8256,15.8256,15.8256,15.8174,15.8042,15.8042,15.8832,15.8872,15.8042,15.8042,15.8042,15.8042,15.8042,15.7713,15.7122,15.6924,15.6505,12.4001,12.9326,13.5331,13.9408,14.1534,14.2915,14.412,14.5698,14.6838,14.6838,14.6838,14.7365,14.8877,14.9337,15.0324,15.2798,15.3522,15.4179,15.5453,15.5782,15.5913,15.5913,15.5913,15.5913,15.5913,15.5913,15.5913,15.5913,15.5913,15.5913,15.5913,15.5913,15.5913,15.5913,15.5913,15.5913,15.5913,15.5913,15.5913,15.5913,15.5913,15.5913,15.5913,15.5913,15.5913,15.5913,15.5913,15.5913,15.5913,15.5913,15.6636,15.7713,15.7713,15.8609,15.9899,15.9899,16.0779,16.2029,16.2029,16.3015,16.4147,16.4147,16.4278,16.4476,16.4476,16.4476,16.4476,16.4476,16.4476,16.4476,16.4476,16.4476,16.4476,16.4476,16.4476,16.4476,16.4476,16.4278,16.3713,16.2292,15.9884,15.7582,15.611,15.5913,15.5913,15.5913,15.5913,15.6439,15.7845,15.6793,15.6464,15.7845,15.6793,15.5913,15.5913,15.5913,15.5913,15.5913,15.7056,15.7713,15.7713,15.7911,15.7911,15.7779,15.7911,15.8042,15.8042,15.8042,15.7385,15.6176,15.7253,15.7056,12.8821,13.2372,13.5046,13.8202,14.0043,14.1183,14.1446,14.3462,14.5369,14.5369,14.5369,14.5829,14.7299,14.8614,14.9666,15.0126,15.2207,15.385,15.4113,15.519,15.5913,15.5913,15.5913,15.5913,15.5913,15.5913,15.5913,15.5913,15.5913,15.5913,15.5913,15.5913,15.5913,15.5913,15.5913,15.5913,15.5913,15.5913,15.5913,15.5913,15.5913,15.5913,15.5913,15.5913,15.5913,15.5913,15.5913,15.5913,15.5913,15.5913,15.6045,15.6242,15.6242,15.7097,15.8437,15.8437,15.9333,16.0557,16.0557,16.1503,16.2686,16.2686,16.345,16.4476,16.4476,16.4476,16.4476,16.4476,16.4476,16.4476,16.4476,16.4476,16.4476,16.4476,16.4476,16.4476,16.4476,16.3515,16.2292,16.082,15.9201,15.7582,15.611,15.5913,15.5913,15.5913,15.5913,15.6439,15.7845,15.6793,15.6464,15.7845,15.6793,15.5913,15.5913,15.5913,15.5913,15.5913,15.611,15.6242,15.6242,15.7385,15.745,15.6308,15.745,15.8042,15.8042,15.8042,15.7911,15.7648,15.6702,15.611,12.6565,13.0839,13.4673,13.6033,13.8553,14.0723,14.0723,14.2367,14.3682,14.2936,14.3988,14.5237,14.5895,14.7233,14.8548,14.9337,15.1244,15.2888,15.3653,15.4968,15.5913,15.5913,15.5913,15.5913,15.5913,15.5913,15.5913,15.5913,15.5913,15.5913,15.5913,15.5913,15.5913,15.5913,15.5913,15.5913,15.5913,15.5913,15.5913,15.5913,15.5913,15.5913,15.5913,15.5913,15.5913,15.5913,15.5913,15.5913,15.5913,15.5913,15.5913,15.5913,15.5913,15.6308,15.6924,15.6924,15.7845,15.907,15.907,15.999,16.124,16.124,16.1674,16.22,16.22,16.2726,16.3318,16.3318,16.3844,16.4476,16.4476,16.4476,16.4476,16.4476,16.4476,16.4213,16.3515,16.2818,16.1634,15.9464,15.8503,15.7582,15.611,15.5913,15.5913,15.5913,15.5913,15.611,15.6858,15.6308,15.6176,15.6858,15.6332,15.5913,15.5913,15.5913,15.5913,15.5913,15.5913,15.5913,15.5913,15.6595,15.6571,15.5913,15.6595,15.6924,15.6924,15.7648,15.7648,15.6924,15.7754,15.7754,12.5053,12.9939,13.487,13.5133,13.7567,13.9868,14.0197,14.1117,14.1732,14.092,14.2498,14.4251,14.4909,14.5895,14.7167,14.8745,15.0192,15.1663,15.3061,15.4532,15.5519,15.5847,15.5913,15.5913,15.5913,15.5913,15.5913,15.5913,15.5913,15.5913,15.5913,15.5913,15.5913,15.5913,15.5913,15.5913,15.5913,15.5913,15.5913,15.5913,15.5913,15.5913,15.5913,15.5913,15.5913,15.5913,15.5913,15.5913,15.5913,15.5913,15.5913,15.5913,15.5913,15.5913,15.5913,15.5913,15.6595,15.7582,15.7582,15.8478,15.9727,15.9727,15.9899,16.0162,16.0162,16.0951,16.1897,16.2226,16.3121,16.4041,16.4344,16.4476,16.4476,16.4476,16.4476,16.4041,16.262,16.2292,16.1437,15.8568,15.8042,15.7582,15.611,15.5913,15.5913,15.5913,15.5913,15.5913,15.5913,15.5913,15.5913,15.5913,15.5913,15.5913,15.5913,15.5913,15.5913,15.5913,15.5913,15.5913,15.5913,15.5913,15.5913,15.5913,15.5913,15.5913,15.5913,15.7056,15.699,15.5979,15.8543,15.907,13.0136,13.3708,13.6602,13.7874,13.7501,13.7194,13.8465,13.886,13.932,14.0526,14.092,14.1907,14.4514,14.5106,14.5698,14.7102,14.868,15.0192,15.1597,15.3086,15.4442,15.5716,15.5913,15.5913,15.5913,15.5913,15.5913,15.5913,15.5913,15.5913,15.5913,15.5913,15.5913,15.5913,15.5913,15.5913,15.5913,15.5913,15.5913,15.5913,15.5913,15.5913,15.5913,15.5913,15.5913,15.5913,15.5913,15.5913,15.5913,15.5913,15.5913,15.5913,15.5913,15.5913,15.5913,15.5913,15.5979,15.611,15.611,15.7056,15.824,15.824,15.907,16.0162,16.0162,16.0294,16.0622,16.1963,16.2423,16.2818,16.4107,16.4476,16.4476,16.4476,16.4476,16.4041,16.262,16.2292,16.1437,15.8568,15.8042,15.7582,15.611,15.5913,15.5913,15.5913,15.5913,15.5913,15.5913,15.5913,15.5913,15.5913,15.5913,15.5913,15.5913,15.5913,15.5913,15.5913,15.5913,15.5913,15.5913,15.5913,15.5913,15.5913,15.5913,15.5913,15.5913,15.6045,15.6045,15.5913,15.7516,15.8174,12.1362,12.6256,13.1143,13.0793,13.3621,13.6602,13.7172,13.7304,13.7698,13.9123,14.0789,14.2126,14.2367,14.3857,14.5172,14.5763,14.7891,14.9666,15.0258,15.1573,15.302,15.4442,15.4574,15.4927,15.5847,15.5913,15.5913,15.5913,15.5913,15.5913,15.5913,15.5913,15.5913,15.5913,15.5913,15.5913,15.5913,15.5913,15.5913,15.5913,15.5913,15.5913,15.5913,15.5913,15.5913,15.5913,15.5913,15.5913,15.5913,15.5913,15.5913,15.5913,15.5913,15.5913,15.5913,15.5913,15.5913,15.5913,15.5913,15.6242,15.6793,15.6793,15.7097,15.7623,15.7623,15.8781,16.0294,16.0845,16.2266,16.3713,16.4278,16.4476,16.4476,16.4476,16.4476,16.4041,16.262,16.1634,16.045,15.8437,15.7319,15.6571,15.5979,15.5913,15.5913,15.5913,15.5913,15.5913,15.5913,15.5913,15.5913,15.5913,15.5913,15.5913,15.5913,15.5913,15.5913,15.5913,15.5913,15.5913,15.5913,15.5913,15.5913,15.5913,15.5913,15.5913,15.5913,15.5913,15.5913,15.5913,15.7385,15.8042,11.6498,12.1638,12.7252,12.654,13.0583,13.4843,13.5636,13.5484,13.5812,13.8137,14.0197,14.1469,14.0854,14.2761,14.4514,14.4909,14.7167,14.8943,14.9403,15.0347,15.1639,15.3522,15.3785,15.4311,15.5782,15.5913,15.5913,15.5913,15.5913,15.5913,15.5913,15.5913,15.5913,15.5913,15.5913,15.5913,15.5913,15.5913,15.5913,15.5913,15.5913,15.5913,15.5913,15.5913,15.5913,15.5913,15.5913,15.5913,15.5913,15.5913,15.5913,15.5913,15.5913,15.5913,15.5913,15.5913,15.5913,15.5913,15.5913,15.5913,15.5913,15.5913,15.5913,15.5913,15.5913,15.7294,15.9044,15.9965,16.1609,16.3384,16.4213,16.4476,16.4476,16.4476,16.4476,16.4041,16.262,16.1503,16.0253,15.8371,15.7253,15.6373,15.5979,15.5913,15.5913,15.5913,15.5913,15.5913,15.5913,15.5913,15.5913,15.5913,15.5913,15.5913,15.5913,15.5913,15.5913,15.5913,15.5913,15.5913,15.5913,15.5913,15.5913,15.5913,15.5913,15.5913,15.5913,15.5913,15.5913,15.5913,15.7385,15.8042,11.957,12.3017,12.7023,12.8004,12.9359,13.1173,13.3771,13.3161,13.3292,13.7676,13.8575,13.9057,14.046,14.1929,14.3376,14.4777,14.6247,14.7693,14.9272,14.9469,15.0587,15.3456,15.3785,15.4311,15.5782,15.5913,15.5913,15.5913,15.5913,15.5913,15.5913,15.5913,15.5913,15.5913,15.5913,15.5913,15.5913,15.5913,15.5913,15.5913,15.5913,15.5913,15.5913,15.5913,15.5913,15.5913,15.5913,15.5913,15.5913,15.5913,15.5913,15.5913,15.5913,15.5913,15.5913,15.5913,15.5913,15.5913,15.5913,15.5913,15.5913,15.5913,15.5913,15.5913,15.5913,15.5913,15.6505,15.9373,16.0162,16.0885,16.3687,16.4476,16.4476,16.4476,16.4476,16.4041,16.262,16.2292,16.1437,15.8568,15.8042,15.7582,15.611,15.5913,15.5913,15.5913,15.5913,15.5913,15.5913,15.5913,15.5913,15.5913,15.5913,15.5913,15.5913,15.5913,15.5913,15.5913,15.5913,15.5913,15.5913,15.5913,15.5913,15.5913,15.5913,15.5913,15.5913,15.5913,15.5913,15.5913,15.7385,15.8042,11.535,11.9908,12.4926,12.5321,12.7687,13.0806,13.3642,13.4673,13.5988,13.9408,13.9254,13.8728,13.9189,14.046,14.1841,14.331,14.4734,14.6158,14.7693,14.7891,14.8614,15.0587,15.085,15.177,15.4179,15.4442,15.4861,15.5847,15.5913,15.5913,15.5913,15.5913,15.5913,15.5913,15.5913,15.5913,15.5913,15.5913,15.5913,15.5913,15.5913,15.5913,15.5913,15.5913,15.5913,15.5913,15.5913,15.5913,15.5913,15.5913,15.5913,15.5913,15.5913,15.5913,15.5913,15.5913,15.5913,15.5913,15.5913,15.5913,15.5913,15.5913,15.5913,15.5913,15.5913,15.6595,15.7582,15.8437,16.0122,16.1634,16.1543,16.2266,16.3015,16.3015,16.3713,16.4041,16.262,16.1503,16.0319,15.8437,15.7253,15.6439,15.5979,15.5913,15.5913,15.5913,15.5913,15.5913,15.5913,15.5913,15.5913,15.5913,15.5913,15.5913,15.5913,15.5913,15.5913,15.5913,15.5913,15.5913,15.5913,15.5913,15.5913,15.5913,15.5913,15.5913,15.5913,15.5913,15.5913,15.5913,15.6373,15.6595,11.5222,11.9074,12.3196,12.5161,12.772,13.0641,13.3621,13.3708,13.4102,13.7632,13.7172,13.6427,13.7567,13.9868,14.1863,14.2718,14.4537,14.5984,14.6312,14.6773,14.7693,14.9272,14.9469,15.0389,15.2757,15.3456,15.4113,15.5058,15.5584,15.5913,15.5913,15.5913,15.5913,15.5913,15.5913,15.5913,15.5913,15.5913,15.5913,15.5913,15.5913,15.5913,15.5913,15.5913,15.5913,15.5913,15.5913,15.5913,15.5913,15.5913,15.5913,15.5913,15.5913,15.5913,15.5913,15.5913,15.5913,15.5913,15.5913,15.5913,15.5913,15.5913,15.5913,15.5913,15.5913,15.653,15.7319,15.7845,15.9292,16.0476,15.9596,16.045,16.1503,16.1503,16.22,16.2595,16.1674,16.0385,15.907,15.824,15.6834,15.5913,15.5913,15.5913,15.5913,15.5913,15.5913,15.5913,15.5913,15.5913,15.5913,15.5913,15.5913,15.5913,15.5913,15.5913,15.5913,15.5913,15.5913,15.5913,15.5913,15.5913,15.5913,15.5913,15.5913,15.5913,15.5913,15.5913,15.5913,15.5913,15.5913,15.5913,11.822,12.0246,12.2291,12.6997,12.9078,13.0682,13.3621,13.09,12.8947,13.3292,13.2984,13.294,13.59,13.9693,14.2455,14.2652,14.5152,14.651,14.5172,14.6224,14.7693,14.914,14.9337,14.9863,15.1334,15.2691,15.3522,15.3719,15.4968,15.5782,15.5913,15.5913,15.5913,15.5913,15.5913,15.5913,15.5913,15.5913,15.5913,15.5913,15.5913,15.5913,15.5913,15.5913,15.5913,15.5913,15.5913,15.5913,15.5913,15.5913,15.5913,15.5913,15.5913,15.5913,15.5913,15.5913,15.5913,15.5913,15.5913,15.5913,15.5913,15.5913,15.5913,15.5913,15.5913,15.5913,15.6176,15.7516,15.7845,15.7845,15.7845,15.8938,16.0031,16.0031,16.0096,16.0162,16.0031,15.8938,15.7977,15.7911,15.6793,15.5913,15.5913,15.5913,15.5913,15.5913,15.5913,15.5913,15.5913,15.5913,15.5913,15.5913,15.5913,15.5913,15.5913,15.5913,15.5913,15.5913,15.5913,15.5913,15.5913,15.5913,15.5913,15.5913,15.5913,15.5913,15.5913,15.5913,15.5913,15.5913,15.5913,15.5913,11.7933,12.1742,12.5621,12.6824,12.8811,13.1137,13.3771,13.1106,12.8986,13.1908,13.2469,13.3252,13.5942,13.7259,13.8641,14.0854,14.3682,14.5369,14.504,14.6224,14.7299,14.7628,14.7693,14.8285,14.9798,15.0258,15.1352,15.3587,15.4048,15.4729,15.5847,15.5913,15.5913,15.5913,15.5913,15.5913,15.5913,15.5913,15.5913,15.5913,15.5913,15.5913,15.5913,15.5913,15.5913,15.5913,15.5913,15.5913,15.5913,15.5913,15.5913,15.5913,15.5913,15.5913,15.5913,15.5913,15.5913,15.5913,15.5913,15.5913,15.5913,15.5913,15.5913,15.5913,15.5913,15.5913,15.5979,15.6332,15.6373,15.6373,15.6373,15.745,15.8568,15.8568,15.9398,15.9924,15.8766,15.824,15.7713,15.6595,15.611,15.5913,15.5913,15.5913,15.5913,15.5913,15.5913,15.5913,15.5913,15.5913,15.5913,15.5913,15.5913,15.5913,15.5913,15.5913,15.5913,15.5913,15.5913,15.5913,15.5913,15.5913,15.5913,15.5913,15.5913,15.5913,15.5913,15.5913,15.5913,15.5913,15.5913,15.5913,11.9864,12.3669,12.6732,12.5772,12.7554,12.9873,13.1028,12.8889,12.7409,13.037,13.0386,13.1025,13.48,13.6181,13.7628,14.0307,14.2564,14.4011,14.4011,14.526,14.6181,14.6181,14.6773,14.7496,14.8351,14.9074,15.0126,15.1681,15.2996,15.4113,15.4861,15.5519,15.5913,15.5913,15.5913,15.5913,15.5913,15.5913,15.5913,15.5913,15.5913,15.5913,15.5913,15.5913,15.5913,15.5913,15.5913,15.5913,15.5913,15.5913,15.5913,15.5913,15.5913,15.5913,15.5913,15.5913,15.5913,15.5913,15.5913,15.5913,15.5913,15.5913,15.5913,15.5913,15.5913,15.5913,15.5913,15.5913,15.5913,15.5913,15.5913,15.6464,15.7056,15.7056,15.7623,15.8017,15.7253,15.7056,15.6858,15.6045,15.5913,15.5913,15.5913,15.5913,15.5913,15.5913,15.5913,15.5913,15.5913,15.5913,15.5913,15.5913,15.5913,15.5913,15.5913,15.5913,15.5913,15.5913,15.5913,15.5913,15.5913,15.5913,15.5913,15.5913,15.5913,15.5913,15.5913,15.5913,15.5913,15.5913,15.5913,15.5913,12.2195,12.5269,12.6921,12.4851,12.6106,12.7766,12.7448,12.5822,12.5241,12.8522,12.8335,12.8954,13.346,13.5823,13.7819,14.0329,14.16,14.2324,14.2521,14.3945,14.504,14.504,14.6289,14.7167,14.7167,14.8351,14.9206,14.9469,15.177,15.3324,15.3719,15.4927,15.565,15.5913,15.5913,15.5782,15.5584,15.5782,15.5913,15.5913,15.5913,15.5913,15.5913,15.5913,15.5913,15.5913,15.5913,15.5913,15.5913,15.5913,15.5913,15.5913,15.5913,15.5913,15.5913,15.5913,15.5913,15.5913,15.5913,15.5913,15.5913,15.5913,15.5913,15.5913,15.5913,15.5913,15.5913,15.5913,15.5913,15.5913,15.5913,15.5913,15.5913,15.5913,15.5913,15.5913,15.5913,15.5913,15.5913,15.5913,15.5913,15.5913,15.5913,15.5913,15.5913,15.5913,15.5913,15.5913,15.5913,15.5913,15.5913,15.5913,15.5913,15.5913,15.5913,15.5913,15.5913,15.5913,15.5913,15.5913,15.5913,15.5913,15.5913,15.5913,15.5913,15.5913,15.5913,15.5913,15.5913,15.5913,15.5913,15.5913,12.1891,12.4993,12.7631,12.6206,12.5706,12.5687,12.5855,12.4549,12.3862,12.5835,12.8809,13.1719,13.3918,13.5823,13.7819,14.0329,13.9912,13.9649,14.0854,14.3331,14.504,14.504,14.6289,14.7167,14.7167,14.7365,14.8088,14.9403,14.9863,15.1179,15.3653,15.3982,15.4639,15.5847,15.5913,15.5321,15.4113,15.5321,15.5913,15.5913,15.5913,15.5913,15.5913,15.5913,15.5913,15.5913,15.5913,15.5913,15.5913,15.5913,15.5913,15.5913,15.5913,15.5913,15.5913,15.5913,15.5913,15.5913,15.5913,15.5913,15.5913,15.5913,15.5913,15.5913,15.5913,15.5913,15.5913,15.5913,15.5913,15.5913,15.5913,15.5913,15.5913,15.5913,15.5913,15.5913,15.5913,15.5913,15.5913,15.5913,15.5913,15.5913,15.5913,15.5913,15.5913,15.5913,15.5913,15.5913,15.5913,15.5913,15.5913,15.5913,15.5913,15.5913,15.5913,15.5913,15.5913,15.5913,15.5913,15.5913,15.5913,15.5913,15.5913,15.5913,15.5913,15.5913,15.5913,15.5913,15.5913,15.5913,15.5913,15.5913,12.2263,12.3439,12.4623,12.4266,12.3942,12.3883,12.461,12.4643,12.4985,12.6697,12.9134,13.1752,13.4206,13.55,13.6972,13.9254,14.0328,14.0854,14.0723,14.2564,14.3814,14.3814,14.5786,14.7167,14.7167,14.7891,14.8351,14.8219,14.9009,15.0061,15.1352,15.293,15.3719,15.357,15.5058,15.4795,15.2625,15.4006,15.4705,15.4771,15.5519,15.5913,15.5913,15.5913,15.5913,15.5913,15.5913,15.5453,15.4705,15.4705,15.4705,15.4705,15.4705,15.5256,15.5913,15.5913,15.5913,15.5913,15.5913,15.5913,15.5913,15.5913,15.5913,15.5913,15.5913,15.5913,15.5913,15.5913,15.5913,15.5913,15.5913,15.5913,15.5913,15.5913,15.5913,15.5913,15.5913,15.5913,15.5913,15.5913,15.5913,15.5913,15.5913,15.5913,15.5913,15.5913,15.5913,15.5913,15.5913,15.5913,15.5913,15.5913,15.5913,15.5913,15.5913,15.5913,15.5913,15.5913,15.5913,15.5913,15.5913,15.5913,15.5913,15.5913,15.5913,15.5913,15.5913,15.5913,15.5913,15.5913,15.5913,15.5913,12.2775,0.0,12.2779,12.3336,12.3533,12.3827,0.0,12.5799,12.7134,12.8232,13.0016,13.2063,13.4574,13.5692,13.6753,13.844,14.0571,14.1602,14.0394,14.1446,14.2587,14.331,14.5589,14.7299,14.7628,14.8417,14.8614,14.7759,14.8482,14.9074,14.9469,15.1573,15.2428,15.1663,15.4401,15.4688,15.2123,15.3546,15.4245,15.4245,15.5387,15.5913,15.5913,15.5913,15.5913,15.5913,15.5913,15.5058,15.3785,15.3785,15.3587,15.3259,15.3259,15.4138,15.5387,15.5387,15.5584,15.5913,15.5913,15.5913,15.5913,15.5913,15.5913,15.5913,15.5913,15.5913,15.5913,15.5913,15.5913,15.5913,15.5913,15.5913,15.5913,15.5913,15.5913,15.5913,15.5913,15.5913,15.5913,15.5913,15.5913,15.5913,15.5913,15.5913,15.5913,15.5913,15.5913,15.5913,15.5913,15.5913,15.5913,15.5913,15.5913,15.5913,15.5913,15.5913,15.5913,15.5913,15.5913,15.5913,15.5913,15.5913,15.5913,15.5913,15.5913,15.5913,15.5913,15.5913,15.5913,15.5913,15.5913,15.5913,0.0,12.3959,12.518,12.6219,12.6694,12.6969,12.6741,12.8378,0.0,12.9173,13.1916,13.4636,13.5294,13.6941,13.8426,13.9022,13.9335,13.9316,13.8772,13.9978,14.1907,14.4514,14.6247,14.7693,14.9206,14.8088,14.7891,14.9206,14.8088,14.7956,14.9403,14.9666,15.0324,15.1597,15.4401,15.519,15.3587,15.5058,15.5716,15.5716,15.5847,15.5913,15.5913,15.5913,15.5913,15.5913,15.5913,15.5058,15.3785,15.3785,15.2954,15.1794,15.1794,15.2625,15.3916,15.3916,15.4771,15.5913,15.5913,15.5913,15.5913,15.5913,15.5913,15.5913,15.5913,15.5913,15.5913,15.5913,15.5913,15.5913,15.5913,15.5913,15.5913,15.5913,15.5913,15.5913,15.5913,15.5913,15.5913,15.5913,15.5913,15.5913,15.5913,15.5913,15.5913,15.5913,15.5913,15.5913,15.5913,15.5913,15.5913,15.5913,15.5913,15.5913,15.5913,15.5913,15.5913,15.5913,15.5913,15.5913,15.5913,15.5913,15.5913,15.5913,15.5913,15.5913,15.5913,15.5913,15.5913,15.5913,15.5913,15.5913,12.2831,12.3933,12.4964,12.5638,12.6655,12.7416,12.7302,12.8816,13.0047,12.956,13.149,13.3844,13.5634,13.6297,13.7139,13.889,13.9951,14.0372,13.9978,14.1449,14.2504,14.2389,14.3616,14.5415,14.7759,14.7496,14.7759,14.9337,14.8022,14.743,14.8022,14.9798,15.0676,15.0258,15.131,15.1639,15.1113,15.2494,15.3241,15.3241,15.4138,15.5058,15.5913,15.5913,15.5913,15.5913,15.5913,15.5058,0.0,15.2757,15.2123,15.1597,15.1597,15.2494,15.385,15.4795,15.5453,15.5913,15.5913,15.5913,15.5913,15.5913,15.5913,15.5913,15.5913,15.5913,15.5913,15.5913,15.5913,15.5913,15.5913,15.5913,15.5913,15.5913,15.5913,15.5913,15.5913,15.5913,15.5913,15.5913,15.5913,15.5913,15.5913,15.5913,15.5913,15.5913,15.5913,15.5913,15.5913,15.5913,15.5913,15.5913,15.5913,15.5913,15.5913,15.5913,15.5913,15.5913,15.5913,15.5913,15.5913,15.5913,15.5913,15.5913,15.5913,15.5913,15.5913,15.5913,15.5913,15.5913,15.5913,15.5913,12.2734,12.3822,12.4947,12.6274,12.7293,12.8207,12.8874,13.0009,13.0879,13.0592,13.1482,13.3205,13.5969,13.6135,13.6721,13.9207,14.0447,14.0895,14.0307,14.222,14.2924,14.0987,14.2433,14.434,14.6247,14.7299,14.8482,15.0061,14.8745,14.7693,14.7167,14.9098,15.0018,14.9469,14.9929,15.0126,15.0126,15.1137,15.1597,15.1663,15.3086,15.4245,15.5256,15.565,15.5913,15.5847,15.5387,15.4401,15.2954,15.1531,15.0676,15.0282,15.0742,15.1573,15.2535,15.4006,15.4795,15.5256,15.5256,15.5519,15.5913,15.5913,15.5913,15.5913,15.5913,15.5913,15.5913,15.5913,15.5913,15.5913,15.5913,15.5913,15.5913,15.5913,15.5913,15.5913,15.5913,15.5913,15.5913,15.5913,15.5913,15.5913,15.5913,15.5913,15.5913,15.5913,15.5913,15.5913,15.5913,15.5913,15.5913,15.5913,15.5913,15.5913,15.5913,15.5913,15.5913,15.5913,15.5913,15.5913,15.5913,15.5913,15.5913,15.5913,15.5913,15.5913,15.5913,15.5913,15.5913,15.5913,15.5913,15.5913,12.274,12.3785,12.5393,12.8759,12.9347,12.9603,13.1836,13.2363,13.2363,13.2344,13.2344,13.3282,13.6319,13.6855,13.7634,14.0107,14.0558,14.0177,13.9308,14.1757,14.2924,14.0987,14.3265,14.4974,14.4974,14.7693,15.0061,15.1531,15.0258,14.8811,14.7233,14.7167,14.7891,14.9469,15.0873,15.1597,15.1597,15.1597,15.1597,15.1597,15.302,15.3719,15.3785,15.519,15.5847,15.5782,15.4376,15.2954,15.1531,15.0061,14.8614,14.7365,14.8877,14.9469,14.9666,15.1071,15.2494,15.3719,15.3785,15.4705,15.5847,15.5913,15.5913,15.5913,15.5847,15.5847,15.5913,15.5913,15.5913,15.5913,15.5913,15.5913,15.5913,15.5913,15.5913,15.5913,15.5913,15.5913,15.5913,15.5913,15.5913,15.5913,15.5913,15.5913,15.5913,15.5913,15.5913,15.5913,15.5913,15.5913,15.5913,15.5913,15.5913,15.5913,15.5913,15.5913,15.5913,15.5913,15.5913,15.5913,15.5847,15.5913,15.5913,15.5847,15.5913,15.5913,15.5913,15.5913,15.5913,15.5913,15.5913,15.5913,12.274,12.4227,12.557,12.6357,12.7452,12.8843,13.0495,13.0888,13.1156,13.2142,13.2344,13.3282,13.6319,13.6597,13.7318,14.0112,14.0307,13.9928,13.9265,14.1757,14.2924,14.0987,14.2367,14.309,14.2104,14.458,14.7825,15.1334,15.0258,14.9272,14.8811,14.8811,14.9469,15.0939,15.0413,15.0126,15.0126,15.0126,15.0126,15.0126,15.0587,15.1244,15.2231,15.2715,15.2912,15.2847,15.2452,15.1992,15.1531,15.0061,14.9798,15.0216,14.9666,15.0061,15.1071,15.1465,15.1926,15.2362,15.339,15.4048,15.4574,15.5584,15.5913,15.5716,15.4705,15.5124,15.5913,15.5913,15.5913,15.5913,15.5913,15.5913,15.5913,15.5913,15.5913,15.5913,15.5913,15.5913,15.5913,15.5913,15.5913,15.5913,15.5913,15.5913,15.5913,15.5913,15.5913,15.5913,15.5913,15.5913,15.5913,15.5913,15.5913,15.5913,15.5913,15.5913,15.5913,15.5913,15.5913,15.5453,15.4442,15.5387,15.5453,15.4376,15.5387,15.5913,15.5913,15.5913,15.5913,15.5913,15.5913,15.5913,12.3072,12.3924,12.4781,12.5291,12.6149,12.7532,12.971,13.0217,13.0619,13.2075,13.2344,13.3282,13.6319,13.6636,13.7459,14.0401,14.0474,14.0034,13.9522,14.1337,14.2242,14.0921,14.1995,14.2521,14.1666,14.3682,14.6378,14.9624,15.015,15.0061,14.9535,14.9469,14.9863,15.0742,14.9929,14.9469,14.9469,14.8877,14.8548,14.8548,14.9206,14.9929,15.0808,15.14,15.1597,15.1597,15.1005,15.0742,15.0676,14.914,14.9074,14.9821,14.96,14.9624,14.9887,15.0545,15.0742,15.0939,15.177,15.2428,15.3086,15.3899,15.4598,15.4902,15.3982,15.4795,15.5913,15.5913,15.5913,15.5913,15.5913,15.5913,15.5913,15.5913,15.5913,15.5913,15.5913,15.5913,15.5913,15.5913,15.5913,15.5913,15.5913,15.5913,15.5913,15.5913,15.5913,15.5913,15.5913,15.5913,15.5913,15.5913,15.5913,15.5913,15.5913,15.5913,15.5913,15.5913,15.5913,15.5256,15.385,15.4598,15.4401,15.2954,15.3743,15.4228,15.4228,15.4228,15.4466,15.5058,15.5058,15.5058,12.3579,12.3376,12.3511,12.5146,12.5432,12.6049,12.9337,13.015,13.0619,13.2075,13.2344,13.3282,13.6319,13.6855,13.7814,14.0832,14.089,14.0412,13.9991,14.0761,14.1208,14.0767,14.1863,14.2718,14.285,14.4077,14.5369,14.6838,14.9755,15.0873,14.9535,14.9469,14.9535,14.9666,14.9535,14.9535,14.9666,14.8154,14.7365,14.7365,14.868,14.9295,14.9408,15.061,15.1226,15.1208,14.9821,14.9272,14.914,14.7759,14.7233,14.7496,14.8745,14.8482,14.7496,14.8811,14.9272,14.9272,14.9403,15.0324,15.1465,15.1597,15.2428,15.339,15.339,15.4466,15.5716,15.5716,15.5782,15.5913,15.5913,15.5913,15.5913,15.5913,15.5913,15.5913,15.5913,15.5913,15.5913,15.5913,15.5913,15.5913,15.5913,15.5913,15.5913,15.5913,15.5913,15.5913,15.5913,15.5913,15.5921,15.6117,15.597,15.5921,15.5985,15.588,15.5847,15.5716,15.5716,15.5058,15.3587,15.3653,15.3086,15.1663,15.186,15.1992,15.1992,15.1992,15.2625,15.3785,15.3785,15.3653,12.3311,12.3574,12.3587,12.4012,12.4847,12.6151,12.812,12.9412,13.0619,13.2075,13.2344,13.3282,13.6319,13.6855,13.7814,14.0832,14.089,14.0412,13.9991,14.0761,14.1208,14.0767,14.0986,14.1666,14.2784,14.3113,14.3945,14.5369,14.8219,14.9798,14.9469,14.9469,15.0018,15.1137,15.0061,14.9995,15.1137,14.9732,14.9009,14.9009,14.8088,14.7902,14.8225,14.8119,14.8363,14.8687,14.7988,14.7628,14.7628,14.7299,14.7891,14.8877,14.8022,14.8219,14.8877,14.7956,14.7628,14.7825,14.9074,14.9666,15.0126,15.1268,15.1071,15.0389,15.0389,15.2207,15.4245,15.4245,15.5034,15.5913,15.5913,15.5913,15.5913,15.5913,15.5913,15.5913,15.5913,15.5913,15.5913,15.5913,15.5913,15.5913,15.5913,15.5913,15.5913,15.5913,15.5913,15.5913,15.5913,15.5913,15.6415,15.7879,15.6753,15.5977,15.6301,15.6044,15.5387,15.4311,15.4245,15.3546,15.2123,15.3151,15.3086,15.1663,15.3833,15.4993,15.4993,15.4993,15.4532,15.3785,15.3785,15.3151,12.2372,12.3109,12.3646,12.3646,12.4701,12.6176,12.7736,12.9211,13.0619,13.2075,13.2344,13.3282,13.6319,13.6271,13.7009,14.0698,14.0288,13.9695,14.0198,14.0249,14.0437,14.0922,14.0856,14.1052,14.1797,14.2455,14.3179,14.3945,14.6049,14.7341,14.7341,14.8022,14.9074,15.0545,15.0521,15.0521,15.061,15.0521,15.0126,14.9469,14.9337,14.9083,14.8657,14.8568,14.8311,14.7924,14.788,14.788,14.788,14.788,14.8409,14.9047,14.8211,14.8409,14.9004,14.8211,14.772,14.7645,14.8436,14.8537,14.8745,15.0939,15.1137,15.0545,15.0545,15.1507,15.2757,15.2757,15.3283,15.4006,15.4664,15.4861,15.5058,15.5716,15.5913,15.5913,15.5913,15.5913,15.5913,15.5913,15.5913,15.5913,15.5913,15.5913,15.5913,15.5913,15.5913,15.5913,15.5913,15.5913,15.6263,15.7214,15.5821,15.4944,15.5155,15.5005,15.4574,15.3785,15.4376,15.4138,15.2691,15.339,15.3086,15.1663,15.311,15.3809,15.3809,15.3809,15.3809,15.3785,15.3785,15.3324,12.1433,12.2506,12.3646,12.3646,12.4701,12.6108,12.7401,12.8809,13.0284,13.1692,13.2008,13.2899,13.5917,13.5534,13.6137,14.0564,13.9948,13.9393,14.0779,14.0281,14.0079,14.0876,14.0681,14.0548,14.0723,14.1797,14.2587,14.285,14.3945,14.4777,14.4974,14.6158,14.7542,14.9126,15.0503,15.0831,14.9981,15.086,15.086,14.9981,15.0926,15.086,14.9939,15.0201,14.9773,14.8811,14.9153,14.9357,14.9425,14.9425,14.9514,14.9514,14.9425,14.9425,14.9447,14.9159,14.8776,14.8277,14.8277,14.7955,14.8045,15.0837,15.174,15.1716,15.1621,15.1794,15.1992,15.1992,15.2189,15.2649,15.3809,15.4113,15.4442,15.565,15.5913,15.5913,15.5913,15.5913,15.5913,15.5913,15.5913,15.5913,15.5913,15.5913,15.5913,15.5913,15.5913,15.5913,15.5913,15.565,15.5787,15.6356,15.5125,15.4403,15.4691,15.4986,15.4829,15.4273,15.5329,15.5357,15.3809,15.3785,15.3193,15.1992,15.2255,15.2386,15.2386,15.2386,15.2823,15.3785,15.3785,15.3653,12.1098,12.2506,12.3646,12.3646,12.4701,12.584,12.6041,12.7267,12.8828,13.0217,13.0552,13.1424,13.4461,13.4863,13.6137,14.0564,14.1106,14.1323,14.2398,14.2429,14.1669,13.9684,13.9401,13.9734,14.0636,14.092,14.1534,14.2784,14.3047,14.3705,14.4974,14.5172,14.6144,14.8096,14.9219,15.0405,15.1841,15.0761,15.0761,15.1841,15.0784,15.0827,15.1817,15.1529,15.1704,15.2321,15.2016,15.2109,15.2436,15.2526,15.2592,15.2592,15.2436,15.2436,15.2393,15.1041,15.0234,14.9797,14.9797,14.9561,14.9539,15.1591,15.2284,15.219,15.174,15.2494,15.3456,15.3456,15.4401,15.5387,15.5584,15.5584,15.565,15.5847,15.5913,15.5913,15.5913,15.5913,15.5913,15.5913,15.5913,15.5913,15.5913,15.5913,15.5913,15.5913,15.5913,15.5913,15.5913,15.4771,15.519,15.8283,15.7132,15.6837,15.8644,15.973,15.9149,15.634,15.6292,15.5573,15.3857,15.3785,15.3653,15.3456,15.4664,15.5321,15.5321,15.5321,15.4795,15.3785,15.3785,15.3086,11.8818,12.0695,12.2439,12.2439,12.4097,12.5773,12.5773,12.6998,12.8291,12.8876,13.0284,13.1826,13.3167,13.4125,13.5601,13.835,13.8149,13.8337,14.0411,14.0478,14.0233,13.9967,13.9479,13.9379,13.9823,14.0351,14.0986,14.1666,14.1888,14.2876,14.4909,14.5248,14.6109,14.7425,14.8472,14.9552,15.0654,15.0852,15.0927,15.1009,15.1208,15.1347,15.1427,15.1539,15.1815,15.2183,15.2362,15.2964,15.3836,15.3903,15.3926,15.3926,15.3903,15.3903,15.3836,15.3168,15.2607,15.2129,15.2129,15.1874,15.1744,15.3411,15.3372,15.2663,15.2452,15.2039,15.1845,15.2726,15.326,15.3702,15.4466,15.4705,15.4927,15.5716,15.5913,15.5913,15.5913,15.5913,15.5913,15.5913,15.5913,15.5913,15.5913,15.5913,15.5913,15.5913,15.5913,15.5913,15.5913,15.6272,15.7108,15.859,15.8335,15.8346,15.9322,15.9819,15.9513,15.808,15.876,15.8367,15.6591,15.6497,15.6042,15.4993,15.5584,15.5519,15.4705,15.5519,15.519,15.3785,15.4574,15.4598,11.6521,11.8331,12.0427,12.083,12.2488,12.4164,12.4566,12.559,12.6614,12.7352,12.9211,13.082,13.1204,13.2497,13.4193,13.6003,13.5735,13.6118,13.8666,13.8765,13.89,13.9911,13.9393,13.9039,13.9135,13.9976,14.0549,14.0549,14.0966,14.2087,14.4152,14.5078,14.607,14.7126,14.8066,14.8749,14.9274,15.0446,15.0811,15.0496,15.1579,15.1828,15.1417,15.1826,15.2075,15.2189,15.2592,15.3395,15.4512,15.4512,15.4512,15.4512,15.4512,15.4512,15.4512,15.411,15.364,15.3257,15.3771,15.37,15.349,15.4459,15.4303,15.3704,15.3589,15.2663,15.2001,15.3148,15.3122,15.2978,15.4006,15.4311,15.4574,15.565,15.5913,15.5913,15.5913,15.5913,15.5913,15.5913,15.5913,15.5913,15.5913,15.5913,15.5913,15.5913,15.5913,15.5913,15.5913,15.6781,15.772,15.8613,15.9017,15.9551,16.053,16.0956,16.0978,16.0433,16.0976,16.0489,15.8693,15.8182,15.7086,15.5412,15.5387,15.4664,15.3217,15.4269,15.4269,15.3193,15.4269,15.4795,11.5231,11.5985,11.7611,11.8935,11.9404,11.9873,12.1366,12.1768,12.2573,12.5304,12.5974,12.6578,12.8004,12.9479,13.1424,13.4327,13.5869,13.7258,13.88,13.8981,13.8866,13.8551,13.8449,13.8651,13.9133,13.9697,13.9997,13.9997,14.046,14.1208,14.2211,14.4045,14.5698,14.7119,14.7651,14.8174,14.8759,14.9208,15.0097,15.1564,15.1631,15.2071,15.2898,15.2921,15.3175,15.3633,15.3678,15.4018,15.4512,15.4512,15.4512,15.4512,15.4512,15.4512,15.4378,15.2971,15.2168,15.1967,15.3864,15.4468,15.4355,15.3947,15.4654,15.5652,15.5163,15.5621,15.6362,15.6428,15.6065,15.5716,15.5782,15.5782,15.5782,15.5847,15.5913,15.5913,15.5913,15.5913,15.5913,15.5913,15.5913,15.5913,15.5913,15.5913,15.5913,15.5913,15.5913,15.5913,15.5913,15.4803,15.5273,15.8643,15.9156,16.0632,16.4055,16.5718,16.5765,16.3943,16.2267,16.0489,15.8693,15.6927,15.5353,15.3916,15.385,15.3151,15.1728,15.1794,15.1794,15.1728,15.1794,15.186,11.456,11.5097,11.5918,11.7393,11.8466,11.9337,11.9873,12.0025,12.0561,12.2573,12.4499,12.5907,12.6529,12.9327,13.1692,13.1826,13.3033,13.4508,13.607,13.6271,13.6528,13.7306,13.8006,13.85,13.8655,13.9049,13.949,13.9904,14.035,14.1081,14.2075,14.3072,14.4134,14.526,14.6701,14.7344,14.7211,14.8319,14.9207,14.9739,14.9986,15.0453,15.1099,15.1099,15.1722,15.286,15.286,15.3485,15.4512,15.4512,15.4512,15.4512,15.4512,15.4512,15.4445,15.3976,15.3686,15.344,15.3261,15.3172,15.315,15.2971,15.3239,15.3618,15.3438,15.4029,15.4791,15.4791,15.5081,15.5094,15.3859,15.3523,15.3691,15.4342,15.4508,15.4771,15.5716,15.5913,15.5913,15.5913,15.5913,15.5913,15.5913,15.5913,15.5913,15.5913,15.5913,15.5913,15.5913,15.7482,15.9082,16.0345,16.2709,16.4724,16.5987,16.6642,16.6262,16.4561,16.3834,16.2189,15.9377,15.8621,15.6938,15.4045,15.3999,15.2756,15.0258,15.1202,15.1137,15.0258,15.1202,15.1597,11.3955,11.3957,11.4359,11.5851,11.6907,11.7795,11.8331,11.8466,11.8868,12.0343,12.264,12.4298,12.4298,12.7516,12.9997,12.9614,13.0753,13.2162,13.3723,13.3905,13.4441,13.5936,13.671,13.7472,13.831,13.8643,13.9044,13.9612,14.0103,14.077,14.179,14.2323,14.3035,14.3946,14.5585,14.6253,14.5903,14.7077,14.761,14.7477,14.7873,14.8511,14.9329,14.9865,15.0603,15.163,15.163,15.2166,15.3038,15.3038,15.3038,15.3038,15.3038,15.3038,15.3038,15.3038,15.2703,15.2233,15.1764,15.163,15.163,15.163,15.1965,15.2367,15.2367,15.2703,15.3033,15.3033,15.3334,15.3403,15.2106,15.2102,15.2557,15.3116,15.326,15.3476,15.4318,15.4491,15.4598,15.5058,15.519,15.5321,15.5847,15.5913,15.5913,15.5913,15.5913,15.5913,15.5913,15.8532,16.062,16.1249,16.4102,16.6048,16.6183,16.6238,16.5516,16.3985,16.3264,16.1979,15.9806,15.848,15.6464,15.3662,15.2591,15.0798,14.8255,14.9177,14.9177,14.8255,14.9563,15.015,11.3208,11.2499,11.2818,11.4292,11.4627,11.503,11.6588,11.6924,11.7326,11.8801,12.0293,12.1366,12.15,12.378,12.6194,12.7736,12.9211,13.0686,13.2075,13.2296,13.2899,13.4461,13.4662,13.5692,13.8038,13.8243,13.8448,13.8894,13.9541,14.0303,14.1193,14.1741,14.2456,14.3339,14.437,14.4958,14.4958,14.5343,14.541,14.5025,14.5431,14.638,14.7922,14.9262,14.9932,14.9932,14.9932,14.9932,14.9932,14.9932,14.9932,14.9932,14.9932,14.9932,14.9932,14.9932,14.9061,14.8077,14.9463,14.9932,14.9932,14.9932,15.096,15.2166,15.2233,15.1901,15.1587,15.1587,15.1249,15.0863,15.0774,15.1836,15.2716,15.2273,15.2133,15.2058,15.174,15.1621,15.2057,15.3414,15.3719,15.4113,15.5519,15.5782,15.5847,15.5847,15.5782,15.5782,15.5782,15.7365,15.9175,16.107,16.2944,16.4154,16.4562,16.4548,16.3914,16.2295,16.0567,15.9636,15.986,15.6165,15.3615,15.2568,14.9563,14.7291,14.5857,14.5857,14.5857,14.5901,14.6723,14.7086,11.136,11.1024,11.1359,11.2751,11.3153,11.3488,11.4963,11.5298,11.5767,11.7259,11.7946,11.8952,12.1098,12.2975,12.4701,12.6194,12.7669,12.9211,13.0619,13.082,13.1357,13.2832,13.4058,13.5006,13.5692,13.5739,13.62,13.7325,13.8578,13.9341,13.9584,14.0854,14.1657,14.1905,14.2833,14.3484,14.3909,14.4768,14.5282,14.5452,14.5512,14.5823,14.6246,14.6627,14.6828,14.6828,14.6828,14.6828,14.6828,14.6828,14.6782,14.6825,14.6849,14.6828,14.6828,14.6828,14.6581,14.6313,14.6694,14.6828,14.6828,14.6828,14.7096,14.7654,14.8815,14.98,15.0472,15.0472,15.1187,15.1611,15.0075,14.9986,15.0473,15.106,15.0934,15.099,15.2324,15.2095,15.1824,15.251,15.2428,15.232,15.2715,15.3677,15.4311,15.4311,15.348,15.2781,15.2781,15.4283,15.6584,15.974,16.1722,16.2809,16.2963,16.309,16.2509,16.0711,15.9355,15.816,15.7034,15.4638,15.2819,15.1781,15.0629,14.9318,14.7891,14.7891,14.7891,14.7851,14.6711,14.6344,11.2553,11.1882,11.1252,11.1555,11.1694,11.1879,11.2683,11.2885,11.3287,11.4845,11.565,11.6789,11.9153,12.0812,12.2421,12.4566,12.5657,12.6931,12.9077,12.9345,12.9882,13.129,13.2296,13.2851,13.2851,13.3991,13.5064,13.5869,13.7258,13.833,13.8934,13.9806,14.0631,14.1301,14.1817,14.2285,14.2575,14.3176,14.3557,14.3787,14.3787,14.4122,14.4726,14.4726,14.504,14.5622,14.5622,14.5975,14.6525,14.6525,14.6975,14.7491,14.6832,14.6525,14.656,14.6592,14.6559,14.6528,14.6568,14.6525,14.6469,14.5808,14.5622,14.5756,14.6715,14.7117,14.7273,14.7273,14.7965,14.8391,14.7173,14.7756,14.8828,14.923,14.9515,15.0042,15.0973,15.0758,15.0586,15.1184,15.127,15.144,15.1822,15.2541,15.3008,15.2605,15.199,15.174,15.2143,15.2875,15.4777,15.86,15.996,16.0874,16.1521,16.1801,16.0934,15.8383,15.772,15.6785,15.5359,15.337,15.2142,15.169,15.0126,14.8982,14.812,14.7456,14.7197,14.7158,14.5765,14.5919,11.4539,11.3179,11.1079,11.0084,10.9822,10.9857,0.0,11.0018,11.0554,11.2013,11.3354,11.4762,11.6655,11.7929,11.9672,12.264,12.3311,12.4383,12.7218,12.7755,12.8272,12.9345,12.9614,12.9882,13.0217,13.2631,13.426,13.4461,13.5782,13.7123,13.8465,13.88,13.9604,14.1033,14.1234,14.1301,14.1301,14.1301,14.1301,14.1301,14.1301,14.1972,14.3246,14.3246,14.3875,14.5107,14.5107,14.5935,14.7234,14.7343,14.8372,14.9645,14.8257,14.7793,14.7917,14.7779,14.7679,14.7652,14.7508,14.7422,14.7146,14.5604,14.5107,14.5174,14.5308,14.4457,14.3514,14.3628,14.3695,14.3695,14.3695,14.5685,14.7568,14.7112,14.7917,14.8697,14.8386,14.8296,14.8449,14.9322,14.9948,15.0616,15.1413,15.176,15.1592,15.0554,15.0924,15.161,15.2384,15.2457,15.3753,15.7325,15.789,15.862,15.9967,16.0197,15.8902,15.5845,15.5806,15.5352,15.4336,15.2263,15.1408,15.1819,14.9085,14.7607,14.7712,14.6243,14.5626,14.5569,14.4926,14.5677,0.0,0.0,0.0,0.0,0.0,0.0,0.0,10.7723,10.8997,11.0487,11.1024,11.2432,11.632,11.6337,11.6655,11.9538,12.108,12.2524,12.4249,12.5523,12.5907,12.4987,12.5907,12.7583,13.0016,13.0753,13.1558,13.2765,13.424,13.5266,13.5534,13.7727,13.9135,13.9403,14.0631,14.1301,14.1301,14.1301,14.1301,14.1301,14.1301,14.1435,14.1704,14.1704,14.1905,14.2152,14.2152,14.2358,14.2719,14.3848,14.5269,14.6639,14.6283,14.6994,14.7931,14.6682,14.6207,14.6045,14.4757,14.4322,14.4052,14.2658,14.2152,14.2354,14.3493,14.3695,14.3695,14.486,14.5174,14.5174,14.5174,14.5643,14.6003,14.5939,14.5841,14.5869,14.6106,14.5588,14.5285,14.5879,14.6679,14.7299,14.7453,14.9124,14.9921,14.8142,14.8651,14.9354,14.9535,15.1835,15.3776,15.4534,15.5879,15.6757,15.7064,15.6307,15.5361,15.4406,15.3522,15.2907,15.2685,15.0755,14.9983,15.0576,14.9826,14.9471,14.9707,14.9385,14.9242,14.921,14.7514,14.5865,0.0,0.0,0.0,0.0,0.0,0.0,0.0,0.0,0.0,0.0,0.0,10.9265,11.3035,0.0,11.4644,11.7594,11.8751,11.9757,12.1232,12.2689,12.3042,12.155,12.3378,12.5304,12.6797,12.8272,12.9748,13.1223,13.2027,13.312,13.4662,13.607,13.7191,13.7861,13.9336,14.0141,14.0141,14.0899,14.1301,14.1301,14.1301,14.1301,14.1301,14.1301,14.1301,14.1301,14.1301,14.1301,14.1505,14.3732,14.5933,14.804,14.804,14.8531,14.9109,14.8283,14.7595,14.68,14.6055,14.5309,14.4395,14.2848,14.2366,14.2411,14.2352,14.2374,14.2575,14.3272,14.3473,14.3473,14.3473,14.3988,14.4524,14.4524,14.4959,14.5367,14.5579,14.5282,14.4961,14.5004,14.5516,14.5941,14.5724,14.6702,14.7233,14.6488,14.6455,14.6657,14.7097,14.8465,15.0078,15.1887,15.2871,15.4037,15.5576,15.4976,15.4565,15.4534,15.3267,15.2078,15.1279,15.0272,14.9906,15.0294,15.0159,15.0159,15.0223,14.9514,14.8778,14.7998,14.6962,14.5754,0.0,0.0,0.0,0.0,0.0,0.0,0.0,0.0,0.0,0.0,0.0,0.0,0.0,0.0,0.0,11.5247,11.6186,11.6991,11.813,11.9337,11.9824,11.8868,12.1147,12.2975,12.3579,12.5791,12.7937,12.9681,12.9815,13.1022,13.3723,13.4125,13.4911,13.6386,13.7794,13.8599,13.8599,14.0094,14.0899,14.0899,14.1167,0.0,14.1301,14.1301,14.1301,14.1301,14.1301,14.1485,14.1964,14.4654,14.7358,14.9805,14.9491,14.9367,14.9367,14.9367,14.8646,14.762,14.7362,14.6367,14.5065,14.3502,14.298,14.2758,14.1632,14.1277,0.0,14.1301,14.1301,14.1301,14.1301,14.2173,14.3045,14.3045,14.3942,14.4772,14.4772,14.4772,14.4687,14.4349,14.474,14.5068,14.4729,14.4753,14.4899,14.5505,14.4972,14.498,14.6325,14.6242,14.7271,15.0514,15.0917,15.1925,15.4466,15.3818,15.3487,15.412,15.2708,15.1109,14.9438,14.9367,14.9367,14.9367,14.9025,14.9239,14.981,14.833,14.6962,14.5723,14.4065,14.3674,0.0,0.0,0.0,0.0,0.0,0.0,0.0,0.0,0.0,0.0,0.0,0.0,0.0,0.0,0.0,0.0,11.3287,11.503,11.5164,11.5365,11.5901,11.7125,11.8667,12.0745,12.3378,12.3914,12.5322,12.8157,12.834,12.9029,13.0686,13.196,0.0,0.0,0.0,13.7056,13.7056,13.8532,13.9269,13.9269,14.0631,14.1301,14.1301,14.1301,14.1301,14.1301,14.1301,14.2036,14.332,14.5092,14.6783,14.8184,14.6726,14.61,14.61,14.61,14.6013,14.5719,14.4421,0.0,0.0,14.1906,14.1394,14.1373,14.1203,14.1194,14.1301,14.1301,14.1301,14.1301,14.1301,14.1435,14.1569,14.1569,14.1704,14.1817,14.1817,14.1817,14.1817,14.1776,14.2802,14.3695,14.3632,14.3632,14.4103,14.5587,14.5551,14.651,14.9347,14.9797,15.0496,15.2174,15.2429,0.0,15.3035,15.038,14.9295,15.0737,14.9325,14.777,14.6171,14.61,14.61,14.61,14.4773,14.5415,14.8183,14.661,14.5824,14.5468,13.8483,13.6768,0.0,0.0,0.0,0.0,0.0,0.0,0.0,0.0,0.0,0.0,0.0,0.0,0.0,0.0,0.0,0.0,11.1202,11.1879,11.0992,11.1611,11.2767,11.4242,11.57,11.7376,11.9605,12.0544,12.2287,12.5255,12.5523,12.6529,12.8876,12.9546,13.0552,13.2027,13.3503,13.471,13.5601,13.6989,13.7727,13.7727,13.8418,13.8686,13.8686,13.8686,13.8686,13.8793,13.959,14.0315,14.106,14.3432,14.4813,14.5406,0.0,0.0,0.0,0.0,14.5061,14.4373,14.4657,14.4159,14.3321,14.2725,14.1905,14.1233,14.1129,14.0,13.9068,14.0741,14.0596,14.0141,14.11,14.1301,14.1301,14.1301,14.1301,14.1301,14.1301,14.1301,14.1301,14.1301,14.1838,0.0,14.224,14.224,14.2419,14.3082,14.3855,14.4848,14.6168,14.712,14.8337,14.9845,15.0056,15.0439,15.1262,15.0095,0.0,0.0,0.0,14.9025,14.8311,14.8311,0.0,0.0,0.0,14.2119,14.2476,14.005,0.0,0.0,13.2345,13.193,0.0,0.0,0.0,0.0,0.0,0.0,0.0,0.0,0.0,0.0,0.0,0.0,0.0,0.0,0.0,0.0,10.9106,10.9364,10.8608,10.9514,11.1095,11.3385,11.36,11.4673,11.7753,11.7984,11.9375,12.2648,12.2584,12.3713,12.673,12.6883,12.7736,12.9614,13.0686,13.1759,13.2851,13.4729,13.5648,13.5648,13.6453,13.6855,13.6855,13.6855,13.6855,13.6954,13.8387,13.9253,13.9786,14.243,14.3708,14.4002,14.3329,14.3047,14.3047,14.3047,14.2384,14.1629,14.266,14.2369,14.1563,14.1987,14.1435,14.0643,14.1011,13.937,13.7892,13.9951,13.9486,13.8666,13.9826,14.0094,14.0161,14.0564,14.0698,14.0832,14.1234,14.1301,14.1301,14.1301,14.0966,14.0832,14.1234,14.1621,14.1923,14.1923,14.277,14.3777,14.4654,14.5381,14.6525,14.8483,14.8675,14.9141,15.0148,14.9881,14.981,15.0238,14.9881,14.981,15.0223,14.9025,14.7827,14.6628,14.2476,13.9337,0.0,0.0,0.0,0.0,0.0,0.0,0.0,0.0,0.0,0.0,0.0,0.0,0.0,0.0,0.0,0.0,0.0,0.0,0.0,0.0,0.0,0.0,0.0,0.0,10.9408,10.9701,11.1494,11.5995,11.2982,11.3167,11.9899,11.7184,11.6754,12.0895,12.0039,12.0611,12.3579,12.378,12.5121,12.809,12.8224,12.8291,12.8291,13.1089,13.2478,13.2545,13.5447,13.6855,13.6855,13.6855,13.6855,13.6954,13.8387,13.9804,14.1386,14.2855,14.4266,14.4915,13.8909,13.6568,13.6568,13.6568,13.6554,13.6527,13.6554,13.6554,13.6727,13.8269,13.874,13.9,14.0633,14.007,13.892,13.9043,13.8017,13.6922,13.7009,13.6989,13.7325,13.8733,13.9068,13.947,14.0966,14.1301,14.1301,14.1301,14.0074,13.9537,14.1033,14.2465,14.3378,14.3378,14.3416,0.0,14.7562,14.6663,14.6919,14.9891,15.0163,15.0178,15.0223,14.8897,14.8612,15.0151,14.8826,14.8683,15.0223,14.59,14.3432,14.3432,14.0264,13.7183,13.4057,0.0,0.0,0.0,0.0,0.0,0.0,0.0,0.0,0.0,0.0,0.0,0.0,0.0,0.0,0.0,0.0,0.0,0.0,0.0,0.0,0.0,0.0,0.0,0.0,10.7959,10.9365,11.2853,11.2951,11.4015,11.7295,11.5824,11.6388,12.0529,11.7964,11.7849,12.1744,12.1114,12.1634,12.3646,12.4652,12.559,12.6529,12.8541,12.9546,12.9546,13.0552,13.1041,13.1041,13.1041,13.1041,13.1116,13.2555,13.3988,13.5363,13.6834,13.8199,13.9208,13.7067,13.6296,13.6296,13.6296,13.6296,13.6296,13.6296,13.6296,13.6354,13.6853,13.6431,13.5936,13.7452,13.5639,13.3621,13.6428,13.6309,13.5512,13.6491,13.7509,13.8161,13.7717,13.7593,13.7727,13.8263,13.835,13.8619,13.9604,13.9385,13.8816,13.8284,13.9476,14.085,14.1727,14.3672,14.5773,14.788,14.8499,14.9117,15.0133,15.0223,15.0223,15.0223,14.981,14.9667,15.0223,14.9738,14.9254,14.8754,14.7199,14.5344,14.3289,14.1206,13.7054,13.0788,0.0,0.0,0.0,0.0,0.0,0.0,0.0,0.0,0.0,0.0,0.0,0.0,0.0,0.0,0.0,0.0,0.0,0.0,0.0,0.0,0.0,0.0,0.0,0.0,0.0,0.0,11.1918,11.1477,0.0,11.481,11.3604,11.4149,11.7764,11.6256,11.6625,11.9982,11.9468,11.9753,12.1304,12.1813,12.2488,12.3427,12.4987,12.6011,12.6529,12.6998,12.7535,12.809,12.809,12.809,12.8182,12.962,13.1,13.2053,13.0828,13.132,13.2929,13.2929,13.2929,13.2929,13.2929,13.2929,13.2929,13.2929,13.2929,13.3072,13.3571,13.3544,13.354,13.4983,13.2813,13.049,13.3727,13.3735,13.3008,13.4054,13.502,13.556,13.4694,13.4911,13.538,13.5984,13.6905,13.7274,13.6082,13.6263,13.6456,13.5984,13.7582,13.944,14.0885,14.3344,14.5731,14.7855,14.8952,14.9723,15.0178,15.0223,15.0223,15.0223,15.0223,15.0024,14.9453,14.9453,14.8754,14.7185,14.6557,14.4773,14.1705,13.8994,13.457,0.0,0.0,0.0,0.0,0.0,0.0,0.0,0.0,0.0,0.0,0.0,0.0,0.0,0.0,0.0,0.0,0.0,0.0,0.0,0.0,0.0,0.0,0.0,0.0,0.0,0.0,0.0,11.2888,10.8924,0.0,0.0,0.0,0.0,11.3119,11.4696,11.6312,11.8019,11.8368,11.9143,12.0648,11.9651,11.9071,11.8935,12.0561,12.2037,12.3445,12.4768,12.6194,12.7687,12.7687,12.7687,12.7694,12.9056,13.0468,13.1295,12.5391,12.449,12.6851,12.6696,12.6709,12.6696,12.6767,12.6851,12.6839,12.6923,12.691,12.7137,12.8576,13.0016,13.1372,13.2786,13.1214,0.0,0.0,13.0409,12.951,12.9857,13.0045,13.0107,13.014,13.1213,13.266,13.4078,13.6509,13.6809,13.131,13.1316,13.2661,13.3944,0.0,13.9046,14.0536,14.2244,14.4449,14.7574,14.8154,14.8707,15.0103,15.0151,15.0166,15.0166,15.008,14.9381,14.7913,14.7841,14.7113,14.5529,14.3917,14.1562,13.8395,13.3642,0.0,0.0,0.0,0.0,0.0,0.0,0.0,0.0,0.0,0.0,0.0,0.0,0.0,0.0,0.0,0.0,0.0,0.0,0.0,0.0,0.0,0.0,0.0,0.0,0.0,0.0,10.5788,10.761,10.8341,10.99,11.0953,0.0,0.0,0.0,0.0,0.0,0.0,11.4445,11.483,11.4807,11.4487,11.7331,11.789,11.5851,11.8466,11.994,12.0276,12.0678,12.108,12.1433,12.1433,12.1433,12.1451,12.1853,12.331,12.5268,12.3365,12.3651,12.508,12.3783,12.3343,12.3486,12.4723,12.5235,12.5378,12.6495,12.691,12.6851,12.6008,12.5223,12.4354,12.3582,0.0,0.0,0.0,0.0,12.6359,12.7823,12.9772,13.0889,12.9037,12.9676,13.0503,12.9943,13.0353,13.0674,12.9924,13.019,13.0154,12.9185,13.0637,0.0,13.5405,13.9137,14.2846,14.585,14.8245,14.9876,15.0193,14.9239,14.854,14.854,14.7455,14.6599,14.6186,14.6186,14.5472,14.3917,14.1263,13.8338,13.5199,0.0,0.0,0.0,0.0,0.0,0.0,0.0,0.0,0.0,0.0,0.0,0.0,0.0,0.0,0.0,0.0,0.0,0.0,0.0,0.0,0.0,0.0,0.0,0.0,0.0,0.0,0.0,10.1669,10.5037,10.6272,10.7935,10.8586,0.0,0.0,0.0,0.0,0.0,0.0,0.0,0.0,0.0,11.2639,11.4526,11.5125,11.4286,11.55,11.6443,11.7034,11.7194,11.7849,11.9026,11.9701,12.0306,12.0746,12.0746,12.0414,11.9815,11.9562,12.0294,12.131,0.0,0.0,0.0,0.0,11.9384,11.9527,12.0442,12.0716,12.0716,12.0514,0.0,0.0,0.0,0.0,0.0,0.0,0.0,12.2843,12.3967,12.6451,12.8107,12.5646,12.6069,12.7042,12.7024,12.476,12.2898,12.3464,12.3632,12.3498,12.3101,12.4261,0.0,0.0,0.0,13.9297,14.3089,14.6243,14.824,14.824,14.7384,14.6899,14.6899,14.6114,14.533,14.4631,14.3903,14.2561,14.0292,13.6568,13.2702,0.0,0.0,0.0,0.0,0.0,0.0,0.0,0.0,0.0,0.0,0.0,0.0,0.0,0.0,0.0,0.0,0.0,0.0,0.0,0.0,0.0,0.0,0.0,0.0,0.0,0.0,0.0,0.0,0.0,10.0668,10.4948,0.0,0.0,0.0,0.0,0.0,0.0,0.0,0.0,0.0,0.0,0.0,0.0,0.0,11.1917,11.3096,11.2188,11.2483,11.3888,11.427,11.5703,11.8155,11.9506,12.068,12.1635,12.1528,0.0,11.5566,11.5131,0.0,0.0,0.0,0.0,0.0,0.0,0.0,0.0,0.0,0.0,0.0,0.0,0.0,0.0,0.0,0.0,0.0,0.0,0.0,0.0,0.0,0.0,12.355,12.1245,12.1957,12.3249,12.3862,11.9374,11.5325,11.5663,11.5509,11.5705,0.0,0.0,0.0,0.0,0.0,0.0,13.9779,14.3403,14.5601,14.5601,14.5401,14.5258,14.5258,14.5116,14.4331,14.2704,14.0992,13.8637,13.544,13.1216,0.0,0.0,0.0,0.0,0.0,0.0,0.0,0.0,0.0,0.0,0.0,0.0,0.0,0.0,0.0,0.0,0.0,0.0,0.0,0.0,0.0,0.0,0.0,0.0,0.0,0.0,0.0,0.0,0.0,0.0,0.0,0.0,0.0,0.0,0.0,0.0,0.0,0.0,0.0,0.0,0.0,0.0,0.0,0.0,0.0,0.0,0.0,0.0,0.0,0.0,11.1998,11.2908,11.4585,11.4861,11.5114,11.5287,11.4778,11.4769,11.5004,11.2383,0.0,0.0,0.0,0.0,0.0,0.0,0.0,0.0,0.0,0.0,0.0,0.0,0.0,0.0,0.0,0.0,0.0,0.0,0.0,0.0,0.0,0.0,12.0292,11.8978,12.0682,12.1268,11.6483,0.0,0.0,0.0,0.0,0.0,0.0,0.0,0.0,0.0,0.0,0.0,13.6653,14.2048,14.5601,14.5601,14.4417,14.3632,14.3632,14.249,14.1049,13.9537,13.6768,13.3772,0.0,0.0,0.0,0.0,0.0,0.0,0.0,0.0,0.0,0.0,0.0,0.0,0.0,0.0,0.0,0.0,0.0,0.0,0.0,0.0,0.0,0.0,0.0,0.0,0.0,0.0,0.0,0.0,0.0,0.0,0.0,0.0,0.0,0.0,0.0,0.0,0.0,0.0,0.0,0.0,0.0,0.0,0.0,0.0,0.0,0.0,0.0,0.0,0.0,0.0,0.0,0.0,0.0,0.0,0.0,0.0,0.0,0.0,11.1878,11.0749,0.0,0.0,0.0,0.0,0.0,0.0,0.0,0.0,0.0,0.0,0.0,0.0,0.0,0.0,0.0,0.0,0.0,0.0,0.0,0.0,0.0,0.0,0.0,0.0,0.0,0.0,0.0,0.0,0.0,0.0,0.0,0.0,0.0,0.0,0.0,0.0,0.0,0.0,0.0,0.0,13.3299,13.9279,14.3189,14.3189,14.249,14.2062,14.2062,14.0621,13.8695,13.6327,13.2474,0.0,0.0,0.0,0.0,0.0,0.0,0.0,0.0,0.0,0.0,0.0,0.0,0.0,0.0,0.0,0.0,0.0,0.0,0.0,0.0,0.0,0.0,0.0,0.0,0.0,0.0,0.0,0.0,0.0,0.0,0.0,0.0,0.0,0.0,0.0,0.0,0.0,0.0,0.0,0.0,0.0,0.0,0.0,0.0,0.0,0.0,0.0,0.0,0.0,0.0,0.0,0.0,0.0,0.0,0.0,0.0,0.0,0.0,0.0,10.8526,10.6468,0.0,0.0,0.0,0.0,0.0,0.0,0.0,0.0,0.0,0.0,0.0,0.0,0.0,0.0,0.0,0.0,0.0,0.0,0.0,0.0,0.0,0.0,0.0,0.0,0.0,0.0,0.0,0.0,0.0,0.0,0.0,0.0,0.0,0.0,0.0,0.0,0.0,0.0,0.0,0.0,13.0529,13.6282,13.9921,13.9921,14.0193,14.0264,13.9993,13.9123,13.6826,13.2702,12.8337,0.0,0.0,0.0,0.0,0.0,0.0,0.0,0.0,0.0,0.0,0.0,0.0,0.0,0.0,0.0,0.0,0.0,0.0,0.0,0.0,0.0,0.0,0.0,0.0,0.0,0.0,0.0,0.0,0.0,0.0,0.0,0.0,0.0,0.0,0.0,0.0,0.0,0.0,0.0,0.0,0.0,0.0,0.0,0.0,0.0,0.0,0.0,0.0,0.0,0.0,0.0,0.0,0.0,0.0,0.0,0.0,0.0,0.0,0.0,0.0,0.0,0.0,0.0,0.0,0.0,0.0,0.0,0.0,0.0,0.0,0.0,0.0,0.0,0.0,0.0,0.0,0.0,0.0,0.0,0.0,0.0,0.0,0.0,0.0,0.0,0.0,0.0,0.0,0.0,0.0,0.0,0.0,0.0,0.0,0.0,0.0,0.0,0.0,0.0,0.0,0.0,12.8862,13.3714,13.6724,13.6724,13.7981,13.8267,13.6782,13.7838,13.5471,12.8051,0.0,0.0,0.0,0.0,0.0,0.0,0.0,0.0,0.0,0.0,0.0,0.0,0.0,0.0,0.0,0.0,0.0,0.0,0.0,0.0,0.0,0.0,0.0,0.0,0.0,0.0,0.0,0.0,0.0,0.0,0.0,0.0,0.0,0.0,0.0,0.0,0.0,0.0,0.0,0.0,0.0,0.0,0.0,0.0,0.0,0.0,0.0,0.0,0.0,0.0,0.0,0.0,0.0,0.0,0.0,0.0,0.0,0.0,0.0,0.0,0.0,0.0,0.0,0.0,0.0,0.0,0.0,0.0,0.0,0.0,0.0,0.0,0.0,0.0,0.0,0.0,0.0,0.0,0.0,0.0,0.0,0.0,0.0,0.0,0.0,0.0,0.0,0.0,0.0,0.0,0.0,0.0,0.0,0.0,0.0,0.0,0.0,0.0,0.0,0.0,0.0,0.0,12.8505,13.337,13.6296,13.6296,13.6853,13.6925,13.6296,13.5997,13.2403,12.4485,0.0,0.0,0.0,0.0,0.0,0.0,0.0,0.0,0.0,0.0,0.0,0.0,0.0,0.0,0.0,0.0,0.0,0.0,0.0,0.0,0.0,0.0,0.0,0.0,0.0,0.0,0.0,0.0,0.0,0.0,0.0,0.0,0.0,0.0,0.0,0.0,0.0,0.0,0.0,0.0,0.0,0.0,0.0,0.0,0.0,0.0,0.0,0.0,0.0,0.0,0.0,0.0,0.0,0.0,0.0,0.0,0.0,0.0,0.0,0.0,0.0,0.0,0.0,0.0,0.0,0.0,0.0,0.0,0.0,0.0,0.0,0.0,0.0,0.0,0.0,0.0,0.0,0.0,0.0,0.0,0.0,0.0,0.0,0.0,0.0,0.0,0.0,0.0,0.0,0.0,0.0,0.0,0.0,0.0,0.0,0.0,0.0,0.0,0.0,0.0,0.0,0.0,12.7162,13.2014,13.4869,13.4869,13.5297,13.5355,13.494,13.3856,12.9634,12.1203,0.0,0.0,0.0,0.0,0.0,0.0,0.0,0.0,0.0,0.0,0.0,0.0,0.0,0.0,0.0,0.0,0.0,0.0,0.0,0.0,0.0,0.0,0.0,0.0,0.0,0.0,0.0,0.0,0.0,0.0,0.0,0.0,0.0,0.0,0.0,0.0,0.0,0.0,0.0,0.0,0.0,0.0,0.0,0.0,0.0,0.0,0.0,0.0,0.0,0.0,0.0,0.0,0.0,0.0,0.0,0.0,0.0,0.0,0.0,0.0,0.0,0.0,0.0,0.0,0.0,0.0,0.0,0.0,0.0,0.0,0.0,0.0,0.0,0.0,0.0,0.0,0.0,0.0,0.0,0.0,0.0,0.0,0.0,0.0,0.0,0.0,0.0,0.0,0.0,0.0,0.0,0.0,0.0,0.0,0.0,0.0,0.0,0.0,0.0,0.0,0.0,0.0,12.4022,12.8745,13.1671,13.1671,13.3072,13.3357,13.1813,13.1671,12.759,0.0,0.0,0.0,0.0,0.0,0.0,0.0,0.0,0.0,0.0,0.0,0.0,0.0,0.0,0.0,0.0,0.0,0.0,0.0,0.0,0.0,0.0,0.0,0.0,0.0,0.0,0.0,0.0,0.0,0.0,0.0,0.0,0.0,0.0,0.0,0.0,0.0,0.0,0.0,0.0,0.0,0.0,0.0,0.0,0.0,0.0,0.0,0.0,0.0,0.0,0.0,0.0,0.0,0.0,0.0,0.0,0.0,0.0,0.0,0.0,0.0,0.0,0.0,0.0,0.0,0.0,0.0,0.0,0.0,0.0,0.0,0.0,0.0,0.0,0.0,0.0,0.0,0.0,0.0,0.0,0.0,0.0,0.0,0.0,0.0,0.0,0.0,0.0,0.0,0.0,0.0,0.0,0.0,0.0,0.0,0.0,0.0,0.0,0.0,0.0,0.0,0.0,0.0,12.3808,12.7733,13.0444,13.1457,13.2014,13.1729,13.0159,13.0016,12.5936,11.6423,0.0,0.0,0.0,0.0,0.0,0.0,0.0,0.0,0.0,0.0,0.0,0.0,0.0,0.0,0.0,0.0,0.0,0.0,0.0,0.0,0.0,0.0,0.0,0.0,0.0,0.0,0.0,0.0,0.0,0.0,0.0,0.0,0.0,0.0,0.0,0.0,0.0,0.0,0.0,0.0,0.0,0.0,0.0,0.0,0.0,0.0,0.0,0.0,0.0,0.0,0.0,0.0,0.0,0.0,0.0,0.0,0.0,0.0,0.0,0.0,0.0,0.0,0.0,0.0,0.0,0.0,0.0,0.0,0.0,0.0,0.0,0.0,0.0,0.0,0.0,0.0,0.0,0.0,0.0,0.0,0.0,0.0,0.0,0.0,0.0,0.0,0.0,0.0,0.0,0.0,0.0,0.0,0.0,0.0,0.0,0.0,0.0,0.0,0.0,0.0,0.0,0.0,0.0,12.6579,12.9433,12.9802,13.0373,13.0088,12.8505,12.7863,12.3938,11.5627,0.0,0.0,0.0,0.0,0.0,0.0,0.0,0.0,0.0,0.0,0.0,0.0,0.0,0.0,0.0,0.0,0.0,0.0,0.0,0.0,0.0,0.0,0.0,0.0,0.0,0.0,0.0,0.0,0.0,0.0,0.0,0.0,0.0,0.0,0.0,0.0,0.0,0.0,0.0,0.0,0.0,0.0,0.0,0.0,0.0,0.0,0.0,0.0,0.0,0.0,0.0,0.0,0.0,0.0,0.0,0.0,0.0,0.0,0.0,0.0,0.0,0.0,0.0,0.0,0.0,0.0,0.0,0.0,0.0,0.0,0.0,0.0,0.0,0.0,0.0,0.0,0.0,0.0,0.0,0.0,0.0,0.0,0.0,0.0,0.0,0.0,0.0,0.0,0.0,0.0,0.0,0.0,0.0,0.0,0.0,0.0,0.0,0.0,0.0,0.0,0.0,0.0,0.0,12.5151,12.8434,12.7065,12.822,12.8505,12.6923,12.5294,12.1727,11.5271,11.345,0.0,0.0,0.0,0.0,0.0,0.0,0.0,0.0,0.0,0.0,0.0,0.0,0.0,0.0,0.0,0.0,0.0,0.0,0.0,0.0,0.0,0.0,0.0,0.0,0.0,0.0,0.0,0.0,0.0,0.0,0.0,0.0,0.0,0.0,0.0,0.0,0.0,0.0,0.0,0.0,0.0,0.0,0.0,0.0,0.0,0.0,0.0,0.0,0.0,0.0,0.0,0.0,0.0,0.0,0.0,0.0,0.0,0.0,0.0,0.0,0.0,0.0,0.0,0.0,0.0,0.0,0.0,0.0,0.0,0.0,0.0,0.0,0.0,0.0,0.0,0.0,0.0,0.0,0.0,0.0,0.0,0.0,0.0,0.0,0.0,0.0,0.0,0.0,0.0,0.0,0.0,0.0,0.0,0.0,0.0,0.0,0.0,0.0,0.0,0.0,0.0,0.0,12.3237,12.6008,12.6839,12.7267,12.6851,12.5294,12.3641,12.0002,11.3664,11.1798,0.0,0.0,0.0,0.0,0.0,0.0,0.0,0.0,0.0,0.0,0.0,0.0,0.0,0.0,0.0,0.0,0.0,0.0,0.0,0.0,0.0,0.0,0.0,0.0,0.0,0.0,0.0,0.0,0.0,0.0,0.0,0.0,0.0,0.0,0.0,0.0,0.0,0.0,0.0,0.0,0.0,0.0,0.0,0.0,0.0,0.0,0.0,0.0,0.0,0.0,0.0,0.0,0.0,0.0,0.0,0.0,0.0,0.0,0.0,0.0,0.0,0.0,0.0,0.0,0.0,0.0,0.0,0.0,0.0,0.0,0.0,0.0,0.0,0.0,0.0,0.0,0.0,0.0,0.0,0.0,0.0,0.0,0.0,0.0,0.0,0.0,0.0,0.0,0.0,0.0,0.0,0.0,0.0,0.0,0.0,0.0,0.0,0.0,0.0,0.0,0.0,0.0,11.8302,12.1358,12.4413,12.5424,12.4937,12.2595,12.1513,11.8361,11.2094,11.0239,0.0,0.0,0.0,0.0,0.0,0.0,0.0,0.0,0.0,0.0,0.0,0.0,0.0,0.0,0.0,0.0,0.0,0.0,0.0,0.0,0.0,0.0,0.0,0.0,0.0,0.0,0.0,0.0,0.0,0.0,0.0,0.0,0.0,0.0,0.0,0.0,0.0,0.0,0.0,0.0,0.0,0.0,0.0,0.0,0.0,0.0,0.0,0.0,0.0,0.0,0.0,0.0,0.0,0.0,0.0,0.0,0.0,0.0,0.0,0.0,0.0,0.0,0.0,0.0,0.0,0.0,0.0,0.0,0.0,0.0,0.0,0.0,0.0,0.0,0.0,0.0,0.0,0.0,0.0,0.0,0.0,0.0,0.0,0.0,0.0,0.0,0.0,0.0,0.0,0.0,0.0,0.0,0.0,0.0,0.0,0.0,0.0,0.0,0.0,0.0,0.0,0.0,0.0,11.6423,12.0918,12.2868,12.2738,11.9955,11.9312,11.6589,11.0788,0.0,0.0,0.0,0.0,0.0,0.0,0.0,0.0,0.0,0.0,0.0,0.0,0.0,0.0,0.0,0.0,0.0,0.0,0.0,0.0,0.0,0.0,0.0,0.0,0.0,0.0,0.0,0.0,0.0,0.0,0.0,0.0,0.0,0.0,0.0,0.0,0.0,0.0,0.0,0.0,0.0,0.0,0.0,0.0,0.0,0.0,0.0,0.0,0.0,0.0,0.0,0.0,0.0,0.0,0.0,0.0,0.0,0.0,0.0,0.0,0.0,0.0,0.0,0.0,0.0,0.0,0.0,0.0,0.0,0.0,0.0,0.0,0.0,0.0,0.0,0.0,0.0,0.0,0.0,0.0,0.0,0.0,0.0,0.0,0.0,0.0,0.0,0.0,0.0,0.0,0.0,0.0,0.0,0.0,0.0,0.0,0.0,0.0,0.0,0.0,0.0,0.0,0.0,0.0,11.4377,11.7791,11.9515,12.0311,11.9812,11.7291,11.4283,11.0656,0.0,0.0,0.0,0.0,0.0,0.0,0.0,0.0,0.0,0.0,0.0,0.0,0.0,0.0]}],[{"header":{"parameterUnit":"kt","parameterCategory":2,"dx":1,"dy":1,"la1":29.285339999999998,"la2":30.599998999999997,"lo1":-89.70041500000002,"lo2":-87.6738589999976,"nx":112,"ny":82,"refTime":"2022-09-25T12:00:00:Z","depth":0,"parameterNumber":2,"parameterNumberName":"V-component_of_WINDS"},"data":[8.3333,8.4092,8.417,8.0867,8.0867,8.0753,7.7146,7.6993,7.7336,0.0,0.0,0.0,0.0,0.0,0.0,0.0,0.0,0.0,0.0,7.5473,7.5625,7.5093,7.7486,7.9614,8.0715,8.2537,8.5385,8.9675,8.9898,9.1383,9.489,9.508,9.508,9.508,9.508,9.508,9.508,9.508,9.508,9.508,9.508,9.508,9.508,9.508,9.508,9.508,9.508,9.508,9.508,9.508,9.508,9.508,9.508,9.508,9.508,9.508,9.508,9.508,9.508,9.508,9.508,9.508,9.508,9.508,9.508,9.508,9.5118,9.5377,9.5263,9.5073,9.5415,9.5263,9.508,9.508,9.508,9.508,9.508,9.508,9.508,9.508,9.508,9.508,9.508,9.508,9.508,9.508,9.508,9.508,9.508,9.508,9.508,9.508,9.508,9.508,9.508,9.508,9.508,9.508,9.508,9.508,9.508,9.508,9.508,9.508,9.508,9.508,9.508,9.508,9.508,9.508,9.508,9.508,8.0867,8.1626,8.1588,7.7945,7.7831,7.7981,7.5207,0.0,0.0,0.0,0.0,0.0,0.0,0.0,0.0,0.0,0.0,0.0,0.0,7.5324,7.6311,7.6689,7.9462,8.1665,8.2423,8.4284,8.6827,9.0126,9.0396,9.1725,9.489,9.508,9.508,9.508,9.508,9.508,9.508,9.508,9.508,9.508,9.508,9.508,9.508,9.508,9.508,9.508,9.508,9.508,9.508,9.508,9.508,9.508,9.508,9.508,9.508,9.508,9.508,9.508,9.508,9.508,9.508,9.508,9.508,9.508,9.508,9.508,9.508,9.508,9.508,9.508,9.508,9.508,9.508,9.508,9.508,9.508,9.508,9.508,9.508,9.508,9.508,9.508,9.508,9.508,9.508,9.508,9.508,9.508,9.508,9.508,9.508,9.508,9.508,9.508,9.508,9.508,9.508,9.508,9.508,9.508,9.508,9.508,9.508,9.508,9.508,9.508,9.508,9.508,9.508,9.508,9.508,9.508,7.8095,7.7488,7.6918,7.434,7.3732,7.377,0.0,0.0,7.498,0.0,0.0,0.0,0.0,0.0,0.0,0.0,0.0,0.0,0.0,7.483,7.7336,7.9841,8.231,8.4134,8.5005,8.4399,8.5954,9.0885,8.9751,9.0629,9.4852,9.5042,9.5042,9.508,9.508,9.508,9.508,9.508,9.508,9.508,9.508,9.508,9.508,9.508,9.508,9.508,9.508,9.508,9.508,9.508,9.508,9.508,9.508,9.508,9.508,9.508,9.508,9.508,9.508,9.508,9.508,9.508,9.508,9.508,9.508,9.508,9.508,9.508,9.508,9.508,9.508,9.508,9.508,9.508,9.508,9.508,9.508,9.508,9.508,9.508,9.508,9.508,9.508,9.508,9.508,9.508,9.508,9.508,9.508,9.508,9.508,9.508,9.508,9.508,9.508,9.508,9.508,9.508,9.508,9.508,9.508,9.508,9.508,9.508,9.508,9.508,9.508,9.508,9.508,9.508,9.508,9.508,7.5134,7.5665,7.6273,0.0,0.0,0.0,0.0,0.0,0.0,0.0,0.0,0.0,0.0,0.0,7.479,0.0,0.0,7.7374,7.6311,7.8817,8.098,8.1702,8.2994,8.4817,8.7514,8.759,8.8953,9.275,9.0396,9.0629,9.4852,9.4427,9.4389,9.5042,9.508,9.508,9.508,9.508,9.508,9.508,9.508,9.508,9.508,9.508,9.508,9.508,9.508,9.508,9.508,9.508,9.508,9.508,9.508,9.508,9.508,9.508,9.508,9.508,9.508,9.508,9.508,9.508,9.508,9.508,9.508,9.508,9.508,9.508,9.508,9.508,9.508,9.508,9.508,9.508,9.508,9.508,9.508,9.508,9.508,9.508,9.508,9.508,9.508,9.508,9.508,9.508,9.508,9.508,9.508,9.508,9.508,9.508,9.508,9.508,9.508,9.508,9.508,9.508,9.508,9.508,9.508,9.508,9.508,9.508,9.508,9.508,9.508,9.508,9.508,9.508,9.508,9.508,0.0,0.0,0.0,0.0,0.0,0.0,7.3726,0.0,7.3391,0.0,0.0,0.0,0.0,0.0,0.0,0.0,7.7488,7.8893,7.7716,8.0715,8.3259,8.394,8.5423,8.7017,8.8654,8.8844,9.0059,9.2978,9.0776,9.0705,9.3819,9.3819,9.3927,9.4465,9.489,9.508,9.508,9.508,9.508,9.508,9.508,9.508,9.508,9.508,9.508,9.508,9.508,9.508,9.508,9.508,9.508,9.508,9.508,9.508,9.508,9.508,9.508,9.508,9.508,9.508,9.508,9.508,9.508,9.508,9.508,9.508,9.508,9.508,9.508,9.508,9.508,9.508,9.508,9.508,9.508,9.508,9.508,9.508,9.508,9.508,9.508,9.508,9.508,9.508,9.508,9.508,9.508,9.508,9.508,9.508,9.508,9.508,9.508,9.508,9.508,9.508,9.508,9.508,9.508,9.508,9.508,9.508,9.508,9.508,9.508,9.508,9.508,9.508,9.508,9.508,9.508,9.508,0.0,0.0,0.0,0.0,7.3087,0.0,0.0,0.0,7.3884,7.4529,0.0,7.5663,7.5967,0.0,0.0,7.4909,7.8171,8.0221,7.8627,8.1931,8.5045,8.6524,8.865,8.9713,8.9033,8.8957,8.9907,9.2224,9.089,9.0738,9.2452,9.3092,9.3509,9.3699,9.4465,9.4966,9.508,9.508,9.508,9.508,9.508,9.508,9.508,9.508,9.508,9.508,9.508,9.508,9.508,9.508,9.508,9.508,9.508,9.508,9.508,9.508,9.508,9.508,9.508,9.508,9.508,9.508,9.508,9.508,9.508,9.508,9.508,9.508,9.508,9.508,9.508,9.508,9.508,9.508,9.508,9.508,9.508,9.508,9.508,9.508,9.508,9.508,9.508,9.508,9.508,9.508,9.508,9.508,9.508,9.508,9.508,9.508,9.508,9.508,9.508,9.508,9.508,9.508,9.508,9.508,9.508,9.508,9.508,9.508,9.508,9.508,9.508,9.508,9.508,9.508,9.508,9.508,0.0,0.0,0.0,0.0,0.0,7.3198,0.0,0.0,0.0,7.9766,7.988,7.9727,8.1703,8.1474,8.117,8.1702,8.3716,8.4739,8.3676,8.6562,8.8915,8.9257,8.9713,8.9941,8.9789,8.9789,9.0244,9.134,9.0548,9.0738,9.2452,9.1947,9.2289,9.3661,9.3851,9.4313,9.5042,9.508,9.508,9.508,9.508,9.508,9.508,9.508,9.508,9.508,9.508,9.508,9.508,9.508,9.508,9.508,9.508,9.508,9.508,9.508,9.508,9.508,9.508,9.508,9.508,9.508,9.508,9.508,9.508,9.508,9.508,9.508,9.508,9.508,9.508,9.508,9.508,9.508,9.508,9.508,9.508,9.508,9.508,9.508,9.508,9.508,9.508,9.508,9.508,9.508,9.508,9.508,9.508,9.508,9.508,9.508,9.508,9.508,9.508,9.508,9.508,9.508,9.508,9.508,9.508,9.508,9.508,9.508,9.508,9.508,9.508,9.508,9.508,9.508,9.508,9.508,0.0,0.0,0.0,7.2514,0.0,0.0,0.0,7.3729,7.4757,7.8514,7.9348,8.0032,8.212,8.2841,8.3259,8.3716,8.5537,8.7014,8.7435,8.8953,9.0016,9.0016,9.0016,9.0016,9.0016,9.0016,9.0168,9.0543,9.0202,9.0358,9.1193,9.1188,9.1758,9.3054,9.3509,9.4161,9.5042,9.508,9.508,9.508,9.508,9.508,9.508,9.508,9.508,9.508,9.508,9.508,9.508,9.508,9.508,9.508,9.508,9.508,9.508,9.508,9.508,9.508,9.508,9.508,9.508,9.508,9.508,9.508,9.508,9.508,9.508,9.508,9.508,9.508,9.508,9.508,9.508,9.508,9.508,9.508,9.508,9.508,9.508,9.508,9.508,9.508,9.508,9.508,9.508,9.508,9.508,9.508,9.508,9.4655,9.4389,9.4389,9.4009,9.3933,9.4351,9.4389,9.4579,9.5042,9.508,9.508,9.508,9.508,9.508,9.508,9.508,9.508,9.508,9.508,9.508,9.508,9.508,9.508,7.1219,7.1675,0.0,0.0,0.0,0.0,7.2966,7.3881,7.5364,7.7905,7.9462,8.0942,8.2651,8.4056,8.5007,8.5007,8.6676,8.8418,8.9827,9.0016,9.0016,9.0016,9.0016,9.0016,9.0016,9.0016,9.0016,9.0016,9.0016,9.0016,9.0016,9.0581,9.134,9.2219,9.2864,9.3699,9.4769,9.4769,9.489,9.508,9.508,9.508,9.508,9.508,9.508,9.508,9.508,9.508,9.508,9.508,9.508,9.508,9.508,9.508,9.508,9.508,9.508,9.508,9.508,9.508,9.508,9.508,9.508,9.508,9.508,9.508,9.508,9.508,9.508,9.508,9.508,9.508,9.508,9.508,9.508,9.508,9.508,9.508,9.508,9.508,9.508,9.508,9.508,9.508,9.508,9.508,9.508,9.508,9.508,9.4427,9.3889,9.3737,9.313,9.2984,9.3433,9.3471,9.3813,9.4731,9.4769,9.4845,9.5042,9.508,9.508,9.508,9.508,9.508,9.508,9.508,9.508,9.508,9.508,9.508,6.9938,7.0768,7.1789,7.3087,7.297,0.0,7.8094,7.8627,7.969,8.5117,8.6369,8.7014,8.8726,8.9181,8.9295,8.9295,8.9561,8.9789,8.9979,9.0016,9.0016,9.0016,9.0016,9.0016,9.0016,9.0016,9.0016,9.0016,9.0016,9.0016,9.0016,9.0092,9.0467,9.1302,9.1416,9.2213,9.3851,9.3851,9.4275,9.508,9.508,9.508,9.508,9.508,9.508,9.508,9.508,9.508,9.508,9.508,9.508,9.508,9.508,9.508,9.508,9.508,9.508,9.508,9.508,9.508,9.508,9.508,9.508,9.508,9.508,9.508,9.508,9.508,9.508,9.508,9.508,9.508,9.508,9.508,9.508,9.508,9.508,9.508,9.508,9.508,9.508,9.508,9.508,9.508,9.508,9.508,9.508,9.508,9.508,9.4966,9.4579,9.3775,9.3623,9.332,9.2718,9.268,9.2978,9.3813,9.3851,9.4193,9.5042,9.508,9.508,9.508,9.508,9.508,9.508,9.508,9.508,9.508,9.508,9.508,6.9059,6.9895,7.0844,7.2021,0.0,0.0,7.7108,7.8323,7.9842,8.3751,8.5306,8.6483,8.819,8.9333,9.0016,9.0016,9.0016,9.0016,9.0016,9.0016,9.0016,9.0016,9.0016,9.0016,9.0016,9.0016,9.0016,9.0016,9.0016,9.0016,9.0016,9.0016,9.0353,9.115,9.1188,9.1758,9.2978,9.3016,9.3478,9.4275,9.4275,9.4541,9.508,9.508,9.508,9.508,9.508,9.508,9.508,9.508,9.508,9.508,9.508,9.508,9.508,9.508,9.508,9.508,9.508,9.508,9.508,9.508,9.508,9.508,9.508,9.508,9.508,9.508,9.508,9.508,9.508,9.508,9.508,9.508,9.508,9.508,9.508,9.508,9.508,9.508,9.508,9.508,9.508,9.508,9.508,9.508,9.508,9.508,9.508,9.4579,9.3971,9.3092,9.3016,9.2674,9.1839,9.2219,9.268,9.2978,9.3016,9.3357,9.4193,9.4275,9.4503,9.5042,9.508,9.508,9.508,9.508,9.508,9.508,9.508,9.508,6.8262,0.0,0.0,0.0,0.0,0.0,7.7678,7.9082,8.0487,8.2992,8.4623,8.6065,8.7545,8.9029,9.0016,9.0016,9.0016,9.0016,9.0016,9.0016,9.0016,9.0016,9.0016,9.0016,9.0016,9.0016,9.0016,9.0016,9.0016,9.0016,9.0016,9.0016,9.0282,9.0809,9.0847,9.1264,9.2143,9.2143,9.256,9.3357,9.3357,9.3813,9.4655,9.4655,9.4807,9.508,9.508,9.4928,9.4693,9.4966,9.508,9.508,9.508,9.508,9.508,9.508,9.508,9.508,9.508,9.508,9.508,9.508,9.508,9.508,9.508,9.508,9.508,9.508,9.508,9.508,9.508,9.508,9.508,9.508,9.508,9.508,9.508,9.508,9.508,9.508,9.508,9.5004,9.4693,9.489,9.4966,9.4693,9.4655,9.4655,9.4655,9.3889,9.313,9.2604,9.2528,9.2219,9.1568,9.2143,9.2528,9.2528,9.2528,9.2794,9.3357,9.3357,9.3819,9.4655,9.4655,9.4769,9.508,9.4769,9.4769,9.508,9.508,9.508,0.0,0.0,0.0,7.5248,7.6083,7.7412,8.2424,8.2917,8.3068,8.565,8.6824,8.7659,8.8616,8.9447,9.0016,9.0016,9.0016,9.0016,9.0016,9.0016,9.0016,9.0016,9.0016,9.0016,9.0016,9.0016,9.0016,9.0016,9.0016,9.0016,9.0016,9.0016,9.0016,9.0054,9.0054,9.0391,9.1226,9.1226,9.1687,9.2566,9.2566,9.294,9.3737,9.3737,9.4237,9.508,9.508,9.4541,9.3813,9.4655,9.508,9.508,9.508,9.508,9.508,9.508,9.508,9.508,9.508,9.508,9.508,9.508,9.508,9.508,9.508,9.508,9.508,9.508,9.508,9.508,9.508,9.508,9.508,9.508,9.508,9.508,9.508,9.508,9.508,9.508,9.508,9.4814,9.3889,9.4465,9.4731,9.3851,9.3737,9.3737,9.3737,9.3016,9.2566,9.2528,9.2528,9.2528,9.249,9.2528,9.2528,9.2528,9.2528,9.2528,9.2566,9.2566,9.2946,9.3737,9.3737,9.4155,9.508,9.4155,9.4155,9.508,9.508,9.508,6.8832,7.0578,7.2894,7.6273,7.798,7.95,8.2272,8.3485,8.432,8.5233,8.6106,8.6979,8.7777,8.8612,8.9413,8.9903,9.0016,9.0016,9.0016,9.0016,9.0016,9.0016,9.0016,9.0016,9.0016,9.0016,9.0016,9.0016,9.0016,9.0016,9.0016,9.0016,9.0016,9.0016,9.0016,9.013,9.0353,9.0353,9.0771,9.1606,9.1606,9.2105,9.2902,9.2902,9.3098,9.3402,9.3933,9.3965,9.3737,9.4003,9.4503,9.508,9.508,9.508,9.508,9.508,9.508,9.508,9.508,9.508,9.508,9.508,9.508,9.508,9.508,9.508,9.508,9.508,9.508,9.508,9.508,9.508,9.508,9.508,9.508,9.508,9.508,9.508,9.508,9.508,9.4541,9.4041,9.3737,9.3553,9.344,9.3661,9.3699,9.3699,9.3699,9.4009,9.3743,9.2642,9.3516,9.3743,9.2642,9.2978,9.3054,9.2566,9.1953,9.1915,9.2528,9.2528,9.268,9.2946,9.3433,9.3585,9.3364,9.3098,9.3098,9.3364,9.3364,9.3364,6.9933,7.1679,7.3805,7.7526,7.95,8.1019,8.2878,8.417,8.4967,8.4967,8.5688,8.6562,8.7318,8.7966,8.8688,8.9827,9.0016,9.0016,9.0016,9.0016,9.0016,9.0016,9.0016,9.0016,9.0016,9.0016,9.0016,9.0016,9.0016,9.0016,9.0016,9.0016,9.0016,9.0016,9.0016,9.0016,9.0016,9.0016,9.0282,9.0733,9.0733,9.1231,9.2029,9.2029,9.2219,9.2528,9.2712,9.2782,9.2826,9.3168,9.3819,9.4579,9.4579,9.4769,9.508,9.508,9.508,9.508,9.508,9.508,9.508,9.508,9.508,9.508,9.508,9.508,9.508,9.508,9.508,9.508,9.508,9.508,9.508,9.508,9.508,9.508,9.508,9.508,9.4966,9.4617,9.4123,9.3509,9.2902,9.2636,9.2604,9.2744,9.2782,9.294,9.3244,9.3288,9.306,9.2566,9.3212,9.3364,9.2604,9.3022,9.2902,9.2105,9.1801,9.1801,9.2029,9.2029,9.2181,9.2528,9.2712,9.2712,9.2528,9.2181,9.2224,9.2528,9.2528,9.2528,7.0725,7.2628,7.4871,7.912,8.0715,8.193,8.436,8.4929,8.4967,8.4967,8.565,8.6486,8.728,8.7431,8.8001,8.9675,8.9979,9.0016,9.0016,9.0016,9.0016,9.0016,9.0016,9.0016,9.0016,9.0016,9.0016,9.0016,9.0016,9.0016,9.0016,9.0016,9.0016,9.0016,9.0016,9.0016,9.0016,9.0016,9.0016,9.0016,9.0016,9.0353,9.1112,9.1112,9.1611,9.2376,9.1454,9.115,9.1226,9.2105,9.2902,9.3623,9.3623,9.4199,9.5004,9.5004,9.5042,9.508,9.508,9.508,9.508,9.508,9.508,9.508,9.508,9.508,9.508,9.508,9.508,9.508,9.508,9.508,9.508,9.508,9.508,9.508,9.508,9.508,9.4769,9.3851,9.3623,9.3048,9.1454,9.1839,9.2105,9.1302,9.1188,9.1492,9.2414,9.1117,9.0738,9.2376,9.1763,9.1568,9.2452,9.2528,9.2143,9.1302,9.1991,9.2067,9.1226,9.1226,9.1606,9.2452,9.1606,9.1568,9.2452,9.1568,9.1606,9.2452,9.2414,9.2414,7.1907,7.4757,7.726,8.0221,8.155,8.246,8.3752,8.4511,8.4967,8.4967,8.5119,8.5575,8.6448,8.709,8.7811,8.8957,8.9599,9.0016,9.0016,9.0016,9.0016,9.0016,9.0016,9.0016,9.0016,9.0016,9.0016,9.0016,9.0016,9.0016,9.0016,9.0016,9.0016,9.0016,9.0016,9.0016,9.0016,9.0016,9.0016,9.0016,9.0016,9.013,9.0278,9.0278,9.0434,9.0624,9.0396,9.0619,9.1188,9.1416,9.2029,9.2788,9.2788,9.332,9.4041,9.4041,9.4465,9.508,9.508,9.508,9.508,9.508,9.508,9.508,9.508,9.508,9.508,9.508,9.508,9.508,9.508,9.508,9.508,9.508,9.508,9.508,9.508,9.508,9.4769,9.3851,9.2712,9.1682,9.1264,9.0847,9.0776,9.1112,9.1188,9.1492,9.2414,9.2148,9.2072,9.249,9.2294,9.2256,9.2528,9.2528,9.2452,9.2181,9.1763,9.1416,9.1145,9.1839,9.1953,9.1492,9.1302,9.1302,9.1492,9.1302,9.1302,9.1492,9.0928,9.0624,7.1793,7.5058,7.8133,8.0639,8.1815,8.265,8.3564,8.436,8.4967,8.4967,8.4967,8.5233,8.6144,8.6635,8.7397,8.8616,8.9223,8.9599,8.9941,9.0016,9.0016,9.0016,9.0016,9.0016,9.0016,9.0016,9.0016,9.0016,9.0016,9.0016,9.0016,9.0016,9.0016,9.0016,9.0016,9.0016,9.0016,9.0016,9.0016,9.0016,9.0016,9.0016,9.0016,9.0016,9.0016,9.0016,9.0016,9.0244,9.0657,9.0657,9.1193,9.1915,9.1915,9.2446,9.3168,9.3168,9.3699,9.4465,9.4465,9.4693,9.508,9.508,9.508,9.508,9.508,9.508,9.508,9.508,9.508,9.508,9.508,9.508,9.508,9.508,9.508,9.508,9.508,9.508,9.4769,9.3851,9.2327,9.1074,9.0695,9.032,9.0168,9.0581,9.0657,9.1004,9.1839,9.1611,9.1535,9.1877,9.1611,9.1426,9.1426,9.1426,9.1426,9.1426,9.1264,9.1188,9.1188,9.1644,9.1725,9.1188,9.1188,9.1188,9.1188,9.1188,9.0999,9.0657,9.0543,9.0358,7.1637,7.4714,7.8133,8.0487,8.1663,8.246,8.326,8.4172,8.4777,8.4777,8.4777,8.5081,8.5954,8.622,8.6789,8.8274,8.8692,8.9071,8.9751,8.9941,9.0016,9.0016,9.0016,9.0016,9.0016,9.0016,9.0016,9.0016,9.0016,9.0016,9.0016,9.0016,9.0016,9.0016,9.0016,9.0016,9.0016,9.0016,9.0016,9.0016,9.0016,9.0016,9.0016,9.0016,9.0016,9.0016,9.0016,9.0016,9.0016,9.0016,9.0434,9.0999,9.0999,9.1573,9.2376,9.2376,9.2826,9.3547,9.3547,9.4117,9.489,9.489,9.4966,9.508,9.508,9.508,9.508,9.508,9.508,9.508,9.508,9.508,9.508,9.508,9.508,9.508,9.508,9.4966,9.4579,9.3699,9.2251,9.0923,9.013,9.0016,9.0016,9.0016,9.0016,9.032,9.1074,9.0467,9.0278,9.1074,9.0467,9.0016,9.0016,9.0016,9.0016,9.0016,9.0619,9.0999,9.0999,9.1112,9.1112,9.1037,9.1112,9.1188,9.1188,9.1188,9.0809,9.0168,9.0733,9.0619,7.4375,7.6425,7.8018,7.9841,8.0905,8.1512,8.1664,8.288,8.3982,8.3982,8.3982,8.4248,8.5043,8.5802,8.641,8.6676,8.7932,8.8882,8.9033,8.9599,9.0016,9.0016,9.0016,9.0016,9.0016,9.0016,9.0016,9.0016,9.0016,9.0016,9.0016,9.0016,9.0016,9.0016,9.0016,9.0016,9.0016,9.0016,9.0016,9.0016,9.0016,9.0016,9.0016,9.0016,9.0016,9.0016,9.0016,9.0016,9.0016,9.0016,9.0092,9.0206,9.0206,9.07,9.1416,9.1416,9.1991,9.2756,9.2756,9.3244,9.3927,9.3927,9.4427,9.508,9.508,9.508,9.508,9.508,9.508,9.508,9.508,9.508,9.508,9.508,9.508,9.508,9.508,9.4465,9.3699,9.2908,9.1915,9.0923,9.013,9.0016,9.0016,9.0016,9.0016,9.032,9.1074,9.0467,9.0278,9.1074,9.0467,9.0016,9.0016,9.0016,9.0016,9.0016,9.013,9.0206,9.0206,9.0809,9.0847,9.0244,9.0847,9.1188,9.1188,9.1188,9.1112,9.0961,9.0472,9.013,7.3118,7.5587,7.7754,7.8588,7.9994,8.1246,8.1246,8.2196,8.2955,8.2576,8.3184,8.3906,8.4286,8.5005,8.5764,8.622,8.7321,8.827,8.8768,8.9527,9.0016,9.0016,9.0016,9.0016,9.0016,9.0016,9.0016,9.0016,9.0016,9.0016,9.0016,9.0016,9.0016,9.0016,9.0016,9.0016,9.0016,9.0016,9.0016,9.0016,9.0016,9.0016,9.0016,9.0016,9.0016,9.0016,9.0016,9.0016,9.0016,9.0016,9.0016,9.0016,9.0016,9.0244,9.0543,9.0543,9.1074,9.1839,9.1839,9.237,9.3092,9.3092,9.3402,9.3705,9.3705,9.4009,9.4351,9.4351,9.4655,9.508,9.508,9.508,9.508,9.508,9.508,9.4928,9.4465,9.4003,9.332,9.2067,9.1454,9.0923,9.013,9.0016,9.0016,9.0016,9.0016,9.013,9.0505,9.0244,9.0168,9.0505,9.0202,9.0016,9.0016,9.0016,9.0016,9.0016,9.0016,9.0016,9.0016,9.0353,9.0396,9.0016,9.0353,9.0543,9.0543,9.0961,9.0961,9.0543,9.108,9.108,7.2245,7.502,7.7867,7.8019,7.9424,8.0753,8.0943,8.1474,8.1777,8.136,8.2272,8.3336,8.3716,8.4286,8.4967,8.5878,8.6713,8.7507,8.8426,8.9219,8.9789,8.9979,9.0016,9.0016,9.0016,9.0016,9.0016,9.0016,9.0016,9.0016,9.0016,9.0016,9.0016,9.0016,9.0016,9.0016,9.0016,9.0016,9.0016,9.0016,9.0016,9.0016,9.0016,9.0016,9.0016,9.0016,9.0016,9.0016,9.0016,9.0016,9.0016,9.0016,9.0016,9.0016,9.0016,9.0016,9.0353,9.0923,9.0923,9.1497,9.2219,9.2219,9.2376,9.2528,9.2528,9.2984,9.3471,9.3661,9.4237,9.4769,9.5004,9.508,9.508,9.508,9.508,9.4769,9.3889,9.3699,9.3206,9.1492,9.1188,9.0923,9.013,9.0016,9.0016,9.0016,9.0016,9.0016,9.0016,9.0016,9.0016,9.0016,9.0016,9.0016,9.0016,9.0016,9.0016,9.0016,9.0016,9.0016,9.0016,9.0016,9.0016,9.0016,9.0016,9.0016,9.0016,9.0619,9.0581,9.0054,9.1535,9.1839,7.5134,7.7148,7.8817,7.9652,7.9386,7.9159,7.9993,8.0221,8.0487,8.1133,8.136,8.193,8.3488,8.383,8.4172,8.4929,8.584,8.6713,8.7469,8.8384,8.9223,8.9903,9.0016,9.0016,9.0016,9.0016,9.0016,9.0016,9.0016,9.0016,9.0016,9.0016,9.0016,9.0016,9.0016,9.0016,9.0016,9.0016,9.0016,9.0016,9.0016,9.0016,9.0016,9.0016,9.0016,9.0016,9.0016,9.0016,9.0016,9.0016,9.0016,9.0016,9.0016,9.0016,9.0016,9.0016,9.0054,9.013,9.013,9.0619,9.1302,9.1302,9.1839,9.2528,9.2528,9.2604,9.2794,9.3509,9.3775,9.4003,9.4807,9.508,9.508,9.508,9.508,9.4769,9.3889,9.3699,9.3206,9.1492,9.1188,9.0923,9.013,9.0016,9.0016,9.0016,9.0016,9.0016,9.0016,9.0016,9.0016,9.0016,9.0016,9.0016,9.0016,9.0016,9.0016,9.0016,9.0016,9.0016,9.0016,9.0016,9.0016,9.0016,9.0016,9.0016,9.0016,9.0092,9.0092,9.0016,9.0885,9.1264,6.998,7.2894,7.5668,7.5514,7.7146,7.8817,7.9196,7.9272,7.95,8.0373,8.1284,8.2005,8.2196,8.3108,8.3868,8.421,8.5385,8.641,8.6751,8.7511,8.8346,8.9223,8.9299,8.9447,8.9979,9.0016,9.0016,9.0016,9.0016,9.0016,9.0016,9.0016,9.0016,9.0016,9.0016,9.0016,9.0016,9.0016,9.0016,9.0016,9.0016,9.0016,9.0016,9.0016,9.0016,9.0016,9.0016,9.0016,9.0016,9.0016,9.0016,9.0016,9.0016,9.0016,9.0016,9.0016,9.0016,9.0016,9.0016,9.0206,9.0467,9.0467,9.07,9.1004,9.1004,9.173,9.2604,9.2864,9.3743,9.4579,9.4966,9.508,9.508,9.508,9.508,9.4769,9.3889,9.332,9.2636,9.1416,9.0771,9.0396,9.0054,9.0016,9.0016,9.0016,9.0016,9.0016,9.0016,9.0016,9.0016,9.0016,9.0016,9.0016,9.0016,9.0016,9.0016,9.0016,9.0016,9.0016,9.0016,9.0016,9.0016,9.0016,9.0016,9.0016,9.0016,9.0016,9.0016,9.0016,9.0809,9.1188,6.6711,6.9654,7.2684,7.2553,7.4966,7.746,7.8211,7.8172,7.8362,7.9803,8.0943,8.1625,8.1322,8.2423,8.3488,8.3716,8.4967,8.5992,8.6258,8.6748,8.7549,8.8692,8.8844,8.9147,8.9941,9.0016,9.0016,9.0016,9.0016,9.0016,9.0016,9.0016,9.0016,9.0016,9.0016,9.0016,9.0016,9.0016,9.0016,9.0016,9.0016,9.0016,9.0016,9.0016,9.0016,9.0016,9.0016,9.0016,9.0016,9.0016,9.0016,9.0016,9.0016,9.0016,9.0016,9.0016,9.0016,9.0016,9.0016,9.0016,9.0016,9.0016,9.0016,9.0016,9.0016,9.0814,9.1882,9.2414,9.3364,9.4389,9.4928,9.508,9.508,9.508,9.508,9.4769,9.3889,9.3244,9.2522,9.1378,9.0733,9.0282,9.0054,9.0016,9.0016,9.0016,9.0016,9.0016,9.0016,9.0016,9.0016,9.0016,9.0016,9.0016,9.0016,9.0016,9.0016,9.0016,9.0016,9.0016,9.0016,9.0016,9.0016,9.0016,9.0016,9.0016,9.0016,9.0016,9.0016,9.0016,9.0809,9.1188,6.7607,6.9069,7.0773,7.2283,7.3281,7.4545,7.7038,7.688,7.6956,7.9538,8.0107,8.0335,8.1095,8.1891,8.2726,8.364,8.4436,8.5271,8.6182,8.6296,8.6941,8.8654,8.8844,8.9147,8.9941,9.0016,9.0016,9.0016,9.0016,9.0016,9.0016,9.0016,9.0016,9.0016,9.0016,9.0016,9.0016,9.0016,9.0016,9.0016,9.0016,9.0016,9.0016,9.0016,9.0016,9.0016,9.0016,9.0016,9.0016,9.0016,9.0016,9.0016,9.0016,9.0016,9.0016,9.0016,9.0016,9.0016,9.0016,9.0016,9.0016,9.0016,9.0016,9.0016,9.0016,9.0016,9.0358,9.2072,9.2528,9.2946,9.4624,9.508,9.508,9.508,9.508,9.4769,9.3889,9.3699,9.3206,9.1492,9.1188,9.0923,9.013,9.0016,9.0016,9.0016,9.0016,9.0016,9.0016,9.0016,9.0016,9.0016,9.0016,9.0016,9.0016,9.0016,9.0016,9.0016,9.0016,9.0016,9.0016,9.0016,9.0016,9.0016,9.0016,9.0016,9.0016,9.0016,9.0016,9.0016,9.0809,9.1188,6.4888,6.7625,7.0321,7.0858,7.2841,7.5188,7.711,7.7754,7.8513,8.0487,8.0449,8.0145,8.0411,8.1095,8.1892,8.2688,8.3562,8.4437,8.5271,8.5385,8.5802,8.6941,8.7093,8.7625,8.9071,8.9223,8.9409,8.9979,9.0016,9.0016,9.0016,9.0016,9.0016,9.0016,9.0016,9.0016,9.0016,9.0016,9.0016,9.0016,9.0016,9.0016,9.0016,9.0016,9.0016,9.0016,9.0016,9.0016,9.0016,9.0016,9.0016,9.0016,9.0016,9.0016,9.0016,9.0016,9.0016,9.0016,9.0016,9.0016,9.0016,9.0016,9.0016,9.0016,9.0016,9.0353,9.0923,9.1416,9.2446,9.332,9.3326,9.3743,9.4117,9.4117,9.4579,9.4769,9.3889,9.3244,9.256,9.1416,9.0733,9.032,9.0054,9.0016,9.0016,9.0016,9.0016,9.0016,9.0016,9.0016,9.0016,9.0016,9.0016,9.0016,9.0016,9.0016,9.0016,9.0016,9.0016,9.0016,9.0016,9.0016,9.0016,9.0016,9.0016,9.0016,9.0016,9.0016,9.0016,9.0016,9.0282,9.0353,6.4651,6.6941,6.8905,7.0678,7.309,7.5473,7.7146,7.7148,7.7375,7.9462,7.9196,7.8816,7.9424,8.0753,8.1853,8.2346,8.3448,8.4284,8.4474,8.4739,8.5271,8.6182,8.6296,8.6827,8.8194,8.8654,8.9033,8.9523,8.9827,9.0016,9.0016,9.0016,9.0016,9.0016,9.0016,9.0016,9.0016,9.0016,9.0016,9.0016,9.0016,9.0016,9.0016,9.0016,9.0016,9.0016,9.0016,9.0016,9.0016,9.0016,9.0016,9.0016,9.0016,9.0016,9.0016,9.0016,9.0016,9.0016,9.0016,9.0016,9.0016,9.0016,9.0016,9.0016,9.0016,9.0316,9.0771,9.1074,9.1909,9.2592,9.2143,9.2636,9.3244,9.3244,9.3705,9.3933,9.3402,9.2598,9.1839,9.1302,9.0548,9.0016,9.0016,9.0016,9.0016,9.0016,9.0016,9.0016,9.0016,9.0016,9.0016,9.0016,9.0016,9.0016,9.0016,9.0016,9.0016,9.0016,9.0016,9.0016,9.0016,9.0016,9.0016,9.0016,9.0016,9.0016,9.0016,9.0016,9.0016,9.0016,9.0016,9.0016,6.6291,6.6868,6.7091,7.1441,7.3774,7.5402,7.7146,7.548,7.4307,7.6956,7.673,7.6656,7.8363,8.0601,8.2195,8.2309,8.3751,8.4587,8.3868,8.4475,8.5271,8.6106,8.622,8.6524,8.7318,8.8156,8.8692,8.8806,8.9527,8.9941,9.0016,9.0016,9.0016,9.0016,9.0016,9.0016,9.0016,9.0016,9.0016,9.0016,9.0016,9.0016,9.0016,9.0016,9.0016,9.0016,9.0016,9.0016,9.0016,9.0016,9.0016,9.0016,9.0016,9.0016,9.0016,9.0016,9.0016,9.0016,9.0016,9.0016,9.0016,9.0016,9.0016,9.0016,9.0016,9.0016,9.0168,9.0885,9.1074,9.1074,9.1074,9.1763,9.2452,9.2452,9.249,9.2528,9.2452,9.1763,9.115,9.1112,9.0467,9.0016,9.0016,9.0016,9.0016,9.0016,9.0016,9.0016,9.0016,9.0016,9.0016,9.0016,9.0016,9.0016,9.0016,9.0016,9.0016,9.0016,9.0016,9.0016,9.0016,9.0016,9.0016,9.0016,9.0016,9.0016,9.0016,9.0016,9.0016,9.0016,9.0016,9.0016,6.5245,6.7613,6.9543,7.0662,7.2553,7.4762,7.7038,7.5123,7.3628,7.6013,7.5952,7.6112,7.8289,7.9197,7.9994,8.1322,8.2955,8.3982,8.3792,8.4475,8.5043,8.5233,8.5271,8.5612,8.6486,8.6751,8.7438,8.873,8.8995,8.9333,8.9979,9.0016,9.0016,9.0016,9.0016,9.0016,9.0016,9.0016,9.0016,9.0016,9.0016,9.0016,9.0016,9.0016,9.0016,9.0016,9.0016,9.0016,9.0016,9.0016,9.0016,9.0016,9.0016,9.0016,9.0016,9.0016,9.0016,9.0016,9.0016,9.0016,9.0016,9.0016,9.0016,9.0016,9.0016,9.0016,9.0054,9.0202,9.0282,9.0282,9.0282,9.0847,9.1492,9.1492,9.2029,9.2332,9.1606,9.1302,9.0999,9.0353,9.013,9.0016,9.0016,9.0016,9.0016,9.0016,9.0016,9.0016,9.0016,9.0016,9.0016,9.0016,9.0016,9.0016,9.0016,9.0016,9.0016,9.0016,9.0016,9.0016,9.0016,9.0016,9.0016,9.0016,9.0016,9.0016,9.0016,9.0016,9.0016,9.0016,9.0016,9.0016,6.7084,6.8992,6.9888,7.021,7.1845,7.3759,7.5411,7.334,7.1947,7.5032,7.4239,7.4036,7.7533,7.8179,7.886,8.0904,8.2309,8.3145,8.3145,8.3866,8.4398,8.4398,8.4739,8.5157,8.565,8.6068,8.6676,8.7628,8.8388,8.9033,8.9409,8.9789,9.0016,9.0016,9.0016,9.0016,9.0016,9.0016,9.0016,9.0016,9.0016,9.0016,9.0016,9.0016,9.0016,9.0016,9.0016,9.0016,9.0016,9.0016,9.0016,9.0016,9.0016,9.0016,9.0016,9.0016,9.0016,9.0016,9.0016,9.0016,9.0016,9.0016,9.0016,9.0016,9.0016,9.0016,9.0016,9.0016,9.0016,9.0016,9.0016,9.0278,9.0619,9.0619,9.1004,9.1231,9.0733,9.0619,9.0505,9.0092,9.0016,9.0016,9.0016,9.0016,9.0016,9.0016,9.0016,9.0016,9.0016,9.0016,9.0016,9.0016,9.0016,9.0016,9.0016,9.0016,9.0016,9.0016,9.0016,9.0016,9.0016,9.0016,9.0016,9.0016,9.0016,9.0016,9.0016,9.0016,9.0016,9.0016,9.0016,9.0016,6.9443,7.002,6.9227,7.0144,7.1166,7.2241,7.3258,7.1051,6.9914,7.3829,7.247,7.1987,7.6665,7.758,7.8372,8.0866,8.1701,8.2119,8.2233,8.3107,8.3792,8.3792,8.4513,8.4967,8.4967,8.565,8.6144,8.6296,8.7625,8.8578,8.8806,8.9447,8.9865,9.0016,9.0016,8.9941,8.9827,8.9941,9.0016,9.0016,9.0016,9.0016,9.0016,9.0016,9.0016,9.0016,9.0016,9.0016,9.0016,9.0016,9.0016,9.0016,9.0016,9.0016,9.0016,9.0016,9.0016,9.0016,9.0016,9.0016,9.0016,9.0016,9.0016,9.0016,9.0016,9.0016,9.0016,9.0016,9.0016,9.0016,9.0016,9.0016,9.0016,9.0016,9.0016,9.0016,9.0016,9.0016,9.0016,9.0016,9.0016,9.0016,9.0016,9.0016,9.0016,9.0016,9.0016,9.0016,9.0016,9.0016,9.0016,9.0016,9.0016,9.0016,9.0016,9.0016,9.0016,9.0016,9.0016,9.0016,9.0016,9.0016,9.0016,9.0016,9.0016,9.0016,9.0016,9.0016,9.0016,9.0016,9.0016,9.0016,6.8437,6.8795,6.8713,7.0679,6.9859,6.9267,7.2069,6.9751,6.8173,7.2103,7.209,7.2638,7.6783,7.758,7.8372,8.0866,8.0829,8.0677,8.1322,8.2804,8.3792,8.3792,8.4513,8.4967,8.4967,8.5081,8.5499,8.6258,8.6524,8.7283,8.8768,8.8957,8.9337,8.9979,9.0016,8.9675,8.9033,8.9675,9.0016,9.0016,9.0016,9.0016,9.0016,9.0016,9.0016,9.0016,9.0016,9.0016,9.0016,9.0016,9.0016,9.0016,9.0016,9.0016,9.0016,9.0016,9.0016,9.0016,9.0016,9.0016,9.0016,9.0016,9.0016,9.0016,9.0016,9.0016,9.0016,9.0016,9.0016,9.0016,9.0016,9.0016,9.0016,9.0016,9.0016,9.0016,9.0016,9.0016,9.0016,9.0016,9.0016,9.0016,9.0016,9.0016,9.0016,9.0016,9.0016,9.0016,9.0016,9.0016,9.0016,9.0016,9.0016,9.0016,9.0016,9.0016,9.0016,9.0016,9.0016,9.0016,9.0016,9.0016,9.0016,9.0016,9.0016,9.0016,9.0016,9.0016,9.0016,9.0016,9.0016,9.0016,6.7771,6.8468,6.868,6.9325,6.8658,6.8449,7.0726,6.8958,6.7861,7.1818,7.135,7.1629,7.6124,7.6613,7.7249,8.0145,8.1019,8.1322,8.1246,8.2309,8.3031,8.3031,8.417,8.4967,8.4967,8.5385,8.565,8.5575,8.603,8.6638,8.7438,8.835,8.8806,8.8608,8.9523,8.9371,8.8118,8.8915,8.9375,8.9413,8.9789,9.0016,9.0016,9.0016,9.0016,9.0016,9.0016,8.9751,8.9375,8.9375,8.9375,8.9375,8.9375,8.9637,9.0016,9.0016,9.0016,9.0016,9.0016,9.0016,9.0016,9.0016,9.0016,9.0016,9.0016,9.0016,9.0016,9.0016,9.0016,9.0016,9.0016,9.0016,9.0016,9.0016,9.0016,9.0016,9.0016,9.0016,9.0016,9.0016,9.0016,9.0016,9.0016,9.0016,9.0016,9.0016,9.0016,9.0016,9.0016,9.0016,9.0016,9.0016,9.0016,9.0016,9.0016,9.0016,9.0016,9.0016,9.0016,9.0016,9.0016,9.0016,9.0016,9.0016,9.0016,9.0016,9.0016,9.0016,9.0016,9.0016,9.0016,9.0016,6.7313,0.0,6.8716,6.8498,6.8299,6.855,0.0,6.8748,6.8356,7.1722,7.1007,7.1053,7.5317,7.5651,7.6243,7.9275,8.075,8.1394,8.1057,8.1664,8.2271,8.2688,8.4056,8.5043,8.5233,8.5688,8.5802,8.5309,8.5726,8.6068,8.6296,8.7511,8.8004,8.7507,8.9143,8.9253,8.7773,8.865,8.9109,8.9109,8.9713,9.0016,9.0016,9.0016,9.0016,9.0016,9.0016,8.9523,8.8844,8.8844,8.873,8.854,8.854,8.8991,8.9713,8.9713,8.9827,9.0016,9.0016,9.0016,9.0016,9.0016,9.0016,9.0016,9.0016,9.0016,9.0016,9.0016,9.0016,9.0016,9.0016,9.0016,9.0016,9.0016,9.0016,9.0016,9.0016,9.0016,9.0016,9.0016,9.0016,9.0016,9.0016,9.0016,9.0016,9.0016,9.0016,9.0016,9.0016,9.0016,9.0016,9.0016,9.0016,9.0016,9.0016,9.0016,9.0016,9.0016,9.0016,9.0016,9.0016,9.0016,9.0016,9.0016,9.0016,9.0016,9.0016,9.0016,9.0016,9.0016,9.0016,9.0016,0.0,6.7523,6.8454,6.9874,6.9642,6.9298,7.0028,6.9568,0.0,7.128,7.1485,7.2201,7.4802,7.5274,7.6041,7.8405,7.8932,7.9273,8.007,8.0867,8.193,8.3488,8.4436,8.5271,8.6144,8.5499,8.5385,8.6144,8.5499,8.5423,8.6258,8.641,8.6789,8.7469,8.9143,8.9599,8.873,8.9523,8.9903,8.9903,8.9979,9.0016,9.0016,9.0016,9.0016,9.0016,9.0016,8.9523,8.8844,8.8844,8.8308,8.7583,8.7583,8.8118,8.892,8.892,8.9413,9.0016,9.0016,9.0016,9.0016,9.0016,9.0016,9.0016,9.0016,9.0016,9.0016,9.0016,9.0016,9.0016,9.0016,9.0016,9.0016,9.0016,9.0016,9.0016,9.0016,9.0016,9.0016,9.0016,9.0016,9.0016,9.0016,9.0016,9.0016,9.0016,9.0016,9.0016,9.0016,9.0016,9.0016,9.0016,9.0016,9.0016,9.0016,9.0016,9.0016,9.0016,9.0016,9.0016,9.0016,9.0016,9.0016,9.0016,9.0016,9.0016,9.0016,9.0016,9.0016,9.0016,9.0016,9.0016,6.6735,6.7728,6.8691,6.8883,6.9081,6.9271,6.948,6.9396,6.9511,7.0574,7.0837,7.1588,7.4027,7.4872,7.6017,7.833,7.9231,7.9874,8.0715,8.105,8.1499,8.2157,8.2917,8.3902,8.5309,8.5157,8.5309,8.622,8.5461,8.5119,8.5461,8.6486,8.6938,8.6751,8.7359,8.7549,8.7245,8.8042,8.8418,8.8418,8.8991,8.9523,9.0016,9.0016,9.0016,9.0016,9.0016,8.9523,0.0,8.8194,8.7773,8.7469,8.7469,8.8042,8.8882,8.9371,8.9751,9.0016,9.0016,9.0016,9.0016,9.0016,9.0016,9.0016,9.0016,9.0016,9.0016,9.0016,9.0016,9.0016,9.0016,9.0016,9.0016,9.0016,9.0016,9.0016,9.0016,9.0016,9.0016,9.0016,9.0016,9.0016,9.0016,9.0016,9.0016,9.0016,9.0016,9.0016,9.0016,9.0016,9.0016,9.0016,9.0016,9.0016,9.0016,9.0016,9.0016,9.0016,9.0016,9.0016,9.0016,9.0016,9.0016,9.0016,9.0016,9.0016,9.0016,9.0016,9.0016,9.0016,9.0016,9.0016,6.6596,6.7931,6.9037,6.8829,6.9339,6.9883,6.9609,6.9582,6.9727,7.0262,7.0371,7.1013,7.325,7.4059,7.5202,7.7611,7.8503,7.9258,8.0294,8.0925,8.1223,8.1245,8.2234,8.3335,8.4436,8.5043,8.5726,8.6638,8.5878,8.5271,8.4967,8.6027,8.6559,8.6296,8.6562,8.6676,8.6676,8.7204,8.7469,8.7507,8.8384,8.9109,8.9637,8.9865,9.0016,8.9979,8.9713,8.9143,8.8308,8.7431,8.6938,8.671,8.6976,8.7511,8.8122,8.8915,8.9371,8.9637,8.9637,8.9789,9.0016,9.0016,9.0016,9.0016,9.0016,9.0016,9.0016,9.0016,9.0016,9.0016,9.0016,9.0016,9.0016,9.0016,9.0016,9.0016,9.0016,9.0016,9.0016,9.0016,9.0016,9.0016,9.0016,9.0016,9.0016,9.0016,9.0016,9.0016,9.0016,9.0016,9.0016,9.0016,9.0016,9.0016,9.0016,9.0016,9.0016,9.0016,9.0016,9.0016,9.0016,9.0016,9.0016,9.0016,9.0016,9.0016,9.0016,9.0016,9.0016,9.0016,9.0016,9.0016,6.6426,6.7999,6.9328,7.0138,7.0962,7.1286,7.0514,7.0332,7.0332,7.0368,7.0368,7.0867,7.2434,7.2719,7.3519,7.5973,7.6416,7.6954,7.8516,8.0202,8.1223,8.1245,8.2766,8.3754,8.3754,8.5271,8.6638,8.7431,8.6751,8.5916,8.5005,8.4967,8.5385,8.6296,8.7052,8.7469,8.7469,8.7469,8.7469,8.7469,8.8346,8.8806,8.8844,8.9599,8.9979,8.9941,8.9185,8.8308,8.7431,8.6638,8.5802,8.5081,8.5954,8.6296,8.641,8.7166,8.8042,8.8806,8.8844,8.9375,8.9979,9.0016,9.0016,9.0016,8.9979,8.9979,9.0016,9.0016,9.0016,9.0016,9.0016,9.0016,9.0016,9.0016,9.0016,9.0016,9.0016,9.0016,9.0016,9.0016,9.0016,9.0016,9.0016,9.0016,9.0016,9.0016,9.0016,9.0016,9.0016,9.0016,9.0016,9.0016,9.0016,9.0016,9.0016,9.0016,9.0016,9.0016,9.0016,9.0016,8.9979,9.0016,9.0016,8.9979,9.0016,9.0016,9.0016,9.0016,9.0016,9.0016,9.0016,9.0016,6.6426,6.7187,6.7736,6.8517,6.8886,6.9185,6.9477,6.9548,6.9691,7.0261,7.0368,7.0867,7.2434,7.3204,7.4267,7.6124,7.6876,7.7563,7.8592,8.0202,8.1223,8.1245,8.2196,8.2613,8.2044,8.3526,8.5347,8.7318,8.6751,8.6182,8.5916,8.5916,8.6296,8.709,8.6786,8.6676,8.6676,8.6676,8.6676,8.6676,8.6941,8.7321,8.789,8.8115,8.8228,8.819,8.7963,8.7697,8.7431,8.6638,8.6486,8.6673,8.641,8.6638,8.7166,8.7394,8.7659,8.7966,8.8616,8.8995,8.9299,8.9827,9.0016,8.9903,8.9375,8.9561,9.0016,9.0016,9.0016,9.0016,9.0016,9.0016,9.0016,9.0016,9.0016,9.0016,9.0016,9.0016,9.0016,9.0016,9.0016,9.0016,9.0016,9.0016,9.0016,9.0016,9.0016,9.0016,9.0016,9.0016,9.0016,9.0016,9.0016,9.0016,9.0016,9.0016,9.0016,9.0016,9.0016,8.9751,8.9223,8.9713,8.9751,8.9185,8.9713,9.0016,9.0016,9.0016,9.0016,9.0016,9.0016,9.0016,6.6129,6.663,6.696,6.7454,6.7782,6.8257,6.9013,6.9192,6.9406,7.0226,7.0368,7.0867,7.2434,7.313,7.4005,7.5588,7.6569,7.7372,7.8136,7.971,8.0887,8.1207,8.1929,8.2233,8.1739,8.2955,8.4511,8.6331,8.6635,8.6638,8.6334,8.6296,8.6524,8.6976,8.6562,8.6296,8.6296,8.5954,8.5764,8.5764,8.6144,8.6562,8.7014,8.7356,8.7469,8.7469,8.7128,8.6976,8.6938,8.6106,8.6068,8.6445,8.6372,8.6331,8.6483,8.6862,8.6976,8.709,8.7625,8.8004,8.8384,8.8798,8.9257,8.9489,8.8957,8.9371,9.0016,9.0016,9.0016,9.0016,9.0016,9.0016,9.0016,9.0016,9.0016,9.0016,9.0016,9.0016,9.0016,9.0016,9.0016,9.0016,9.0016,9.0016,9.0016,9.0016,9.0016,9.0016,9.0016,9.0016,9.0016,9.0016,9.0016,9.0016,9.0016,9.0016,9.0016,9.0016,9.0016,8.9637,8.8882,8.9257,8.9143,8.8308,8.8764,8.8987,8.8987,8.8987,8.9181,8.9523,8.9523,8.9523,6.5665,6.6206,6.6756,6.676,6.7353,6.8128,6.8906,6.9156,6.9406,7.0226,7.0368,7.0867,7.2434,7.2719,7.3181,7.4783,7.5802,7.6684,7.7449,7.9032,8.0401,8.117,8.1853,8.2346,8.2422,8.3183,8.3982,8.4777,8.6407,8.7052,8.6334,8.6296,8.6334,8.641,8.6334,8.6334,8.641,8.5537,8.5081,8.5081,8.584,8.6141,8.6098,8.69,8.72,8.708,8.6445,8.6182,8.6106,8.5309,8.5005,8.5157,8.5878,8.5726,8.5157,8.5916,8.6182,8.6182,8.6258,8.6789,8.7394,8.7469,8.8004,8.8616,8.8616,8.9181,8.9903,8.9903,8.9941,9.0016,9.0016,9.0016,9.0016,9.0016,9.0016,9.0016,9.0016,9.0016,9.0016,9.0016,9.0016,9.0016,9.0016,9.0016,9.0016,9.0016,9.0016,9.0016,9.0016,9.0016,8.9851,8.9511,8.9766,8.9851,8.9435,8.9771,8.9979,8.9903,8.9903,8.9523,8.873,8.8768,8.8384,8.7507,8.7621,8.7697,8.7697,8.7697,8.8118,8.8844,8.8844,8.8768,6.5522,6.5835,6.5972,6.5982,6.6514,6.7296,6.8122,6.8765,6.9406,7.0226,7.0368,7.0867,7.2434,7.2719,7.3181,7.4783,7.5802,7.6684,7.7449,7.9032,8.0401,8.117,8.1398,8.1739,8.2384,8.2574,8.3107,8.3982,8.5575,8.6486,8.6296,8.6296,8.6559,8.7204,8.6638,8.66,8.7204,8.6448,8.603,8.603,8.5499,8.4908,8.4343,8.514,8.5173,8.4606,8.5064,8.5233,8.5233,8.5043,8.5385,8.5954,8.5461,8.5575,8.5954,8.5423,8.5233,8.5347,8.6068,8.641,8.6676,8.728,8.7166,8.6827,8.6827,8.7932,8.9109,8.9109,8.9565,9.0016,9.0016,9.0016,9.0016,9.0016,9.0016,9.0016,9.0016,9.0016,9.0016,9.0016,9.0016,9.0016,9.0016,9.0016,9.0016,9.0016,9.0016,9.0016,9.0016,9.0016,8.8834,8.5889,8.8236,8.8529,8.4975,8.7949,8.9713,8.9147,8.9109,8.865,8.7773,8.8422,8.8384,8.7507,8.876,8.9485,8.9485,8.9485,8.9219,8.8844,8.8844,8.8422,6.5023,6.5415,6.57,6.57,6.6304,6.7089,6.7874,6.8658,6.9406,7.0226,7.0368,7.0867,7.2434,7.2362,7.2753,7.4712,7.5478,7.6095,7.6915,7.8392,7.9759,8.0595,8.1016,8.1436,8.1815,8.2195,8.2612,8.3107,8.4322,8.5121,8.5121,8.5461,8.6068,8.6862,8.6903,8.6903,8.69,8.6903,8.6676,8.6296,8.622,8.5748,8.4965,8.4967,8.4499,8.3798,8.372,8.372,8.372,8.372,8.4019,8.4434,8.3907,8.4019,8.4356,8.3907,8.4002,8.444,8.4892,8.5327,8.5878,8.709,8.7204,8.6862,8.6862,8.7473,8.8194,8.8194,8.8498,8.8915,8.9295,8.9409,8.9523,8.9903,9.0016,9.0016,9.0016,9.0016,9.0016,9.0016,9.0016,9.0016,9.0016,9.0016,9.0016,9.0016,9.0016,9.0016,9.0016,9.0016,8.9255,8.7257,8.8496,8.8502,8.6115,8.8089,8.9299,8.8844,8.9185,8.8991,8.8156,8.8616,8.8384,8.7507,8.8342,8.8802,8.8802,8.8802,8.8802,8.8844,8.8844,8.8578,6.4525,6.5095,6.57,6.57,6.6304,6.7053,6.7696,6.8444,6.9228,6.9976,7.019,7.0617,7.2221,7.197,7.229,7.4641,7.5148,7.5537,7.6486,7.7709,7.885,7.9755,8.0406,8.0941,8.1246,8.1815,8.2271,8.2422,8.3107,8.364,8.3754,8.4437,8.5076,8.5827,8.6783,8.6973,8.6319,8.677,8.677,8.6319,8.6808,8.677,8.624,8.563,8.4846,8.3925,8.3316,8.295,8.2827,8.2827,8.2823,8.2823,8.2827,8.2827,8.2787,8.268,8.3212,8.3944,8.3944,8.451,8.542,8.6812,8.7221,8.7263,8.7428,8.7583,8.7697,8.7697,8.7811,8.8077,8.8802,8.9033,8.9223,8.9865,9.0016,9.0016,9.0016,9.0016,9.0016,9.0016,9.0016,9.0016,9.0016,9.0016,9.0016,9.0016,9.0016,9.0016,9.0016,8.9865,8.9322,8.8012,8.7877,8.7302,8.5857,8.6575,8.732,8.784,8.8441,8.885,8.8802,8.8844,8.8502,8.7697,8.7849,8.7925,8.7925,8.7925,8.8232,8.8844,8.8844,8.8768,6.4346,6.5095,6.57,6.57,6.6304,6.691,6.7017,6.7624,6.8409,6.9192,6.937,6.9833,7.14,7.1614,7.229,7.4641,7.5077,7.5638,7.7165,7.7584,7.8024,7.8778,7.897,7.9612,8.1094,8.136,8.1663,8.2384,8.2536,8.2916,8.3754,8.3868,8.4005,8.4109,8.5664,8.6345,8.6126,8.5568,8.5568,8.6126,8.5527,8.5605,8.6167,8.6826,8.6213,8.465,8.5351,8.5185,8.4442,8.4438,8.4474,8.4474,8.4442,8.4442,8.4364,8.367,8.4027,8.4805,8.4805,8.5373,8.6174,8.6258,8.6268,8.6434,8.7221,8.8042,8.8654,8.8654,8.9143,8.9713,8.9827,8.9827,8.9865,8.9979,9.0016,9.0016,9.0016,9.0016,9.0016,9.0016,9.0016,9.0016,9.0016,9.0016,9.0016,9.0016,9.0016,9.0016,9.0016,8.9413,8.6522,8.0052,8.2125,8.1047,7.3924,7.7475,8.12,8.3785,8.4034,8.5516,8.8718,8.8844,8.8768,8.8654,8.9295,8.9675,8.9675,8.9675,8.9371,8.8844,8.8844,8.8384,6.3135,6.4133,6.5059,6.5059,6.5984,6.6875,6.6875,6.7482,6.8124,6.8479,6.9228,7.0047,7.076,7.1222,7.2005,7.3465,7.3359,7.3652,7.5248,7.5926,7.6537,7.7336,7.8212,7.9008,7.9764,8.0675,8.1398,8.1739,8.1353,8.1919,8.3716,8.3279,8.3455,8.4367,8.4215,8.4774,8.6215,8.6328,8.6043,8.5437,8.5549,8.5302,8.4695,8.4649,8.4153,8.3328,8.3318,8.3323,8.3309,8.3345,8.3303,8.3303,8.3345,8.3345,8.3309,8.2947,8.3344,8.4056,8.4056,8.4673,8.5525,8.5969,8.5728,8.5441,8.5815,8.6238,8.6732,8.718,8.7928,8.8684,8.9181,8.9375,8.9447,8.9903,9.0016,9.0016,9.0016,9.0016,9.0016,9.0016,9.0016,9.0016,9.0016,9.0016,9.0016,9.0016,9.0016,9.0016,9.0016,8.7853,8.5081,8.1789,8.0621,7.8571,7.4982,7.6766,7.8609,7.9949,8.0456,8.2386,8.6187,8.6357,8.7332,8.9485,8.9827,8.9789,8.9375,8.9789,8.9599,8.8844,8.9299,8.9257,6.1955,6.2918,6.399,6.4204,6.5128,6.6019,6.6233,6.6734,6.7234,6.7625,6.8658,6.9513,6.9762,7.0403,7.1258,7.2219,7.2077,7.2327,7.3681,7.4463,7.5172,7.6015,7.7118,7.8065,7.8669,7.9649,8.033,8.033,8.0365,8.1004,8.2442,8.2657,8.3064,8.3664,8.308,8.357,8.5263,8.5661,8.5325,8.4336,8.4889,8.4756,8.3932,8.3348,8.2892,8.2524,8.1937,8.1884,8.221,8.221,8.221,8.221,8.221,8.221,8.221,8.1996,8.2392,8.3103,8.3111,8.3561,8.4262,8.5178,8.5147,8.4817,8.5026,8.5441,8.5998,8.6592,8.7406,8.8266,8.8915,8.9147,8.9299,8.9865,9.0016,9.0016,9.0016,9.0016,9.0016,9.0016,9.0016,9.0016,9.0016,9.0016,9.0016,9.0016,9.0016,9.0016,9.0016,8.7409,8.4746,8.2899,7.9608,7.6797,7.491,7.4895,7.5386,7.6362,7.7862,8.04,8.4212,8.5328,8.7018,8.967,8.9713,8.9295,8.846,8.9067,8.9067,8.8502,8.9067,8.9371,6.131,6.167,6.2494,6.3239,6.3488,6.3738,6.4489,6.4703,6.513,6.6625,6.6982,6.7303,6.8016,6.88,6.9833,7.1329,7.2148,7.2933,7.3753,7.3897,7.4274,7.5178,7.5367,7.6263,7.8518,7.8134,7.7751,7.7751,7.9873,8.0554,7.9083,8.2016,8.2642,8.0243,8.2424,8.3354,8.2618,8.1805,8.1761,8.256,8.2597,8.3375,8.4862,8.482,8.4361,8.3524,8.3441,8.2973,8.221,8.221,8.221,8.221,8.221,8.221,8.2138,8.1389,8.1603,8.2297,8.2296,8.2294,8.2505,8.3423,8.4189,8.4897,8.5787,8.7152,8.8466,8.8503,8.9142,8.9903,8.9941,8.9941,8.9941,8.9979,9.0016,9.0016,9.0016,9.0016,9.0016,9.0016,9.0016,9.0016,9.0016,9.0016,9.0016,9.0016,9.0016,9.0016,9.0016,8.9206,8.5903,7.8827,7.7787,7.4691,6.7639,6.7586,6.9458,7.3099,7.6747,8.04,8.4212,8.7771,8.9467,8.892,8.8882,8.8422,8.7545,8.7583,8.7583,8.7545,8.7583,8.7621,6.0953,6.1238,6.1635,6.2419,6.2989,6.3453,6.3738,6.3776,6.4061,6.513,6.6198,6.6946,6.7232,6.8764,6.9976,7.0047,7.0688,7.1472,7.2255,7.2362,7.2689,7.3488,7.459,7.5591,7.6413,7.5694,7.5836,7.745,7.7898,7.8303,7.8703,7.9408,7.9843,8.0002,8.0848,8.1412,8.1653,8.1845,8.2123,8.2415,8.1807,8.1583,8.1667,8.1667,8.179,8.192,8.192,8.2039,8.221,8.221,8.221,8.221,8.221,8.221,8.2174,8.1924,8.1985,8.2123,8.1651,8.1496,8.1538,8.1872,8.2177,8.2434,8.2769,8.4067,8.5361,8.5361,8.6405,8.7469,8.7493,8.7468,8.7786,8.8941,8.9261,8.9413,8.9903,9.0016,9.0016,9.0016,9.0016,9.0016,9.0016,9.0016,9.0016,9.0016,9.0016,9.0016,9.0016,8.5506,8.133,7.8639,7.399,6.9974,6.7327,6.7328,6.7861,6.8795,7.0124,7.237,7.5753,7.7151,8.0018,8.4512,8.4596,8.5274,8.6751,8.7242,8.7204,8.6751,8.7242,8.7469,6.0312,6.0632,6.0846,6.1599,6.2201,6.2633,6.2918,6.2989,6.3203,6.3987,6.5166,6.6091,6.6091,6.7802,6.9121,6.8871,6.9477,7.0225,7.1008,7.1152,7.1437,7.2183,7.3313,7.4302,7.5145,7.469,7.4906,7.6247,7.6615,7.6979,7.7487,7.7778,7.8218,7.8767,7.9252,7.9771,8.0408,8.0637,8.0929,8.1171,8.0288,7.9746,7.9504,7.979,8.0182,8.0676,8.0676,8.0961,8.1425,8.1425,8.1425,8.1425,8.1425,8.1425,8.1425,8.1425,8.1247,8.0997,8.0747,8.0676,8.0676,8.0676,8.0854,8.1068,8.1068,8.205,8.3198,8.3198,8.4231,8.5361,8.5347,8.5509,8.6093,8.7569,8.7928,8.8163,8.8983,8.9139,8.9257,8.9523,8.9599,8.9675,8.9979,9.0016,9.0016,9.0016,9.0016,9.0016,9.0016,8.4515,8.0137,7.8864,7.3116,6.8779,6.7248,6.7112,6.6873,6.6202,6.7365,6.886,7.0629,7.3375,7.6895,8.122,8.2259,8.3481,8.5057,8.5586,8.5586,8.5057,8.6133,8.6635,5.9286,5.9817,6.0026,6.081,6.0989,6.1203,6.1991,6.2169,6.2383,6.3167,6.3919,6.4489,6.456,6.5772,6.7054,6.7874,6.8658,6.9441,7.0226,7.0297,7.0617,7.14,7.1507,7.2481,7.4851,7.5109,7.4732,7.39,7.606,7.6724,7.5074,7.726,7.7851,7.6214,7.7827,7.8655,7.8655,7.7942,7.7978,7.8691,7.7938,7.7934,7.8755,7.9469,7.9825,7.9825,7.9825,7.9825,7.9825,7.9825,7.9825,7.9825,7.9825,7.9825,7.9825,7.9825,7.9361,7.8786,7.9576,7.9825,7.9825,7.9825,8.0319,8.0961,8.0997,8.1619,8.2359,8.2359,8.2978,8.3678,8.3683,8.4272,8.5033,8.5824,8.6073,8.6359,8.7221,8.7428,8.7735,8.8574,8.8806,8.9033,8.9789,8.9941,8.9979,8.9979,8.9941,8.9941,8.9941,8.6669,8.2806,7.8885,7.5118,7.111,6.6801,6.643,6.6174,6.552,6.8881,7.0449,6.9561,7.733,8.0821,7.9052,8.1788,8.291,8.2207,8.2207,8.2207,8.2284,8.3912,8.4653,5.7739,5.9032,5.9211,5.999,6.0204,6.0382,6.1167,6.1345,6.1595,6.2348,6.2672,6.3206,6.4346,6.5344,6.6304,6.7054,6.7838,6.8658,6.9406,6.9513,6.9798,7.0582,7.1186,7.1831,7.2481,7.2554,7.2657,7.2969,7.4169,7.4675,7.4218,7.5387,7.5817,7.5353,7.6998,7.7551,7.6921,7.7889,7.8216,7.7899,7.7625,7.7688,7.7863,7.8117,7.8224,7.8224,7.8224,7.8224,7.8224,7.8224,7.8148,7.8068,7.8184,7.8224,7.8224,7.8224,7.8041,7.7898,7.8153,7.8224,7.8224,7.8224,7.8367,7.8612,7.9178,7.9912,8.0587,8.0587,8.1183,8.1837,8.1802,8.1966,8.2499,8.3949,8.4798,8.5317,8.5579,8.66,8.738,8.6946,8.7396,8.7887,8.8115,8.8726,8.9147,8.9147,8.8612,8.8152,8.8152,8.5026,8.0376,7.3906,6.9847,6.7074,6.5893,6.517,6.4783,6.4779,6.4687,6.4403,6.3745,6.6138,6.784,6.8671,7.009,7.1621,7.3333,7.3333,7.3333,7.3414,7.6984,7.8325,5.2746,5.5364,5.7452,5.9003,5.9389,5.9526,5.9954,6.0061,6.0275,6.1064,6.1492,6.2098,6.3313,6.4237,6.5092,6.6233,6.6769,6.7446,6.8586,6.8729,6.9014,6.9762,7.0297,7.0545,7.0545,7.1151,7.1721,7.2148,7.2933,7.3503,7.3824,7.4287,7.4676,7.5032,7.6002,7.6253,7.5709,7.668,7.6934,7.6503,7.6503,7.6682,7.7003,7.7003,7.722,7.7581,7.7581,7.6751,7.5364,7.5364,7.4484,7.3285,7.4764,7.5364,7.513,7.3388,7.2772,7.3006,7.4781,7.5364,7.5639,7.7069,7.7581,7.7653,7.8113,7.8327,7.8358,7.8358,7.8674,7.9005,7.9027,7.9548,8.0439,8.1765,8.2664,8.3437,8.3793,8.4645,8.5414,8.559,8.5748,8.6063,8.6773,8.735,8.7451,8.678,8.709,8.7221,8.6517,8.4904,8.0894,7.3116,7.028,6.777,6.4798,6.3684,6.3191,6.3239,6.2028,6.0872,5.9929,6.1868,6.3263,6.395,6.5667,6.7307,6.8824,7.0234,7.095,7.103,7.5678,7.455,4.6896,5.0464,5.459,5.723,5.7895,5.799,0.0,5.8498,5.8783,5.9598,6.0311,6.106,6.2027,6.2704,6.3631,6.5166,6.5522,6.6092,6.7554,6.7839,6.8159,6.8729,6.8871,6.9014,6.9192,7.0475,7.1293,7.14,7.2149,7.2862,7.3574,7.3753,7.418,7.489,7.4997,7.5032,7.5032,7.5032,7.5032,7.5032,7.5032,7.5388,7.6065,7.6065,7.65,7.7256,7.7256,7.5514,7.2608,7.2213,7.0076,6.7312,7.0318,7.1287,7.0503,6.7201,6.5944,6.6561,7.0654,7.2052,7.2614,7.615,7.7256,7.7292,7.7363,7.686,7.6208,7.6318,7.6354,7.6354,7.6354,7.7462,7.8773,7.946,8.0208,8.0999,8.1724,8.2044,8.2551,8.3946,8.376,8.381,8.5339,8.5807,8.5331,8.3453,8.528,8.6378,8.4849,8.4562,8.1698,7.4409,7.2841,6.9743,6.3366,6.1945,6.1295,6.1193,6.0248,5.91,5.7704,6.1567,6.3248,6.2256,6.4824,6.6105,6.6056,6.907,7.0536,7.0655,7.5645,7.1643,0.0,0.0,0.0,0.0,0.0,0.0,0.0,5.7315,5.7993,5.8747,5.9032,5.9781,6.1849,6.1817,6.2027,6.356,6.4379,6.5061,6.6021,6.6698,6.6946,6.6413,6.6946,6.7837,6.9085,6.9477,6.9905,7.0546,7.133,7.1827,7.197,7.3183,7.3931,7.4073,7.4676,7.5032,7.5032,7.5032,7.5032,7.5032,7.5032,7.5104,7.5246,7.5246,7.5353,7.5534,7.5534,7.5146,7.4295,7.1573,6.8465,6.548,6.6088,6.4679,6.2507,6.4446,6.5143,6.5692,6.9191,7.0439,7.099,7.4411,7.5534,7.5641,7.6247,7.6354,7.6354,7.7074,7.7292,7.7292,7.7292,7.7542,7.7835,7.7955,7.8619,7.9046,7.8608,7.9563,8.0429,7.998,8.0888,8.1807,8.2155,8.3834,8.4121,8.1064,8.2187,8.3268,8.2942,7.799,7.3914,7.2317,6.6518,6.2193,6.0783,5.9366,5.8861,5.9658,5.8356,5.7407,5.7134,5.8152,5.8043,5.6485,5.7606,5.7892,5.728,5.7905,5.8272,5.8353,6.2711,6.4229,0.0,0.0,0.0,0.0,0.0,0.0,0.0,0.0,0.0,0.0,0.0,5.8135,6.0102,0.0,6.0957,6.2526,6.3099,6.3634,6.4418,6.5235,6.538,6.4629,6.5558,6.6625,6.7375,6.8159,6.8943,6.9727,7.0154,7.0688,7.1507,7.2255,7.2898,7.3254,7.4038,7.4465,7.4465,7.4819,7.5032,7.5032,7.5032,7.5032,7.5032,7.5032,7.5032,7.5032,7.5032,7.5032,7.4647,6.957,6.445,5.9859,5.9859,5.8836,5.7565,5.9253,6.0947,6.2644,6.4361,6.603,6.8005,7.1367,7.249,7.2905,7.4994,7.5602,7.5709,7.6179,7.6286,7.6286,7.6286,7.661,7.6896,7.6896,7.7533,7.8057,7.7661,7.8216,7.881,7.8731,7.906,7.9549,7.9947,8.1005,8.1141,7.902,8.0192,8.0928,8.0127,7.7234,7.3705,6.972,6.5827,6.204,5.8506,5.7943,5.7742,5.7826,5.6876,5.6152,5.5904,5.5998,5.5675,5.4842,5.5211,5.5211,5.4816,5.6506,5.7157,5.6858,5.7012,5.7598,0.0,0.0,0.0,0.0,0.0,0.0,0.0,0.0,0.0,0.0,0.0,0.0,0.0,0.0,0.0,6.1278,6.1777,6.2205,6.2811,6.3453,6.367,6.3203,6.4415,6.5344,6.5665,6.6841,6.7981,6.8907,6.8978,6.962,7.1008,7.1222,7.1686,7.247,7.3218,7.3646,7.3646,7.4391,7.4819,7.4819,7.4961,0.0,7.5032,7.5032,7.5032,7.5032,7.5032,7.4685,7.3607,6.7453,6.132,5.573,5.4826,5.4503,5.4503,5.4503,5.6224,5.8661,5.9305,6.133,6.4161,6.7584,6.9206,7.0352,7.3092,7.4428,0.0,7.5032,7.5032,7.5032,7.5032,7.5495,7.5958,7.5958,7.6535,7.7078,7.7078,7.7078,7.7236,7.7866,7.7619,7.749,7.8122,7.8237,7.7806,7.6503,7.8151,7.8615,7.5918,7.6078,7.3728,6.6669,6.5181,6.2396,5.6698,5.6699,5.6719,5.6095,5.5534,5.5046,5.4529,5.4503,5.4503,5.4503,5.4333,5.4411,5.4619,5.7264,5.8261,5.7677,5.3953,5.2382,0.0,0.0,0.0,0.0,0.0,0.0,0.0,0.0,0.0,0.0,0.0,0.0,0.0,0.0,0.0,0.0,6.0275,6.1203,6.1274,6.1381,6.1666,6.2276,6.3096,6.4201,6.5558,6.5843,6.6591,6.8053,6.8194,6.8516,6.9441,7.0118,0.0,0.0,0.0,7.2826,7.2826,7.361,7.4002,7.4002,7.4676,7.5032,7.5032,7.5032,7.5032,7.5032,7.5032,7.3301,7.0241,6.6505,6.2684,5.8885,5.4859,5.3266,5.3266,5.3266,5.3505,5.4301,5.7253,0.0,0.0,6.2856,6.6356,6.9383,6.9729,7.2282,7.5032,7.5032,7.5032,7.5032,7.5032,7.5104,7.5175,7.5175,7.5246,7.5356,7.5356,7.5356,7.5356,7.5433,7.5929,7.6354,7.6471,7.6471,7.5416,7.2339,7.5265,7.5559,6.9245,6.8266,6.671,6.279,5.9085,0.0,5.5747,5.4827,5.4477,5.4957,5.4396,5.3784,5.3292,5.3266,5.3266,5.3266,5.2693,5.2927,5.398,5.386,5.3797,5.3666,5.066,4.9822,0.0,0.0,0.0,0.0,0.0,0.0,0.0,0.0,0.0,0.0,0.0,0.0,0.0,0.0,0.0,0.0,5.8042,5.9526,5.9093,5.9384,5.9959,6.0743,6.1559,6.2451,6.3595,6.4094,6.5021,6.6555,6.6698,6.7232,6.8479,6.8836,6.937,7.0154,7.0938,7.1579,7.2005,7.2791,7.3183,7.3183,7.3501,7.3644,7.3644,7.3644,7.3644,7.3603,7.1749,7.015,6.8467,6.3158,6.0123,5.8471,0.0,0.0,0.0,0.0,5.4326,5.5917,5.5393,5.6468,5.8361,5.9804,6.2671,6.5624,6.5669,6.9421,7.3409,7.2001,7.2946,7.4465,7.4926,7.5032,7.5032,7.5032,7.5032,7.5032,7.5032,7.5032,7.5032,7.5032,7.5317,0.0,7.5531,7.5531,7.503,7.3593,7.3248,7.212,6.923,6.6998,6.4451,6.1065,5.9109,5.7278,5.5289,5.4723,0.0,0.0,0.0,5.4333,5.4073,5.4073,0.0,0.0,0.0,5.1771,5.1901,5.1017,0.0,0.0,4.821,4.8019,0.0,0.0,0.0,0.0,0.0,0.0,0.0,0.0,0.0,0.0,0.0,0.0,0.0,0.0,0.0,0.0,5.548,5.6969,5.6613,5.7009,5.7755,5.8946,5.9847,6.0253,5.9917,6.1623,6.3056,6.3846,6.4623,6.5736,6.7339,6.7376,6.7874,6.8871,6.9441,7.0012,7.0545,7.1542,7.2078,7.2078,7.2506,7.2719,7.2719,7.2719,7.2719,7.2533,6.9422,6.7495,6.6207,6.0504,5.7606,5.6452,5.3321,5.2109,5.2109,5.2109,5.3678,5.5432,5.294,5.3717,5.5808,5.5975,5.8358,6.1199,6.1496,6.6197,7.1066,6.9349,7.1119,7.3681,7.4249,7.4391,7.4427,7.4641,7.4712,7.4783,7.4997,7.5032,7.5032,7.5032,7.4854,7.4783,7.4997,7.4264,7.3684,7.3684,7.1523,6.9302,6.7453,6.5871,6.3284,5.8957,5.8471,5.7483,5.5021,5.4645,5.4619,5.4775,5.4645,5.4619,5.4816,5.4333,5.385,5.3368,5.1901,5.0757,0.0,0.0,0.0,0.0,0.0,0.0,0.0,0.0,0.0,0.0,0.0,0.0,0.0,0.0,0.0,0.0,0.0,0.0,0.0,0.0,0.0,0.0,0.0,0.0,5.4028,5.395,5.4605,5.6809,5.8073,5.7545,5.4404,5.8346,6.0697,5.9578,6.1949,6.413,6.5665,6.5772,6.6484,6.8017,6.8088,6.8124,6.8124,6.9655,7.044,7.0475,7.1971,7.2719,7.2719,7.2719,7.2719,7.2533,6.9422,6.6169,6.2903,5.9492,5.6193,5.2969,5.0602,4.9707,4.9707,4.9707,4.9744,4.9818,4.9744,4.9744,4.9934,5.0582,5.3431,5.669,5.7311,6.25,6.8178,6.8098,7.0323,7.2755,7.2753,7.2791,7.2969,7.3717,7.3895,7.4109,7.4854,7.5032,7.5032,7.5032,7.443,7.4145,7.489,7.2296,7.0124,7.0124,7.0046,0.0,6.1028,6.2964,6.2364,5.5716,5.498,5.4939,5.4816,5.424,5.4136,5.479,5.4214,5.4162,5.4816,5.3148,5.2161,5.2161,5.1095,5.0015,4.8834,0.0,0.0,0.0,0.0,0.0,0.0,0.0,0.0,0.0,0.0,0.0,0.0,0.0,0.0,0.0,0.0,0.0,0.0,0.0,0.0,0.0,0.0,0.0,0.0,4.9841,5.0418,5.2101,5.297,5.3204,5.2607,5.5595,5.7042,5.5764,5.9499,6.1717,6.1447,6.3174,6.4632,6.57,6.6235,6.6734,6.7232,6.8301,6.8836,6.8836,6.937,6.9584,6.9584,6.9584,6.9584,6.9441,6.6315,6.3193,6.0002,5.6766,5.3569,5.0668,4.9888,4.9566,4.9566,4.9566,4.9566,4.9566,4.9566,4.9566,4.9629,4.981,5.2243,5.4749,5.2763,5.8231,6.4316,6.0786,6.3788,6.8211,6.8797,6.931,7.0207,7.2552,7.3111,7.3183,7.3468,7.3465,7.3608,7.418,7.1981,6.9922,6.9796,7.1306,7.0946,6.6183,6.6139,6.4998,6.0452,5.8917,5.7334,5.5062,5.4816,5.4816,5.4816,5.4619,5.4567,5.4816,5.4593,5.437,5.4188,5.3576,5.2901,5.2109,5.1395,4.9926,4.7603,0.0,0.0,0.0,0.0,0.0,0.0,0.0,0.0,0.0,0.0,0.0,0.0,0.0,0.0,0.0,0.0,0.0,0.0,0.0,0.0,0.0,0.0,0.0,0.0,0.0,0.0,5.0122,5.073,0.0,4.9772,5.1922,5.2737,5.1167,5.5218,5.7592,5.7108,5.989,6.1842,6.2643,6.4131,6.5128,6.5627,6.6413,6.6913,6.7232,6.7482,6.7767,6.8017,6.8017,6.8017,6.7842,6.4714,6.1696,5.8664,5.5575,5.1977,4.8382,4.8382,4.8382,4.8382,4.8382,4.8382,4.8382,4.8382,4.8382,4.8434,4.8616,5.0221,5.1721,4.984,5.4166,5.8996,5.5734,5.8801,6.3486,6.5337,6.6127,6.7265,7.0632,7.1686,7.1936,7.2256,7.1648,7.127,7.2071,7.0415,6.836,6.6922,6.8315,6.8151,6.3834,6.2793,6.1859,6.0113,5.7971,5.6165,5.4939,5.4816,5.4816,5.4816,5.4816,5.4697,5.4489,5.4489,5.4188,5.3616,5.3342,5.2693,5.1576,5.059,4.8979,0.0,0.0,0.0,0.0,0.0,0.0,0.0,0.0,0.0,0.0,0.0,0.0,0.0,0.0,0.0,0.0,0.0,0.0,0.0,0.0,0.0,0.0,0.0,0.0,0.0,0.0,0.0,5.0372,5.0828,0.0,0.0,0.0,0.0,4.5955,4.9463,5.2014,5.2661,5.5905,5.815,5.9048,6.1707,6.3145,6.3239,6.4061,6.4845,6.5594,6.634,6.7054,6.7803,6.7803,6.7803,6.7628,6.4653,6.1576,5.8499,5.5705,5.1248,4.6209,4.6192,4.6157,4.6192,4.6218,4.6209,4.6244,4.6235,4.627,4.6313,4.6798,4.7282,4.7775,4.833,5.0368,0.0,0.0,5.5397,5.8766,6.233,6.3164,6.4074,6.8198,6.9584,7.0258,7.115,6.9602,6.8164,6.8583,6.9226,6.8783,6.5736,0.0,6.1998,6.2387,5.9968,5.8407,5.939,5.9576,5.839,5.5143,5.479,5.4749,5.4749,5.4764,5.4463,5.3836,5.381,5.359,5.3058,5.2382,5.1525,5.0457,4.8642,0.0,0.0,0.0,0.0,0.0,0.0,0.0,0.0,0.0,0.0,0.0,0.0,0.0,0.0,0.0,0.0,0.0,0.0,0.0,0.0,0.0,0.0,0.0,0.0,0.0,0.0,4.2205,4.2966,4.46,4.4193,4.3182,0.0,0.0,0.0,0.0,0.0,0.0,4.7917,5.105,5.3841,5.5916,5.822,6.0149,6.1599,6.2989,6.3773,6.3952,6.4166,6.4379,6.4525,6.4525,6.4525,6.4492,6.3728,6.0517,5.5609,5.2365,4.8863,4.5525,4.5092,4.4969,4.5021,4.5396,4.5543,4.5595,4.6079,4.627,4.6209,4.5863,4.5577,4.53,4.498,0.0,0.0,0.0,0.0,5.3474,5.7706,5.7439,5.8105,6.6369,6.6787,6.6002,6.8411,6.8446,6.6671,6.2014,6.1098,5.9916,5.613,5.7737,0.0,5.3209,5.5334,5.6899,5.503,5.5565,5.5757,5.4898,5.4411,5.411,5.411,5.376,5.3448,5.3252,5.3252,5.2993,5.2382,5.1459,5.0394,4.925,0.0,0.0,0.0,0.0,0.0,0.0,0.0,0.0,0.0,0.0,0.0,0.0,0.0,0.0,0.0,0.0,0.0,0.0,0.0,0.0,0.0,0.0,0.0,0.0,0.0,0.0,0.0,4.0851,4.2039,4.2836,4.2143,4.1513,0.0,0.0,0.0,0.0,0.0,0.0,0.0,0.0,0.0,5.0925,5.3366,5.5297,5.667,5.8652,5.9811,6.0155,6.1659,6.188,6.1097,6.1444,6.0927,5.9709,5.9709,5.655,5.1206,4.9257,4.6817,4.4116,0.0,0.0,0.0,0.0,4.3415,4.3467,4.3837,4.3974,4.3974,4.3863,0.0,0.0,0.0,0.0,0.0,0.0,0.0,4.8428,5.2501,5.2863,5.4213,6.2303,6.3157,6.2736,6.4635,6.3055,6.0149,5.6469,5.5733,5.4542,5.0833,5.2586,0.0,0.0,0.0,5.3253,5.2434,5.3318,5.4047,5.4047,5.3734,5.3512,5.3512,5.3226,5.2941,5.2641,5.2421,5.1888,5.1019,4.9707,4.834,0.0,0.0,0.0,0.0,0.0,0.0,0.0,0.0,0.0,0.0,0.0,0.0,0.0,0.0,0.0,0.0,0.0,0.0,0.0,0.0,0.0,0.0,0.0,0.0,0.0,0.0,0.0,0.0,0.0,4.3641,4.2868,0.0,0.0,0.0,0.0,0.0,0.0,0.0,0.0,0.0,0.0,0.0,0.0,0.0,4.9938,5.0835,5.2986,5.4482,5.524,5.8223,5.8755,5.723,5.7924,5.6876,5.4434,5.3553,0.0,4.6179,4.6042,0.0,0.0,0.0,0.0,0.0,0.0,0.0,0.0,0.0,0.0,0.0,0.0,0.0,0.0,0.0,0.0,0.0,0.0,0.0,0.0,0.0,0.0,5.1137,5.7102,5.8784,5.9076,5.9204,5.5546,5.1988,5.1232,5.1579,5.0949,0.0,0.0,0.0,0.0,0.0,0.0,5.0875,5.2239,5.3084,5.3084,5.2967,5.2915,5.2915,5.2863,5.2577,5.194,5.1317,5.046,4.9254,4.7759,0.0,0.0,0.0,0.0,0.0,0.0,0.0,0.0,0.0,0.0,0.0,0.0,0.0,0.0,0.0,0.0,0.0,0.0,0.0,0.0,0.0,0.0,0.0,0.0,0.0,0.0,0.0,0.0,0.0,0.0,0.0,0.0,0.0,0.0,0.0,0.0,0.0,0.0,0.0,0.0,0.0,0.0,0.0,0.0,0.0,0.0,0.0,0.0,0.0,0.0,5.178,5.2163,5.2333,5.2459,5.2271,5.1517,4.5901,4.3196,4.2784,4.1774,0.0,0.0,0.0,0.0,0.0,0.0,0.0,0.0,0.0,0.0,0.0,0.0,0.0,0.0,0.0,0.0,0.0,0.0,0.0,0.0,0.0,0.0,4.6402,5.2934,5.3023,5.1085,4.9144,0.0,0.0,0.0,0.0,0.0,0.0,0.0,0.0,0.0,0.0,0.0,4.9695,5.1745,5.3084,5.3084,5.2563,5.2278,5.2278,5.1862,5.1381,5.0873,4.9822,4.873,0.0,0.0,0.0,0.0,0.0,0.0,0.0,0.0,0.0,0.0,0.0,0.0,0.0,0.0,0.0,0.0,0.0,0.0,0.0,0.0,0.0,0.0,0.0,0.0,0.0,0.0,0.0,0.0,0.0,0.0,0.0,0.0,0.0,0.0,0.0,0.0,0.0,0.0,0.0,0.0,0.0,0.0,0.0,0.0,0.0,0.0,0.0,0.0,0.0,0.0,0.0,0.0,0.0,0.0,0.0,0.0,0.0,0.0,4.2038,4.0275,0.0,0.0,0.0,0.0,0.0,0.0,0.0,0.0,0.0,0.0,0.0,0.0,0.0,0.0,0.0,0.0,0.0,0.0,0.0,0.0,0.0,0.0,0.0,0.0,0.0,0.0,0.0,0.0,0.0,0.0,0.0,0.0,0.0,0.0,0.0,0.0,0.0,0.0,0.0,0.0,4.8476,5.0693,5.2161,5.2161,5.1862,5.1706,5.1706,5.1225,5.0524,4.9703,4.8299,0.0,0.0,0.0,0.0,0.0,0.0,0.0,0.0,0.0,0.0,0.0,0.0,0.0,0.0,0.0,0.0,0.0,0.0,0.0,0.0,0.0,0.0,0.0,0.0,0.0,0.0,0.0,0.0,0.0,0.0,0.0,0.0,0.0,0.0,0.0,0.0,0.0,0.0,0.0,0.0,0.0,0.0,0.0,0.0,0.0,0.0,0.0,0.0,0.0,0.0,0.0,0.0,0.0,0.0,0.0,0.0,0.0,0.0,0.0,3.95,3.8718,0.0,0.0,0.0,0.0,0.0,0.0,0.0,0.0,0.0,0.0,0.0,0.0,0.0,0.0,0.0,0.0,0.0,0.0,0.0,0.0,0.0,0.0,0.0,0.0,0.0,0.0,0.0,0.0,0.0,0.0,0.0,0.0,0.0,0.0,0.0,0.0,0.0,0.0,0.0,0.0,4.7428,4.9603,5.0927,5.0927,5.1069,5.1095,5.0953,5.0679,4.9885,4.834,4.679,0.0,0.0,0.0,0.0,0.0,0.0,0.0,0.0,0.0,0.0,0.0,0.0,0.0,0.0,0.0,0.0,0.0,0.0,0.0,0.0,0.0,0.0,0.0,0.0,0.0,0.0,0.0,0.0,0.0,0.0,0.0,0.0,0.0,0.0,0.0,0.0,0.0,0.0,0.0,0.0,0.0,0.0,0.0,0.0,0.0,0.0,0.0,0.0,0.0,0.0,0.0,0.0,0.0,0.0,0.0,0.0,0.0,0.0,0.0,0.0,0.0,0.0,0.0,0.0,0.0,0.0,0.0,0.0,0.0,0.0,0.0,0.0,0.0,0.0,0.0,0.0,0.0,0.0,0.0,0.0,0.0,0.0,0.0,0.0,0.0,0.0,0.0,0.0,0.0,0.0,0.0,0.0,0.0,0.0,0.0,0.0,0.0,0.0,0.0,0.0,0.0,4.6902,4.8668,4.9721,4.9721,5.0264,5.0368,4.9785,5.0212,4.9391,4.6686,0.0,0.0,0.0,0.0,0.0,0.0,0.0,0.0,0.0,0.0,0.0,0.0,0.0,0.0,0.0,0.0,0.0,0.0,0.0,0.0,0.0,0.0,0.0,0.0,0.0,0.0,0.0,0.0,0.0,0.0,0.0,0.0,0.0,0.0,0.0,0.0,0.0,0.0,0.0,0.0,0.0,0.0,0.0,0.0,0.0,0.0,0.0,0.0,0.0,0.0,0.0,0.0,0.0,0.0,0.0,0.0,0.0,0.0,0.0,0.0,0.0,0.0,0.0,0.0,0.0,0.0,0.0,0.0,0.0,0.0,0.0,0.0,0.0,0.0,0.0,0.0,0.0,0.0,0.0,0.0,0.0,0.0,0.0,0.0,0.0,0.0,0.0,0.0,0.0,0.0,0.0,0.0,0.0,0.0,0.0,0.0,0.0,0.0,0.0,0.0,0.0,0.0,4.6772,4.8502,4.9566,4.9566,4.981,4.9836,4.9566,4.9499,4.8273,4.5386,0.0,0.0,0.0,0.0,0.0,0.0,0.0,0.0,0.0,0.0,0.0,0.0,0.0,0.0,0.0,0.0,0.0,0.0,0.0,0.0,0.0,0.0,0.0,0.0,0.0,0.0,0.0,0.0,0.0,0.0,0.0,0.0,0.0,0.0,0.0,0.0,0.0,0.0,0.0,0.0,0.0,0.0,0.0,0.0,0.0,0.0,0.0,0.0,0.0,0.0,0.0,0.0,0.0,0.0,0.0,0.0,0.0,0.0,0.0,0.0,0.0,0.0,0.0,0.0,0.0,0.0,0.0,0.0,0.0,0.0,0.0,0.0,0.0,0.0,0.0,0.0,0.0,0.0,0.0,0.0,0.0,0.0,0.0,0.0,0.0,0.0,0.0,0.0,0.0,0.0,0.0,0.0,0.0,0.0,0.0,0.0,0.0,0.0,0.0,0.0,0.0,0.0,4.6244,4.8009,4.9047,4.9047,4.9202,4.9265,4.9073,4.872,4.7223,4.4189,0.0,0.0,0.0,0.0,0.0,0.0,0.0,0.0,0.0,0.0,0.0,0.0,0.0,0.0,0.0,0.0,0.0,0.0,0.0,0.0,0.0,0.0,0.0,0.0,0.0,0.0,0.0,0.0,0.0,0.0,0.0,0.0,0.0,0.0,0.0,0.0,0.0,0.0,0.0,0.0,0.0,0.0,0.0,0.0,0.0,0.0,0.0,0.0,0.0,0.0,0.0,0.0,0.0,0.0,0.0,0.0,0.0,0.0,0.0,0.0,0.0,0.0,0.0,0.0,0.0,0.0,0.0,0.0,0.0,0.0,0.0,0.0,0.0,0.0,0.0,0.0,0.0,0.0,0.0,0.0,0.0,0.0,0.0,0.0,0.0,0.0,0.0,0.0,0.0,0.0,0.0,0.0,0.0,0.0,0.0,0.0,0.0,0.0,0.0,0.0,0.0,0.0,4.5102,4.678,4.7843,4.7843,4.8434,4.8538,4.7895,4.7843,4.64,0.0,0.0,0.0,0.0,0.0,0.0,0.0,0.0,0.0,0.0,0.0,0.0,0.0,0.0,0.0,0.0,0.0,0.0,0.0,0.0,0.0,0.0,0.0,0.0,0.0,0.0,0.0,0.0,0.0,0.0,0.0,0.0,0.0,0.0,0.0,0.0,0.0,0.0,0.0,0.0,0.0,0.0,0.0,0.0,0.0,0.0,0.0,0.0,0.0,0.0,0.0,0.0,0.0,0.0,0.0,0.0,0.0,0.0,0.0,0.0,0.0,0.0,0.0,0.0,0.0,0.0,0.0,0.0,0.0,0.0,0.0,0.0,0.0,0.0,0.0,0.0,0.0,0.0,0.0,0.0,0.0,0.0,0.0,0.0,0.0,0.0,0.0,0.0,0.0,0.0,0.0,0.0,0.0,0.0,0.0,0.0,0.0,0.0,0.0,0.0,0.0,0.0,0.0,4.5024,4.6452,4.7438,4.7765,4.8009,4.7905,4.7334,4.7282,4.5837,4.2447,0.0,0.0,0.0,0.0,0.0,0.0,0.0,0.0,0.0,0.0,0.0,0.0,0.0,0.0,0.0,0.0,0.0,0.0,0.0,0.0,0.0,0.0,0.0,0.0,0.0,0.0,0.0,0.0,0.0,0.0,0.0,0.0,0.0,0.0,0.0,0.0,0.0,0.0,0.0,0.0,0.0,0.0,0.0,0.0,0.0,0.0,0.0,0.0,0.0,0.0,0.0,0.0,0.0,0.0,0.0,0.0,0.0,0.0,0.0,0.0,0.0,0.0,0.0,0.0,0.0,0.0,0.0,0.0,0.0,0.0,0.0,0.0,0.0,0.0,0.0,0.0,0.0,0.0,0.0,0.0,0.0,0.0,0.0,0.0,0.0,0.0,0.0,0.0,0.0,0.0,0.0,0.0,0.0,0.0,0.0,0.0,0.0,0.0,0.0,0.0,0.0,0.0,0.0,4.6071,4.711,4.7204,4.7412,4.7308,4.6772,4.6538,4.511,4.2192,0.0,0.0,0.0,0.0,0.0,0.0,0.0,0.0,0.0,0.0,0.0,0.0,0.0,0.0,0.0,0.0,0.0,0.0,0.0,0.0,0.0,0.0,0.0,0.0,0.0,0.0,0.0,0.0,0.0,0.0,0.0,0.0,0.0,0.0,0.0,0.0,0.0,0.0,0.0,0.0,0.0,0.0,0.0,0.0,0.0,0.0,0.0,0.0,0.0,0.0,0.0,0.0,0.0,0.0,0.0,0.0,0.0,0.0,0.0,0.0,0.0,0.0,0.0,0.0,0.0,0.0,0.0,0.0,0.0,0.0,0.0,0.0,0.0,0.0,0.0,0.0,0.0,0.0,0.0,0.0,0.0,0.0,0.0,0.0,0.0,0.0,0.0,0.0,0.0,0.0,0.0,0.0,0.0,0.0,0.0,0.0,0.0,0.0,0.0,0.0,0.0,0.0,0.0,4.5551,4.6746,4.6287,4.6668,4.6772,4.6235,4.5603,4.4305,4.2062,4.1292,0.0,0.0,0.0,0.0,0.0,0.0,0.0,0.0,0.0,0.0,0.0,0.0,0.0,0.0,0.0,0.0,0.0,0.0,0.0,0.0,0.0,0.0,0.0,0.0,0.0,0.0,0.0,0.0,0.0,0.0,0.0,0.0,0.0,0.0,0.0,0.0,0.0,0.0,0.0,0.0,0.0,0.0,0.0,0.0,0.0,0.0,0.0,0.0,0.0,0.0,0.0,0.0,0.0,0.0,0.0,0.0,0.0,0.0,0.0,0.0,0.0,0.0,0.0,0.0,0.0,0.0,0.0,0.0,0.0,0.0,0.0,0.0,0.0,0.0,0.0,0.0,0.0,0.0,0.0,0.0,0.0,0.0,0.0,0.0,0.0,0.0,0.0,0.0,0.0,0.0,0.0,0.0,0.0,0.0,0.0,0.0,0.0,0.0,0.0,0.0,0.0,0.0,4.4817,4.5863,4.6244,4.64,4.6209,4.5603,4.504,4.3714,4.137,4.0726,0.0,0.0,0.0,0.0,0.0,0.0,0.0,0.0,0.0,0.0,0.0,0.0,0.0,0.0,0.0,0.0,0.0,0.0,0.0,0.0,0.0,0.0,0.0,0.0,0.0,0.0,0.0,0.0,0.0,0.0,0.0,0.0,0.0,0.0,0.0,0.0,0.0,0.0,0.0,0.0,0.0,0.0,0.0,0.0,0.0,0.0,0.0,0.0,0.0,0.0,0.0,0.0,0.0,0.0,0.0,0.0,0.0,0.0,0.0,0.0,0.0,0.0,0.0,0.0,0.0,0.0,0.0,0.0,0.0,0.0,0.0,0.0,0.0,0.0,0.0,0.0,0.0,0.0,0.0,0.0,0.0,0.0,0.0,0.0,0.0,0.0,0.0,0.0,0.0,0.0,0.0,0.0,0.0,0.0,0.0,0.0,0.0,0.0,0.0,0.0,0.0,0.0,4.3058,4.4208,4.536,4.5689,4.5473,4.4583,4.4227,4.3117,4.0799,4.0124,0.0,0.0,0.0,0.0,0.0,0.0,0.0,0.0,0.0,0.0,0.0,0.0,0.0,0.0,0.0,0.0,0.0,0.0,0.0,0.0,0.0,0.0,0.0,0.0,0.0,0.0,0.0,0.0,0.0,0.0,0.0,0.0,0.0,0.0,0.0,0.0,0.0,0.0,0.0,0.0,0.0,0.0,0.0,0.0,0.0,0.0,0.0,0.0,0.0,0.0,0.0,0.0,0.0,0.0,0.0,0.0,0.0,0.0,0.0,0.0,0.0,0.0,0.0,0.0,0.0,0.0,0.0,0.0,0.0,0.0,0.0,0.0,0.0,0.0,0.0,0.0,0.0,0.0,0.0,0.0,0.0,0.0,0.0,0.0,0.0,0.0,0.0,0.0,0.0,0.0,0.0,0.0,0.0,0.0,0.0,0.0,0.0,0.0,0.0,0.0,0.0,0.0,0.0,4.2447,4.4085,4.472,4.4635,4.3623,4.3389,4.2435,4.0392,0.0,0.0,0.0,0.0,0.0,0.0,0.0,0.0,0.0,0.0,0.0,0.0,0.0,0.0,0.0,0.0,0.0,0.0,0.0,0.0,0.0,0.0,0.0,0.0,0.0,0.0,0.0,0.0,0.0,0.0,0.0,0.0,0.0,0.0,0.0,0.0,0.0,0.0,0.0,0.0,0.0,0.0,0.0,0.0,0.0,0.0,0.0,0.0,0.0,0.0,0.0,0.0,0.0,0.0,0.0,0.0,0.0,0.0,0.0,0.0,0.0,0.0,0.0,0.0,0.0,0.0,0.0,0.0,0.0,0.0,0.0,0.0,0.0,0.0,0.0,0.0,0.0,0.0,0.0,0.0,0.0,0.0,0.0,0.0,0.0,0.0,0.0,0.0,0.0,0.0,0.0,0.0,0.0,0.0,0.0,0.0,0.0,0.0,0.0,0.0,0.0,0.0,0.0,0.0,4.163,4.2909,4.35,4.3753,4.3571,4.2727,4.1666,4.031,0.0,0.0,0.0,0.0,0.0,0.0,0.0,0.0,0.0,0.0,0.0,0.0,0.0,0.0]}]]]